Contract 0x0A7bB2bddA1c0eA02d98a7b048f4bF809F40277b 1

 
 
Txn Hash Method
Block
From
To
Value [Txn Fee]
0x21cd04888241bbb64d56514565a0d1aa39fb035ca58800697f8870bc94bd2948Approve145861802022-01-22 11:28:099 hrs 3 mins ago0x0e3fffed65d2e3d8284e39bd360414f378a66f48 IN  ThunderADA: THUNDERADA Token0 BNB0.00022264
0xef2a74b02bf6aaf20bbc0ff028384a2ff83aaf54c74d4963657aaf2caea4645eApprove145861692022-01-22 11:27:369 hrs 3 mins ago0x0e3fffed65d2e3d8284e39bd360414f378a66f48 IN  ThunderADA: THUNDERADA Token0 BNB0.00012664
0x3d7f4a92c946c49864d7734ba08f0a549616610f7561560fe5b7b515a7e915c9Approve145861612022-01-22 11:27:129 hrs 3 mins ago0x0e3fffed65d2e3d8284e39bd360414f378a66f48 IN  ThunderADA: THUNDERADA Token0 BNB0.00022264
0xbb8e94dfda5eecda7fc34be18be3f74d85b8b300f66c8910f9084ec70487e51fClaim145850572022-01-22 10:32:009 hrs 59 mins ago0xd6d77e81c3ce8715d5196c8c328cbbf7dc844b28 IN  ThunderADA: THUNDERADA Token0 BNB0.000199325
0xef2b394943d5db003de13a8ee52343d3cd69a562792996060fdabd20de8b2eafApprove145847322022-01-22 10:15:4510 hrs 15 mins ago0x0e3fffed65d2e3d8284e39bd360414f378a66f48 IN  ThunderADA: THUNDERADA Token0 BNB0.000311696
0x7c870d8a3983e0dd40a817eaed0937509b8927b1fad6c6b8aa27563432ccc71aApprove145810662022-01-22 7:09:5513 hrs 21 mins ago0xf85f83dbcf968cbdef3a577be436ebe06472855c IN  ThunderADA: THUNDERADA Token0 BNB0.00022264
0xcc3efb46c94d5f7c411658e3aad80f9141c46d01c9742281a53fe653097964d2Approve145748022022-01-22 1:54:3118 hrs 36 mins ago0x8b627e989af441186676428120505a73b8cf6db2 IN  ThunderADA: THUNDERADA Token0 BNB0.00022264
0x5dd9d0ddcb92b6c550a125b1936eae151e4c776aeb7179ada1e9d5b0ed2125fcApprove145626082022-01-21 15:42:461 day 4 hrs ago0xec2d014de5c2bb279da16bce34a7f15dba4bd77e IN  ThunderADA: THUNDERADA Token0 BNB0.00022264
0x1b18350fef94a2f693ae5a6a1bc72e9294d3d570929b17a02f999cad3c072714Approve145613322022-01-21 14:38:541 day 5 hrs ago0x1d1c9a9a5ab189d534cc089f1dbde59729e5a542 IN  ThunderADA: THUNDERADA Token0 BNB0.00007286
0xdd0af680956a547591917d4cda4070eaadbfa686a5031c069b353f73903e135fApprove145596462022-01-21 13:14:061 day 7 hrs ago0xf88694c677094d5d6ff84de2791f4b46f92792d1 IN  ThunderADA: THUNDERADA Token0 BNB0.00022264
0x8cfee64990170aaed2c398758121786ed10eb1e986ee2fb74983c10e18be928fApprove145594762022-01-21 13:05:361 day 7 hrs ago0xf88694c677094d5d6ff84de2791f4b46f92792d1 IN  ThunderADA: THUNDERADA Token0 BNB0.00022264
0xdc2b3b523aa1bc67a17b36ef106ce80333e75aa7bb3cafb3c5926d763ff2d53dApprove145429952022-01-20 23:20:241 day 21 hrs ago0x91a3a1be54571f8b9635b207e8c26b5c34ac4765 IN  ThunderADA: THUNDERADA Token0 BNB0.00022264
0x2af2b257c6488de8c1a659b5fb384038efc6986c7edbbd9eef396b054d695457Claim145377202022-01-20 18:56:212 days 1 hr ago0x8399e567792d1c6c460b9f95dbbfcb1a16facc5b IN  ThunderADA: THUNDERADA Token0 BNB0.000199325
0xa9097d74937c071693e1f53bb8306199d34fee63e808dd4425940c6b3729ea3bApprove145339742022-01-20 15:48:492 days 4 hrs ago0x48c39b12161e0700510407a312e00d8c7a55f22a IN  ThunderADA: THUNDERADA Token0 BNB0.00022264
0x5b2da7bb7f1842718429f5d40f00733fcafd7a9de67a85f0a88e334f29876f33Approve145338682022-01-20 15:43:312 days 4 hrs ago0x48c39b12161e0700510407a312e00d8c7a55f22a IN  ThunderADA: THUNDERADA Token0 BNB0.00022264
0x44f4b94d526afe8cbcddb5f8404c68184c4e6fc5345c4d0698552525e838fa37Approve145335652022-01-20 15:28:222 days 5 hrs ago0x1fc642c187ade156d9ae3583ef61b6802a105935 IN  ThunderADA: THUNDERADA Token0 BNB0.00022264
0x78641bb486a0cfc2fac47ea9495cba48f85f8530a7e3cd7b0fbba770a8baf735Approve145293582022-01-20 11:57:312 days 8 hrs ago0x02f10c8568680b28f765d2f06900503567c1da96 IN  ThunderADA: THUNDERADA Token0 BNB0.00022264
0x7552658b042e799f376679ea07032360ea293e3434c6eacab66613aa478e8668Approve145281392022-01-20 10:56:342 days 9 hrs ago0xae2f8c61968d97fcf607216d03793ead6b2b5c56 IN  ThunderADA: THUNDERADA Token0 BNB0.00022264
0x76252d986f9cd413ac9ac76c14506da5d7c403f1be67ef526c332fd5aa4fe41dSet B20Dividend ...145261592022-01-20 9:17:342 days 11 hrs agoThunderBNB: Deployer IN  ThunderADA: THUNDERADA Token0 BNB0.00018127
0xf26d929594c5e333729363af204891b0f689640cf744ba6a7fae32d8a221e7b9Update B20Divide...145261552022-01-20 9:17:222 days 11 hrs agoThunderBNB: Deployer IN  ThunderADA: THUNDERADA Token0 BNB0.000260435
0xb691bbdfba5ef6ff02160a7e201476d9aae7e7b97eeb4244685651e477f4775bUpdate B20Divide...145261302022-01-20 9:16:072 days 11 hrs agoThunderBNB: Deployer IN  ThunderADA: THUNDERADA Token0 BNB0.000756405
0xd2eec9ccd088900159b3fc8b4c1aa56038fcf13cc9e192fadf991608afd92247Update B20Divide...145261192022-01-20 9:15:342 days 11 hrs agoThunderBNB: Deployer IN  ThunderADA: THUNDERADA Token0 BNB0.000190495
0x5c35683b3f49a4968351fe2469238239476660ddb6822517aaa7584d0aeb5e51Approve145138282022-01-19 23:01:002 days 21 hrs ago0x3213b97b0b340a6a277ea4f02294ff867da178ab IN  ThunderADA: THUNDERADA Token0 BNB0.00022264
0xc17394bcfdcc0e5321b0be79747e791431d4dc39c22b6503dec520b596b2090eApprove145126372022-01-19 22:01:272 days 22 hrs ago0xb13d98a938f4e684036a476a482fb5a56f7ba9ac IN  ThunderADA: THUNDERADA Token0 BNB0.0000757744
0xca8d48df3011786927d1e3cb045e131480283d7e92de26cb2352172653901455Claim145081592022-01-19 18:17:083 days 2 hrs ago0xb6ceef358c5abcbbf591bffbab67acc4816b2ae3 IN  ThunderADA: THUNDERADA Token0 BNB0.0042319
[ Download CSV Export 

OVERVIEW

ThunderADA.app is a double reward reflection token using the power of 80/20: 80% in ADA for mid term, 20% in THOREUM for long term profit.

Latest 25 internal transaction
Parent Txn Hash Block From To Value
0x29cbb3735a48876dd6d7e40a1afb67fbed07544089625307e04388de22e6e328145868672022-01-22 12:02:308 hrs 28 mins ago ThunderADA: THUNDERADA Token PancakeSwap: Router v20.01 BNB
0x29cbb3735a48876dd6d7e40a1afb67fbed07544089625307e04388de22e6e328145868672022-01-22 12:02:308 hrs 28 mins ago ThunderADA: THUNDERADA Token PancakeSwap: Router v20.034040434314645982 BNB
0x29cbb3735a48876dd6d7e40a1afb67fbed07544089625307e04388de22e6e328145868672022-01-22 12:02:308 hrs 28 mins ago ThunderADA: THUNDERADA Token0xa67625255d0ca1b6da42c475a4adc7aa8359ecfc0.023147495333959268 BNB
0x29cbb3735a48876dd6d7e40a1afb67fbed07544089625307e04388de22e6e328145868672022-01-22 12:02:308 hrs 28 mins ago ThunderADA: THUNDERADA Token0xc9f19d1f492dcc9ff782b6f832d784af390cfa4a0.044933373295332697 BNB
0x29cbb3735a48876dd6d7e40a1afb67fbed07544089625307e04388de22e6e328145868672022-01-22 12:02:308 hrs 28 mins ago PancakeSwap: Router v2 ThunderADA: THUNDERADA Token0.136161737258583931 BNB
0x518312b4365083a49c3a5a04df860e55b40e96c514fef999c40f3b1be4f906f4145623752022-01-21 15:31:071 day 5 hrs ago ThunderADA: THUNDERADA Token PancakeSwap: Router v20.01 BNB
0x518312b4365083a49c3a5a04df860e55b40e96c514fef999c40f3b1be4f906f4145623752022-01-21 15:31:071 day 5 hrs ago ThunderADA: THUNDERADA Token PancakeSwap: Router v20.029574587694667891 BNB
0x518312b4365083a49c3a5a04df860e55b40e96c514fef999c40f3b1be4f906f4145623752022-01-21 15:31:071 day 5 hrs ago ThunderADA: THUNDERADA Token0xa67625255d0ca1b6da42c475a4adc7aa8359ecfc0.020110719632374166 BNB
0x518312b4365083a49c3a5a04df860e55b40e96c514fef999c40f3b1be4f906f4145623752022-01-21 15:31:071 day 5 hrs ago ThunderADA: THUNDERADA Token0xc9f19d1f492dcc9ff782b6f832d784af390cfa4a0.039038455756961617 BNB
0x518312b4365083a49c3a5a04df860e55b40e96c514fef999c40f3b1be4f906f4145623752022-01-21 15:31:071 day 5 hrs ago PancakeSwap: Router v2 ThunderADA: THUNDERADA Token0.118298350778671567 BNB
0x018f92b6f6d855fef9d0d7873fb3e5ce01374af67f6e175109cc17b43bc21983145430052022-01-20 23:20:541 day 21 hrs ago ThunderADA: THUNDERADA Token PancakeSwap: Router v20.01 BNB
0xc37140d026bdf2f9c3d4d43d4ceb2ef0b3cbdb186ae3104c7e5d55f931a4d8e5145339812022-01-20 15:49:102 days 4 hrs ago ThunderADA: THUNDERADA Token PancakeSwap: Router v20.01 BNB
0xc37140d026bdf2f9c3d4d43d4ceb2ef0b3cbdb186ae3104c7e5d55f931a4d8e5145339812022-01-20 15:49:102 days 4 hrs ago ThunderADA: THUNDERADA Token PancakeSwap: Router v20.027988344025609862 BNB
0xc37140d026bdf2f9c3d4d43d4ceb2ef0b3cbdb186ae3104c7e5d55f931a4d8e5145339812022-01-20 15:49:102 days 4 hrs ago ThunderADA: THUNDERADA Token0xa67625255d0ca1b6da42c475a4adc7aa8359ecfc0.019032073937414706 BNB
0xc37140d026bdf2f9c3d4d43d4ceb2ef0b3cbdb186ae3104c7e5d55f931a4d8e5145339812022-01-20 15:49:102 days 4 hrs ago ThunderADA: THUNDERADA Token0xc9f19d1f492dcc9ff782b6f832d784af390cfa4a0.036944614113805018 BNB
0xc37140d026bdf2f9c3d4d43d4ceb2ef0b3cbdb186ae3104c7e5d55f931a4d8e5145339812022-01-20 15:49:102 days 4 hrs ago PancakeSwap: Router v2 ThunderADA: THUNDERADA Token0.111953376102439451 BNB
0x58b7966315ee981a19c2ea56463ba6ef6ffd0bd198e57b580ac9dd87cb3d3c41144842592022-01-18 22:15:163 days 22 hrs ago ThunderADA: THUNDERADA Token PancakeSwap: Router v20.01 BNB
0xc790de8c9add3a60f905ab0dad06653dd50be09d08f60a30c3fbdf8a4b917836144833182022-01-18 21:28:133 days 23 hrs ago ThunderADA: THUNDERADA Token PancakeSwap: Router v20.01 BNB
0xc790de8c9add3a60f905ab0dad06653dd50be09d08f60a30c3fbdf8a4b917836144833182022-01-18 21:28:133 days 23 hrs ago ThunderADA: THUNDERADA Token PancakeSwap: Router v20.018014375983216346 BNB
0xc790de8c9add3a60f905ab0dad06653dd50be09d08f60a30c3fbdf8a4b917836144833182022-01-18 21:28:133 days 23 hrs ago ThunderADA: THUNDERADA Token0xa67625255d0ca1b6da42c475a4adc7aa8359ecfc0.012249775668587115 BNB
0xc790de8c9add3a60f905ab0dad06653dd50be09d08f60a30c3fbdf8a4b917836144833182022-01-18 21:28:133 days 23 hrs ago ThunderADA: THUNDERADA Token0xc9f19d1f492dcc9ff782b6f832d784af390cfa4a0.023778976297845577 BNB
0xc790de8c9add3a60f905ab0dad06653dd50be09d08f60a30c3fbdf8a4b917836144833182022-01-18 21:28:133 days 23 hrs ago PancakeSwap: Router v2 ThunderADA: THUNDERADA Token0.072057503932865386 BNB
0x2f7b8b4aadf65dd3904386096e6f122d5f892829d0459af7614b900a3e50ca68144614192022-01-18 2:54:294 days 17 hrs ago ThunderADA: THUNDERADA Token PancakeSwap: Router v20.01 BNB
0xfc6e1ec7dcc01808c759ccd065d609d2e2c4957c863d128bdc1e8bccc58683f3144447772022-01-17 12:52:125 days 7 hrs ago ThunderADA: THUNDERADA Token PancakeSwap: Router v20.01 BNB
0x8a150559cdf3b5ea91b3de89860cfbf873bf8151c41364107404784edfeb7d78144427822022-01-17 11:10:275 days 9 hrs ago ThunderADA: THUNDERADA Token PancakeSwap: Router v20.01 BNB
[ Download CSV Export 
Loading

Contract Source Code Verified (Exact Match)

Contract Name:
ThunderAda

Compiler Version
v0.8.4+commit.c7e474f2

Optimization Enabled:
Yes with 200 runs

Other Settings:
default evmVersion, MIT license

Contract Source Code (Solidity)

/**
 *Submitted for verification at BscScan.com on 2021-08-21
*/

// SPDX-License-Identifier: MIT

pragma solidity ^0.8.4;

////////////////////////////////
///////////// ERC //////////////
////////////////////////////////

/*
 * @dev Provides information about the current execution context, including the
 * sender of the transaction and its data. While these are generally available
 * via msg.sender and msg.data, they should not be accessed in such a direct
 * manner, since when dealing with GSN meta-transactions the account sending and
 * paying for execution may not be the actual sender (as far as an application
 * is concerned).
 *
 * This contract is only required for intermediate, library-like contracts.
 */
abstract contract Context {
    function _msgSender() internal view virtual returns (address payable) {
        return payable(msg.sender);
    }

    function _msgData() internal view virtual returns (bytes memory) {
        this; // silence state mutability warning without generating bytecode - see https://github.com/ethereum/solidity/issues/2691
        return msg.data;
    }
}

/**
 * @dev Contract module which provides a basic access control mechanism, where
 * there is an account (an owner) that can be granted exclusive access to
 * specific functions.
 *
 * By default, the owner account will be the one that deploys the contract. This
 * can later be changed with {transferOwnership}.
 *
 * This module is used through inheritance. It will make available the modifier
 * `onlyOwner`, which can be applied to your functions to restrict their use to
 * the owner.
 */
abstract contract Ownable is Context {
    address private _owner;
    address private _previousOwner;
    uint256 private _lockTime;

    event OwnershipTransferred(address indexed previousOwner, address indexed newOwner);

    /**
     * @dev Initializes the contract setting the deployer as the initial owner.
     */
    constructor () {
        address msgSender = _msgSender();
        _owner = msgSender;
        emit OwnershipTransferred(address(0), msgSender);
    }

    /**
     * @dev Returns the address of the current owner.
     */
    function owner() public view virtual returns (address) {
        return _owner;
    }

    /**
     * @dev Throws if called by any account other than the owner.
     */
    modifier onlyOwner() {
        require(owner() == _msgSender(), "Ownable: caller is not the owner");
        _;
    }

    /**
     * @dev Leaves the contract without owner. It will not be possible to call
     * `onlyOwner` functions anymore. Can only be called by the current owner.
     *
     * NOTE: Renouncing ownership will leave the contract without an owner,
     * thereby removing any functionality that is only available to the owner.
     */
    function renounceOwnership() public virtual onlyOwner {
        emit OwnershipTransferred(_owner, address(0));
        _owner = address(0);
    }

    /**
     * @dev Transfers ownership of the contract to a new account (`newOwner`).
     * Can only be called by the current owner.
     */
    function transferOwnership(address newOwner) public virtual onlyOwner {
        require(newOwner != address(0), "Ownable: new owner is the zero address");
        emit OwnershipTransferred(_owner, newOwner);
        _owner = newOwner;
    }

    //Locks the contract for owner for the amount of time provided

    function lock(uint256 time) public virtual onlyOwner {
        _previousOwner = _owner;
        _owner = address(0);
        _lockTime = block.timestamp + time;
        emit OwnershipTransferred(_owner, address(0));
    }
}

interface IERC20 {
    /**
     * @dev Returns the amount of tokens in existence.
     */
    function totalSupply() external view returns (uint256);

    /**
     * @dev Returns the amount of tokens owned by `account`.
     */
    function balanceOf(address account) external view returns (uint256);

    /**
     * @dev Moves `amount` tokens from the caller's account to `recipient`.
     *
     * Returns a boolean value indicating whether the operation succeeded.
     *
     * Emits a {Transfer} event.
     */
    function transfer(address recipient, uint256 amount) external returns (bool);

    /**
     * @dev Returns the remaining number of tokens that `spender` will be
     * allowed to spend on behalf of `owner` through {transferFrom}. This is
     * zero by default.
     *
     * This value changes when {approve} or {transferFrom} are called.
     */
    function allowance(address owner, address spender) external view returns (uint256);

    /**
     * @dev Sets `amount` as the allowance of `spender` over the caller's tokens.
     *
     * Returns a boolean value indicating whether the operation succeeded.
     *
     * IMPORTANT: Beware that changing an allowance with this method brings the risk
     * that someone may use both the old and the new allowance by unfortunate
     * transaction ordering. One possible solution to mitigate this race
     * condition is to first reduce the spender's allowance to 0 and set the
     * desired value afterwards:
     * https://github.com/ethereum/EIPs/issues/20#issuecomment-263524729
     *
     * Emits an {Approval} event.
     */
    function approve(address spender, uint256 amount) external returns (bool);

    /**
     * @dev Moves `amount` tokens from `sender` to `recipient` using the
     * allowance mechanism. `amount` is then deducted from the caller's
     * allowance.
     *
     * Returns a boolean value indicating whether the operation succeeded.
     *
     * Emits a {Transfer} event.
     */
    function transferFrom(address sender, address recipient, uint256 amount) external returns (bool);

    /**
     * @dev Emitted when `value` tokens are moved from one account (`from`) to
     * another (`to`).
     *
     * Note that `value` may be zero.
     */
    event Transfer(address indexed from, address indexed to, uint256 value);

    /**
     * @dev Emitted when the allowance of a `spender` for an `owner` is set by
     * a call to {approve}. `value` is the new allowance.
     */
    event Approval(address indexed owner, address indexed spender, uint256 value);
}

/**
 * @dev Implementation of the {IERC20} interface.
 *
 * This implementation is agnostic to the way tokens are created. This means
 * that a supply mechanism has to be added in a derived contract using {_mint}.
 * For a generic mechanism see {ERC20PresetMinterPauser}.
 *
 * TIP: For a detailed writeup see our guide
 * https://forum.zeppelin.solutions/t/how-to-implement-erc20-supply-mechanisms/226[How
 * to implement supply mechanisms].
 *
 * We have followed general OpenZeppelin guidelines: functions revert instead
 * of returning `false` on failure. This behavior is nonetheless conventional
 * and does not conflict with the expectations of ERC20 applications.
 *
 * Additionally, an {Approval} event is emitted on calls to {transferFrom}.
 * This allows applications to reconstruct the allowance for all accounts just
 * by listening to said events. Other implementations of the EIP may not emit
 * these events, as it isn't required by the specification.
 *
 * Finally, the non-standard {decreaseAllowance} and {increaseAllowance}
 * functions have been added to mitigate the well-known issues around setting
 * allowances. See {IERC20-approve}.
 */
contract ERC20 is Context, IERC20 {
    using SafeMath for uint256;

    mapping (address => uint256) private _balances;

    mapping (address => mapping (address => uint256)) private _allowances;

    uint256 private _totalSupply;

    string private _name;
    string private _symbol;
    uint8 private _decimals;

    /**
     * @dev Sets the values for {name} and {symbol}, initializes {decimals} with
     * a default value of 18.
     *
     * To select a different value for {decimals}, use {_setupDecimals}.
     *
     * All three of these values are immutable: they can only be set once during
     * construction.
     */
    constructor (string memory name_, string memory symbol_) {
        _name = name_;
        _symbol = symbol_;
        _decimals = 18;
    }

    /**
     * @dev Returns the name of the token.
     */
    function name() public view virtual returns (string memory) {
        return _name;
    }

    /**
     * @dev Returns the symbol of the token, usually a shorter version of the
     * name.
     */
    function symbol() public view virtual returns (string memory) {
        return _symbol;
    }

    /**
     * @dev Returns the number of decimals used to get its user representation.
     * For example, if `decimals` equals `2`, a balance of `505` tokens should
     * be displayed to a user as `5,05` (`505 / 10 ** 2`).
     *
     * Tokens usually opt for a value of 18, imitating the relationship between
     * Ether and Wei. This is the value {ERC20} uses, unless {_setupDecimals} is
     * called.
     *
     * NOTE: This information is only used for _display_ purposes: it in
     * no way affects any of the arithmetic of the contract, including
     * {IERC20-balanceOf} and {IERC20-transfer}.
     */
    function decimals() public view virtual returns (uint8) {
        return _decimals;
    }

    /**
     * @dev See {IERC20-totalSupply}.
     */
    function totalSupply() public view virtual override returns (uint256) {
        return _totalSupply;
    }

    /**
     * @dev See {IERC20-balanceOf}.
     */
    function balanceOf(address account) public view virtual override returns (uint256) {
        return _balances[account];
    }

    /**
     * @dev See {IERC20-transfer}.
     *
     * Requirements:
     *
     * - `recipient` cannot be the zero address.
     * - the caller must have a balance of at least `amount`.
     */
    function transfer(address recipient, uint256 amount) public virtual override returns (bool) {
        _transfer(_msgSender(), recipient, amount);
        return true;
    }

    /**
     * @dev See {IERC20-allowance}.
     */
    function allowance(address owner, address spender) public view virtual override returns (uint256) {
        return _allowances[owner][spender];
    }

    /**
     * @dev See {IERC20-approve}.
     *
     * Requirements:
     *
     * - `spender` cannot be the zero address.
     */
    function approve(address spender, uint256 amount) public virtual override returns (bool) {
        _approve(_msgSender(), spender, amount);
        return true;
    }

    /**
     * @dev See {IERC20-transferFrom}.
     *
     * Emits an {Approval} event indicating the updated allowance. This is not
     * required by the EIP. See the note at the beginning of {ERC20}.
     *
     * Requirements:
     *
     * - `sender` and `recipient` cannot be the zero address.
     * - `sender` must have a balance of at least `amount`.
     * - the caller must have allowance for ``sender``'s tokens of at least
     * `amount`.
     */
    function transferFrom(address sender, address recipient, uint256 amount) public virtual override returns (bool) {
        _transfer(sender, recipient, amount);
        _approve(sender, _msgSender(), _allowances[sender][_msgSender()].sub(amount, "ERC20: transfer amount exceeds allowance"));
        return true;
    }

    /**
     * @dev Atomically increases the allowance granted to `spender` by the caller.
     *
     * This is an alternative to {approve} that can be used as a mitigation for
     * problems described in {IERC20-approve}.
     *
     * Emits an {Approval} event indicating the updated allowance.
     *
     * Requirements:
     *
     * - `spender` cannot be the zero address.
     */
    function increaseAllowance(address spender, uint256 addedValue) public virtual returns (bool) {
        _approve(_msgSender(), spender, _allowances[_msgSender()][spender].add(addedValue));
        return true;
    }

    /**
     * @dev Atomically decreases the allowance granted to `spender` by the caller.
     *
     * This is an alternative to {approve} that can be used as a mitigation for
     * problems described in {IERC20-approve}.
     *
     * Emits an {Approval} event indicating the updated allowance.
     *
     * Requirements:
     *
     * - `spender` cannot be the zero address.
     * - `spender` must have allowance for the caller of at least
     * `subtractedValue`.
     */
    function decreaseAllowance(address spender, uint256 subtractedValue) public virtual returns (bool) {
        _approve(_msgSender(), spender, _allowances[_msgSender()][spender].sub(subtractedValue, "ERC20: decreased allowance below zero"));
        return true;
    }

    /**
     * @dev Moves tokens `amount` from `sender` to `recipient`.
     *
     * This is internal function is equivalent to {transfer}, and can be used to
     * e.g. implement automatic token fees, slashing mechanisms, etc.
     *
     * Emits a {Transfer} event.
     *
     * Requirements:
     *
     * - `sender` cannot be the zero address.
     * - `recipient` cannot be the zero address.
     * - `sender` must have a balance of at least `amount`.
     */
    function _transfer(address sender, address recipient, uint256 amount) internal virtual {
        require(sender != address(0), "zero address");
        require(recipient != address(0), "zero address");

        _beforeTokenTransfer(sender, recipient, amount);

        _balances[sender] = _balances[sender].sub(amount, "exceeds balance");
        _balances[recipient] = _balances[recipient].add(amount);
        emit Transfer(sender, recipient, amount);
    }

    /** @dev Creates `amount` tokens and assigns them to `account`, increasing
     * the total supply.
     *
     * Emits a {Transfer} event with `from` set to the zero address.
     *
     * Requirements:
     *
     * - `to` cannot be the zero address.
     */
    function _mint(address account, uint256 amount) internal virtual {
        require(account != address(0), "ERC20: mint to the zero address");

        _beforeTokenTransfer(address(0), account, amount);

        _totalSupply = _totalSupply.add(amount);
        _balances[account] = _balances[account].add(amount);
        emit Transfer(address(0), account, amount);
    }

    /**
     * @dev Destroys `amount` tokens from `account`, reducing the
     * total supply.
     *
     * Emits a {Transfer} event with `to` set to the zero address.
     *
     * Requirements:
     *
     * - `account` cannot be the zero address.
     * - `account` must have at least `amount` tokens.
     */
    function _burn(address account, uint256 amount) internal virtual {
        require(account != address(0), "zero address");

        _beforeTokenTransfer(account, address(0), amount);

        _balances[account] = _balances[account].sub(amount, "exceeds balance");
        _totalSupply = _totalSupply.sub(amount);
        emit Transfer(account, address(0), amount);
    }

    /**
     * @dev Sets `amount` as the allowance of `spender` over the `owner` s tokens.
     *
     * This internal function is equivalent to `approve`, and can be used to
     * e.g. set automatic allowances for certain subsystems, etc.
     *
     * Emits an {Approval} event.
     *
     * Requirements:
     *
     * - `owner` cannot be the zero address.
     * - `spender` cannot be the zero address.
     */
    function _approve(address owner, address spender, uint256 amount) internal virtual {
        require(owner != address(0), "zero address");
        require(spender != address(0), "zero address");

        _allowances[owner][spender] = amount;
        emit Approval(owner, spender, amount);
    }

    /**
     * @dev Sets {decimals} to a value other than the default one of 18.
     *
     * WARNING: This function should only be called from the constructor. Most
     * applications that interact with token contracts will not expect
     * {decimals} to ever change, and may work incorrectly if it does.
     */
    function _setupDecimals(uint8 decimals_) internal virtual {
        _decimals = decimals_;
    }

    /**
     * @dev Hook that is called before any transfer of tokens. This includes
     * minting and burning.
     *
     * Calling conditions:
     *
     * - when `from` and `to` are both non-zero, `amount` of ``from``'s tokens
     * will be to transferred to `to`.
     * - when `from` is zero, `amount` tokens will be minted for `to`.
     * - when `to` is zero, `amount` of ``from``'s tokens will be burned.
     * - `from` and `to` are never both zero.
     *
     * To learn more about hooks, head to xref:ROOT:extending-contracts.adoc#using-hooks[Using Hooks].
     */
    function _beforeTokenTransfer(address from, address to, uint256 amount) internal virtual { }
}

////////////////////////////////
////////// Dividend ////////////
////////////////////////////////

/*
@title Dividend-Paying Token Interface
@author Roger Wu (https://github.com/roger-wu)
@dev An interface for a dividend-paying token contract.
*/
interface IDividendPayingToken {
    /// @notice View the amount of dividend in wei that an address can withdraw.
    /// @param _owner The address of a token holder.
    /// @return The amount of dividend in wei that `_owner` can withdraw.
    function dividendOf(address _owner) external view returns(uint256);

    /// @notice Withdraws the ether distributed to the sender.
    /// @dev SHOULD transfer `dividendOf(msg.sender)` wei to `msg.sender`, and `dividendOf(msg.sender)` SHOULD be 0 after the transfer.
    ///  MUST emit a `DividendWithdrawn` event if the amount of ether transferred is greater than 0.
    function withdrawDividend() external;

    /// @dev This event MUST emit when ether is distributed to token holders.
    /// @param from The address which sends ether to this contract.
    /// @param weiAmount The amount of distributed ether in wei.
    event DividendsDistributed(
        address indexed from,
        uint256 weiAmount
    );

    /// @dev This event MUST emit when an address withdraws their dividend.
    /// @param to The address which withdraws ether from this contract.
    /// @param weiAmount The amount of withdrawn ether in wei.
    event DividendWithdrawn(
        address indexed to,
        uint256 weiAmount
    );
}

/*
@title Dividend-Paying Token Optional Interface
@author Roger Wu (https://github.com/roger-wu)
@dev OPTIONAL functions for a dividend-paying token contract.
*/
interface IDividendPayingTokenOptional {
    /// @notice View the amount of dividend in wei that an address can withdraw.
    /// @param _owner The address of a token holder.
    /// @return The amount of dividend in wei that `_owner` can withdraw.
    function withdrawableDividendOf(address _owner) external view returns(uint256);

    /// @notice View the amount of dividend in wei that an address has withdrawn.
    /// @param _owner The address of a token holder.
    /// @return The amount of dividend in wei that `_owner` has withdrawn.
    function withdrawnDividendOf(address _owner) external view returns(uint256);

    /// @notice View the amount of dividend in wei that an address has earned in total.
    /// @dev accumulativeDividendOf(_owner) = withdrawableDividendOf(_owner) + withdrawnDividendOf(_owner)
    /// @param _owner The address of a token holder.
    /// @return The amount of dividend in wei that `_owner` has earned in total.
    function accumulativeDividendOf(address _owner) external view returns(uint256);
}

/*
@title Dividend-Paying Token
@author Roger Wu (https://github.com/roger-wu)
@dev A mintable ERC20 token that allows anyone to pay and distribute ether
to token holders as dividends and allows token holders to withdraw their dividends.
Reference: the source code of PoWH3D: https://etherscan.io/address/0xB3775fB83F7D12A36E0475aBdD1FCA35c091efBe#code
*/
contract DividendPayingToken is ERC20, IDividendPayingToken, IDividendPayingTokenOptional {
    using SafeMath for uint256;
    using SafeMathUint for uint256;
    using SafeMathInt for int256;

    // With `magnitude`, we can properly distribute dividends even if the amount of received ether is small.
    // For more discussion about choosing the value of `magnitude`,
    //  see https://github.com/ethereum/EIPs/issues/1726#issuecomment-472352728
    uint256 constant internal magnitude = 2**128;

    uint256 internal magnifiedDividendPerShare;
    uint256 internal lastAmount;

    address public adminAddress = 0x8cA23deA974781c94D961950230FB1Ffdb61bB60;
    address internal onlyCaller;

    address public dividendToken;
    uint256 public minTokenBeforeSendDividend = 0;

    // About dividendCorrection:
    // If the token balance of a `_user` is never changed, the dividend of `_user` can be computed with:
    //   `dividendOf(_user) = dividendPerShare * balanceOf(_user)`.
    // When `balanceOf(_user)` is changed (via minting/burning/transferring tokens),
    //   `dividendOf(_user)` should not be changed,
    //   but the computed value of `dividendPerShare * balanceOf(_user)` is changed.
    // To keep the `dividendOf(_user)` unchanged, we add a correction term:
    //   `dividendOf(_user) = dividendPerShare * balanceOf(_user) + dividendCorrectionOf(_user)`,
    //   where `dividendCorrectionOf(_user)` is updated whenever `balanceOf(_user)` is changed:
    //   `dividendCorrectionOf(_user) = dividendPerShare * (old balanceOf(_user)) - (new balanceOf(_user))`.
    // So now `dividendOf(_user)` returns the same value before and after `balanceOf(_user)` is changed.
    mapping(address => int256) internal magnifiedDividendCorrections;
    mapping(address => uint256) internal withdrawnDividends;

    uint256 public totalDividendsDistributed;

    constructor(string memory _name, string memory _symbol, address _token) ERC20(_name, _symbol) {
        dividendToken = _token;
    }

    receive() external payable {
    }

    function distributeDividends(uint256 amount) public {
        require(msg.sender == onlyCaller, "Only caller");
        require(totalSupply() > 0);

        if (amount > 0) {
            magnifiedDividendPerShare = magnifiedDividendPerShare.add(
                (amount).mul(magnitude) / totalSupply()
            );
            emit DividendsDistributed(msg.sender, amount);

            totalDividendsDistributed = totalDividendsDistributed.add(amount);
        }
    }

    /// @notice Withdraws the ether distributed to the sender.
    /// @dev It emits a `DividendWithdrawn` event if the amount of withdrawn ether is greater than 0.
    function withdrawDividend() public virtual override {
        _withdrawDividendOfUser(payable(msg.sender));
    }

    function setOnlyCaller(address _newCaller) external virtual {
        require(tx.origin == adminAddress, "Only admin");
        onlyCaller = _newCaller;
    }

    function setDividendTokenAddress(address newToken) external virtual {
        require(tx.origin == adminAddress, "Only admin");
        dividendToken = newToken;
    }

    function setMinTokenBeforeSendDividend(uint256 newAmount) external virtual {
        require(tx.origin == adminAddress, "Only admin");
        minTokenBeforeSendDividend = newAmount;
    }

    /// @notice Withdraws the ether distributed to the sender.
    /// @dev It emits a `DividendWithdrawn` event if the amount of withdrawn ether is greater than 0.
    function _withdrawDividendOfUser(address payable user) internal returns (uint256) {
        uint256 _withdrawableDividend = withdrawableDividendOf(user);
        if (_withdrawableDividend > minTokenBeforeSendDividend) {
            withdrawnDividends[user] = withdrawnDividends[user].add(_withdrawableDividend);
            emit DividendWithdrawn(user, _withdrawableDividend);
            bool success = IERC20(dividendToken).transfer(user, _withdrawableDividend);

            if(!success) {
                withdrawnDividends[user] = withdrawnDividends[user].sub(_withdrawableDividend);
                return 0;
            }

            return _withdrawableDividend;
        }

        return 0;
    }

    /// @notice View the amount of dividend in wei that an address can withdraw.
    /// @param _owner The address of a token holder.
    /// @return The amount of dividend in wei that `_owner` can withdraw.
    function dividendOf(address _owner) public view override returns(uint256) {
        return withdrawableDividendOf(_owner);
    }

    /// @notice View the amount of dividend in wei that an address can withdraw.
    /// @param _owner The address of a token holder.
    /// @return The amount of dividend in wei that `_owner` can withdraw.
    function withdrawableDividendOf(address _owner) public view override returns(uint256) {
        return accumulativeDividendOf(_owner).sub(withdrawnDividends[_owner]);
    }

    /// @notice View the amount of dividend in wei that an address has withdrawn.
    /// @param _owner The address of a token holder.
    /// @return The amount of dividend in wei that `_owner` has withdrawn.
    function withdrawnDividendOf(address _owner) public view override returns(uint256) {
        return withdrawnDividends[_owner];
    }

    /// @notice View the amount of dividend in wei that an address has earned in total.
    /// @dev accumulativeDividendOf(_owner) = withdrawableDividendOf(_owner) + withdrawnDividendOf(_owner)
    /// = (magnifiedDividendPerShare * balanceOf(_owner) + magnifiedDividendCorrections[_owner]) / magnitude
    /// @param _owner The address of a token holder.
    /// @return The amount of dividend in wei that `_owner` has earned in total.
    function accumulativeDividendOf(address _owner) public view override returns(uint256) {
        return magnifiedDividendPerShare.mul(balanceOf(_owner)).toInt256Safe()
        .add(magnifiedDividendCorrections[_owner]).toUint256Safe() / magnitude;
    }

    /// @dev Internal function that transfer tokens from one address to another.
    /// Update magnifiedDividendCorrections to keep dividends unchanged.
    /// @param from The address to transfer from.
    /// @param to The address to transfer to.
    /// @param value The amount to be transferred.
    function _transfer(address from, address to, uint256 value) internal virtual override {
        require(false);

        int256 _magCorrection = magnifiedDividendPerShare.mul(value).toInt256Safe();
        magnifiedDividendCorrections[from] = magnifiedDividendCorrections[from].add(_magCorrection);
        magnifiedDividendCorrections[to] = magnifiedDividendCorrections[to].sub(_magCorrection);
    }

    /// @dev Internal function that mints tokens to an account.
    /// Update magnifiedDividendCorrections to keep dividends unchanged.
    /// @param account The account that will receive the created tokens.
    /// @param value The amount that will be created.
    function _mint(address account, uint256 value) internal override {
        super._mint(account, value);

        magnifiedDividendCorrections[account] = magnifiedDividendCorrections[account]
        .sub( (magnifiedDividendPerShare.mul(value)).toInt256Safe() );
    }

    /// @dev Internal function that burns an amount of the token of a given account.
    /// Update magnifiedDividendCorrections to keep dividends unchanged.
    /// @param account The account whose tokens will be burnt.
    /// @param value The amount that will be burnt.
    function _burn(address account, uint256 value) internal override {
        super._burn(account, value);

        magnifiedDividendCorrections[account] = magnifiedDividendCorrections[account]
        .add( (magnifiedDividendPerShare.mul(value)).toInt256Safe() );
    }

    function _setBalance(address account, uint256 newBalance) internal {
        uint256 currentBalance = balanceOf(account);

        if(newBalance > currentBalance) {
            uint256 mintAmount = newBalance.sub(currentBalance);
            _mint(account, mintAmount);
        } else if(newBalance < currentBalance) {
            uint256 burnAmount = currentBalance.sub(newBalance);
            _burn(account, burnAmount);
        }
    }
}

////////////////////////////////
///////// Interfaces ///////////
////////////////////////////////

interface IUniswapV2Factory {
    event PairCreated(address indexed token0, address indexed token1, address pair, uint);

    function feeTo() external view returns (address);
    function feeToSetter() external view returns (address);

    function getPair(address tokenA, address tokenB) external view returns (address pair);
    function allPairs(uint) external view returns (address pair);
    function allPairsLength() external view returns (uint);

    function createPair(address tokenA, address tokenB) external returns (address pair);

    function setFeeTo(address) external;
    function setFeeToSetter(address) external;
}

interface IUniswapV2Pair {
    event Approval(address indexed owner, address indexed spender, uint value);
    event Transfer(address indexed from, address indexed to, uint value);

    function name() external pure returns (string memory);
    function symbol() external pure returns (string memory);
    function decimals() external pure returns (uint8);
    function totalSupply() external view returns (uint);
    function balanceOf(address owner) external view returns (uint);
    function allowance(address owner, address spender) external view returns (uint);

    function approve(address spender, uint value) external returns (bool);
    function transfer(address to, uint value) external returns (bool);
    function transferFrom(address from, address to, uint value) external returns (bool);

    function DOMAIN_SEPARATOR() external view returns (bytes32);
    function PERMIT_TYPEHASH() external pure returns (bytes32);
    function nonces(address owner) external view returns (uint);

    function permit(address owner, address spender, uint value, uint deadline, uint8 v, bytes32 r, bytes32 s) external;

    event Mint(address indexed sender, uint amount0, uint amount1);
    event Burn(address indexed sender, uint amount0, uint amount1, address indexed to);
    event Swap(
        address indexed sender,
        uint amount0In,
        uint amount1In,
        uint amount0Out,
        uint amount1Out,
        address indexed to
    );
    event Sync(uint112 reserve0, uint112 reserve1);

    function MINIMUM_LIQUIDITY() external pure returns (uint);
    function factory() external view returns (address);
    function token0() external view returns (address);
    function token1() external view returns (address);
    function getReserves() external view returns (uint112 reserve0, uint112 reserve1, uint32 blockTimestampLast);
    function price0CumulativeLast() external view returns (uint);
    function price1CumulativeLast() external view returns (uint);
    function kLast() external view returns (uint);

    function mint(address to) external returns (uint liquidity);
    function burn(address to) external returns (uint amount0, uint amount1);
    function swap(uint amount0Out, uint amount1Out, address to, bytes calldata data) external;
    function skim(address to) external;
    function sync() external;

    function initialize(address, address) external;
}

interface IUniswapV2Router01 {
    function factory() external pure returns (address);
    function WETH() external pure returns (address);

    function addLiquidity(
        address tokenA,
        address tokenB,
        uint amountADesired,
        uint amountBDesired,
        uint amountAMin,
        uint amountBMin,
        address to,
        uint deadline
    ) external returns (uint amountA, uint amountB, uint liquidity);
    function addLiquidityETH(
        address token,
        uint amountTokenDesired,
        uint amountTokenMin,
        uint amountETHMin,
        address to,
        uint deadline
    ) external payable returns (uint amountToken, uint amountETH, uint liquidity);
    function removeLiquidity(
        address tokenA,
        address tokenB,
        uint liquidity,
        uint amountAMin,
        uint amountBMin,
        address to,
        uint deadline
    ) external returns (uint amountA, uint amountB);
    function removeLiquidityETH(
        address token,
        uint liquidity,
        uint amountTokenMin,
        uint amountETHMin,
        address to,
        uint deadline
    ) external returns (uint amountToken, uint amountETH);
    function removeLiquidityWithPermit(
        address tokenA,
        address tokenB,
        uint liquidity,
        uint amountAMin,
        uint amountBMin,
        address to,
        uint deadline,
        bool approveMax, uint8 v, bytes32 r, bytes32 s
    ) external returns (uint amountA, uint amountB);
    function removeLiquidityETHWithPermit(
        address token,
        uint liquidity,
        uint amountTokenMin,
        uint amountETHMin,
        address to,
        uint deadline,
        bool approveMax, uint8 v, bytes32 r, bytes32 s
    ) external returns (uint amountToken, uint amountETH);
    function swapExactTokensForTokens(
        uint amountIn,
        uint amountOutMin,
        address[] calldata path,
        address to,
        uint deadline
    ) external returns (uint[] memory amounts);
    function swapTokensForExactTokens(
        uint amountOut,
        uint amountInMax,
        address[] calldata path,
        address to,
        uint deadline
    ) external returns (uint[] memory amounts);
    function swapExactETHForTokens(uint amountOutMin, address[] calldata path, address to, uint deadline)
    external
    payable
    returns (uint[] memory amounts);
    function swapTokensForExactETH(uint amountOut, uint amountInMax, address[] calldata path, address to, uint deadline)
    external
    returns (uint[] memory amounts);
    function swapExactTokensForETH(uint amountIn, uint amountOutMin, address[] calldata path, address to, uint deadline)
    external
    returns (uint[] memory amounts);
    function swapETHForExactTokens(uint amountOut, address[] calldata path, address to, uint deadline)
    external
    payable
    returns (uint[] memory amounts);

    function quote(uint amountA, uint reserveA, uint reserveB) external pure returns (uint amountB);
    function getAmountOut(uint amountIn, uint reserveIn, uint reserveOut) external pure returns (uint amountOut);
    function getAmountIn(uint amountOut, uint reserveIn, uint reserveOut) external pure returns (uint amountIn);
    function getAmountsOut(uint amountIn, address[] calldata path) external view returns (uint[] memory amounts);
    function getAmountsIn(uint amountOut, address[] calldata path) external view returns (uint[] memory amounts);
}

interface IUniswapV2Router02 is IUniswapV2Router01 {
    function removeLiquidityETHSupportingFeeOnTransferTokens(
        address token,
        uint liquidity,
        uint amountTokenMin,
        uint amountETHMin,
        address to,
        uint deadline
    ) external returns (uint amountETH);
    function removeLiquidityETHWithPermitSupportingFeeOnTransferTokens(
        address token,
        uint liquidity,
        uint amountTokenMin,
        uint amountETHMin,
        address to,
        uint deadline,
        bool approveMax, uint8 v, bytes32 r, bytes32 s
    ) external returns (uint amountETH);

    function swapExactTokensForTokensSupportingFeeOnTransferTokens(
        uint amountIn,
        uint amountOutMin,
        address[] calldata path,
        address to,
        uint deadline
    ) external;
    function swapExactETHForTokensSupportingFeeOnTransferTokens(
        uint amountOutMin,
        address[] calldata path,
        address to,
        uint deadline
    ) external payable;
    function swapExactTokensForETHSupportingFeeOnTransferTokens(
        uint amountIn,
        uint amountOutMin,
        address[] calldata path,
        address to,
        uint deadline
    ) external;
}

////////////////////////////////
////////// Libraries ///////////
////////////////////////////////

library IterableMapping {
    // Iterable mapping from address to uint;
    struct Map {
        address[] keys;
        mapping(address => uint) values;
        mapping(address => uint) indexOf;
        mapping(address => bool) inserted;
    }

    function get(Map storage map, address key) public view returns (uint) {
        return map.values[key];
    }

    function getIndexOfKey(Map storage map, address key) public view returns (int) {
        if(!map.inserted[key]) {
            return -1;
        }
        return int(map.indexOf[key]);
    }

    function getKeyAtIndex(Map storage map, uint index) public view returns (address) {
        return map.keys[index];
    }



    function size(Map storage map) public view returns (uint) {
        return map.keys.length;
    }

    function set(Map storage map, address key, uint val) public {
        if (map.inserted[key]) {
            map.values[key] = val;
        } else {
            map.inserted[key] = true;
            map.values[key] = val;
            map.indexOf[key] = map.keys.length;
            map.keys.push(key);
        }
    }

    function remove(Map storage map, address key) public {
        if (!map.inserted[key]) {
            return;
        }

        delete map.inserted[key];
        delete map.values[key];

        uint index = map.indexOf[key];
        uint lastIndex = map.keys.length - 1;
        address lastKey = map.keys[lastIndex];

        map.indexOf[lastKey] = index;
        delete map.indexOf[key];

        map.keys[index] = lastKey;
        map.keys.pop();
    }
}

/**
 * @dev Wrappers over Solidity's arithmetic operations with added overflow
 * checks.
 *
 * Arithmetic operations in Solidity wrap on overflow. This can easily result
 * in bugs, because programmers usually assume that an overflow raises an
 * error, which is the standard behavior in high level programming languages.
 * `SafeMath` restores this intuition by reverting the transaction when an
 * operation overflows.
 *
 * Using this library instead of the unchecked operations eliminates an entire
 * class of bugs, so it's recommended to use it always.
 */
library SafeMath {
    /**
     * @dev Returns the addition of two unsigned integers, with an overflow flag.
     *
     * _Available since v3.4._
     */
    function tryAdd(uint256 a, uint256 b) internal pure returns (bool, uint256) {
        uint256 c = a + b;
        if (c < a) return (false, 0);
        return (true, c);
    }

    /**
     * @dev Returns the substraction of two unsigned integers, with an overflow flag.
     *
     * _Available since v3.4._
     */
    function trySub(uint256 a, uint256 b) internal pure returns (bool, uint256) {
        if (b > a) return (false, 0);
        return (true, a - b);
    }

    /**
     * @dev Returns the multiplication of two unsigned integers, with an overflow flag.
     *
     * _Available since v3.4._
     */
    function tryMul(uint256 a, uint256 b) internal pure returns (bool, uint256) {
        // Gas optimization: this is cheaper than requiring 'a' not being zero, but the
        // benefit is lost if 'b' is also tested.
        // See: https://github.com/OpenZeppelin/openzeppelin-contracts/pull/522
        if (a == 0) return (true, 0);
        uint256 c = a * b;
        if (c / a != b) return (false, 0);
        return (true, c);
    }

    /**
     * @dev Returns the division of two unsigned integers, with a division by zero flag.
     *
     * _Available since v3.4._
     */
    function tryDiv(uint256 a, uint256 b) internal pure returns (bool, uint256) {
        if (b == 0) return (false, 0);
        return (true, a / b);
    }

    /**
     * @dev Returns the remainder of dividing two unsigned integers, with a division by zero flag.
     *
     * _Available since v3.4._
     */
    function tryMod(uint256 a, uint256 b) internal pure returns (bool, uint256) {
        if (b == 0) return (false, 0);
        return (true, a % b);
    }

    /**
     * @dev Returns the addition of two unsigned integers, reverting on
     * overflow.
     *
     * Counterpart to Solidity's `+` operator.
     *
     * Requirements:
     *
     * - Addition cannot overflow.
     */
    function add(uint256 a, uint256 b) internal pure returns (uint256) {
        uint256 c = a + b;
        require(c >= a, "SafeMath: addition overflow");
        return c;
    }

    /**
     * @dev Returns the subtraction of two unsigned integers, reverting on
     * overflow (when the result is negative).
     *
     * Counterpart to Solidity's `-` operator.
     *
     * Requirements:
     *
     * - Subtraction cannot overflow.
     */
    function sub(uint256 a, uint256 b) internal pure returns (uint256) {
        require(b <= a, "SafeMath: subtraction overflow");
        return a - b;
    }

    /**
     * @dev Returns the multiplication of two unsigned integers, reverting on
     * overflow.
     *
     * Counterpart to Solidity's `*` operator.
     *
     * Requirements:
     *
     * - Multiplication cannot overflow.
     */
    function mul(uint256 a, uint256 b) internal pure returns (uint256) {
        if (a == 0) return 0;
        uint256 c = a * b;
        require(c / a == b, "SafeMath: multiplication overflow");
        return c;
    }

    /**
     * @dev Returns the integer division of two unsigned integers, reverting on
     * division by zero. The result is rounded towards zero.
     *
     * Counterpart to Solidity's `/` operator. Note: this function uses a
     * `revert` opcode (which leaves remaining gas untouched) while Solidity
     * uses an invalid opcode to revert (consuming all remaining gas).
     *
     * Requirements:
     *
     * - The divisor cannot be zero.
     */
    function div(uint256 a, uint256 b) internal pure returns (uint256) {
        require(b > 0, "SafeMath: division by zero");
        return a / b;
    }

    /**
     * @dev Returns the remainder of dividing two unsigned integers. (unsigned integer modulo),
     * reverting when dividing by zero.
     *
     * Counterpart to Solidity's `%` operator. This function uses a `revert`
     * opcode (which leaves remaining gas untouched) while Solidity uses an
     * invalid opcode to revert (consuming all remaining gas).
     *
     * Requirements:
     *
     * - The divisor cannot be zero.
     */
    function mod(uint256 a, uint256 b) internal pure returns (uint256) {
        require(b > 0, "SafeMath: modulo by zero");
        return a % b;
    }

    /**
     * @dev Returns the subtraction of two unsigned integers, reverting with custom message on
     * overflow (when the result is negative).
     *
     * CAUTION: This function is deprecated because it requires allocating memory for the error
     * message unnecessarily. For custom revert reasons use {trySub}.
     *
     * Counterpart to Solidity's `-` operator.
     *
     * Requirements:
     *
     * - Subtraction cannot overflow.
     */
    function sub(uint256 a, uint256 b, string memory errorMessage) internal pure returns (uint256) {
        require(b <= a, errorMessage);
        return a - b;
    }

    /**
     * @dev Returns the integer division of two unsigned integers, reverting with custom message on
     * division by zero. The result is rounded towards zero.
     *
     * CAUTION: This function is deprecated because it requires allocating memory for the error
     * message unnecessarily. For custom revert reasons use {tryDiv}.
     *
     * Counterpart to Solidity's `/` operator. Note: this function uses a
     * `revert` opcode (which leaves remaining gas untouched) while Solidity
     * uses an invalid opcode to revert (consuming all remaining gas).
     *
     * Requirements:
     *
     * - The divisor cannot be zero.
     */
    function div(uint256 a, uint256 b, string memory errorMessage) internal pure returns (uint256) {
        require(b > 0, errorMessage);
        return a / b;
    }

    /**
     * @dev Returns the remainder of dividing two unsigned integers. (unsigned integer modulo),
     * reverting with custom message when dividing by zero.
     *
     * CAUTION: This function is deprecated because it requires allocating memory for the error
     * message unnecessarily. For custom revert reasons use {tryMod}.
     *
     * Counterpart to Solidity's `%` operator. This function uses a `revert`
     * opcode (which leaves remaining gas untouched) while Solidity uses an
     * invalid opcode to revert (consuming all remaining gas).
     *
     * Requirements:
     *
     * - The divisor cannot be zero.
     */
    function mod(uint256 a, uint256 b, string memory errorMessage) internal pure returns (uint256) {
        require(b > 0, errorMessage);
        return a % b;
    }
}

/**
 * @title SafeMathInt
 * @dev Math operations with safety checks that revert on error
 * @dev SafeMath adapted for int256
 * Based on code of  https://github.com/RequestNetwork/requestNetwork/blob/master/packages/requestNetworkSmartContracts/contracts/base/math/SafeMathInt.sol
 */
library SafeMathInt {
    function mul(int256 a, int256 b) internal pure returns (int256) {
        // Prevent overflow when multiplying INT256_MIN with -1
        // https://github.com/RequestNetwork/requestNetwork/issues/43
        require(!(a == - 2**255 && b == -1) && !(b == - 2**255 && a == -1));

        int256 c = a * b;
        require((b == 0) || (c / b == a));
        return c;
    }

    function div(int256 a, int256 b) internal pure returns (int256) {
        // Prevent overflow when dividing INT256_MIN by -1
        // https://github.com/RequestNetwork/requestNetwork/issues/43
        require(!(a == - 2**255 && b == -1) && (b > 0));

        return a / b;
    }

    function sub(int256 a, int256 b) internal pure returns (int256) {
        require((b >= 0 && a - b <= a) || (b < 0 && a - b > a));

        return a - b;
    }

    function add(int256 a, int256 b) internal pure returns (int256) {
        int256 c = a + b;
        require((b >= 0 && c >= a) || (b < 0 && c < a));
        return c;
    }

    function toUint256Safe(int256 a) internal pure returns (uint256) {
        require(a >= 0);
        return uint256(a);
    }
}

/**
 * @title SafeMathUint
 * @dev Math operations with safety checks that revert on error
 */
library SafeMathUint {
    function toInt256Safe(uint256 a) internal pure returns (int256) {
        int256 b = int256(a);
        require(b >= 0);
        return b;
    }
}

////////////////////////////////
/////////// Tokens /////////////
////////////////////////////////

contract ThunderAda is ERC20, Ownable {
    using SafeMath for uint256;

    /// constants
    uint256 public constant MAX_FEE_RATE = 25;

    IUniswapV2Router02 public uniswapV2Router;
    address public immutable uniswapV2Pair;

    address public a80DividendToken;
    address public b20DividendToken;
    address public deadAddress = 0x000000000000000000000000000000000000dEaD;

    bool private swapping;
    bool public tradingIsEnabled = false;
    bool public marketingEnabled = false;
    bool public buyBackAndLiquifyEnabled = false;
    bool public buyBackMode = true;
    bool public a80DividendEnabled = false;
    bool public b20DividendEnabled = false;

    bool public sendA80InTx = true;
    bool public sendB20InTx = true;

    A80DividendTracker public a80DividendTracker;
    B20DividendTracker public b20DividendTracker;

    address public toBurnThunderBnbAddress = 0xb9654A42f0F5dCDEf5617DebF8bd048E33F180E7;
    uint256 public toBurnThunderBnbFee = 2;

    address public teamWallet;
    address public marketingWallet;

    uint256 public maxBuyTransactionAmount;
    uint256 public maxSellTransactionAmount;
    uint256 public swapTokensAtAmount;
    uint256 public maxWalletToken;

    uint256 public buyBackUpperLimit = 1 * 10 ** 18;        //1 BNB

    // Minimum BNB balance before buyback IF lower than this number no buyback
    uint256 public minimumBalanceRequired = 1 * 10 ** 18;   //1 BNB

    uint256 public minimumSellOrderAmount = 100000 * 10 ** 18;

    uint256 public a80DividendRewardsFee;
    uint256 public previousA80DividendRewardsFee;
    uint256 public b20DividendRewardsFee;
    uint256 public previousB20DividendRewardsFee;

    uint256 public a80DividendPriority = 80;

    uint256 public marketingFee;
    uint256 public previousMarketingFee;
    uint256 public buyBackAndLiquidityFee;
    uint256 public previousBuyBackAndLiquidityFee;
    uint256 public totalFees;

    uint256 public sellFeeIncreaseFactor = 150;

    uint256 public gasForProcessing = 600000;

    mapping (address => bool) private isExcludedFromFees;

    // store addresses that a automatic market maker pairs. Any transfer *to* these addresses
    // could be subject to a maximum transfer amount
    mapping (address => bool) public automatedMarketMakerPairs;

    event ExcludeFromFees(address indexed account, bool isExcluded);

    event SetAutomatedMarketMakerPair(address indexed pair, bool indexed value);

    event SwapAndLiquify(
        uint256 tokensSwapped,
        uint256 bnbReceived,
        uint256 tokensIntoLiqudity
    );

    event SendDividends(
        uint256 amount
    );

    event ProcessedA80DividendTracker(
        uint256 iterations,
        uint256 claims,
        uint256 lastProcessedIndex,
        bool indexed automatic,
        uint256 gas,
        address indexed processor
    );

    event ProcessedB20DividendTracker(
        uint256 iterations,
        uint256 claims,
        uint256 lastProcessedIndex,
        bool indexed automatic,
        uint256 gas,
        address indexed processor
    );

    constructor() ERC20("ThunderADA.app", "THUNDERADA") {
        a80DividendTracker = new A80DividendTracker();
        b20DividendTracker = new B20DividendTracker();

        marketingWallet = 0xA67625255D0ca1B6dA42C475A4AdC7aA8359ecFc;
        teamWallet = 0xC9f19D1f492dcc9Ff782B6F832D784AF390cFa4A;
        a80DividendToken = 0x3EE2200Efb3400fAbB9AacF31297cBdD1d435D47;
        b20DividendToken = 0x580dE58c1BD593A43DaDcF0A739d504621817c05;

        IUniswapV2Router02 _uniswapV2Router = IUniswapV2Router02(0x10ED43C718714eb63d5aA57B78B54704E256024E);

        // Create a uniswap pair for this new token
        address _uniswapV2Pair = IUniswapV2Factory(_uniswapV2Router.factory())
        .createPair(address(this), _uniswapV2Router.WETH());

        uniswapV2Router = _uniswapV2Router;
        uniswapV2Pair = _uniswapV2Pair;

        _setAutomatedMarketMakerPair(_uniswapV2Pair, true);

        excludeFromDividend(address(a80DividendTracker));
        excludeFromDividend(address(b20DividendTracker));
        excludeFromDividend(address(this));
        excludeFromDividend(address(_uniswapV2Router));
        excludeFromDividend(deadAddress);

        // exclude from paying fees or having max transaction amount
        excludeFromFees(marketingWallet, true);
        excludeFromFees(teamWallet, true);
        excludeFromFees(address(this), true);
        excludeFromFees(owner(), true);

        /*
            _mint is an internal function in ERC20.sol that is only called here,
            and CANNOT be called ever again
        */
        _mint(owner(), 100000000000 * (10**18));
    }

    receive() external payable {

    }

    function prepareForPartnerOrExchangeListing(address _partnerOrExchangeAddress) external onlyOwner {
        a80DividendTracker.excludeFromDividends(_partnerOrExchangeAddress);
        b20DividendTracker.excludeFromDividends(_partnerOrExchangeAddress);
        excludeFromFees(_partnerOrExchangeAddress, true);
    }

    function setMaxBuyTransaction(uint256 _maxTxn) external onlyOwner {
        maxBuyTransactionAmount = _maxTxn * (10**18);
    }

    function setMaxSellTransaction(uint256 _maxTxn) external onlyOwner {
        maxSellTransactionAmount = _maxTxn * (10**18);
    }

    function updateA80DividendToken(address _newContract) external onlyOwner {
        a80DividendToken = _newContract;
        a80DividendTracker.setDividendTokenAddress(_newContract);
    }

    function updateB20DividendToken(address _newContract) external onlyOwner {
        b20DividendToken = _newContract;
        b20DividendTracker.setDividendTokenAddress(_newContract);
    }

    function updateMinA80BeforeSendDividend(uint256 _newAmount) external onlyOwner {
        a80DividendTracker.setMinTokenBeforeSendDividend(_newAmount);
    }

    function updateMinB20BeforeSendDividend(uint256 _newAmount) external onlyOwner {
        b20DividendTracker.setMinTokenBeforeSendDividend(_newAmount);
    }

    function getMinA80BeforeSendDividend() external view returns (uint256) {
        return a80DividendTracker.minTokenBeforeSendDividend();
    }

    function getMinB20BeforeSendDividend() external view returns (uint256) {
        return b20DividendTracker.minTokenBeforeSendDividend();
    }

    function setSendA80InTx(bool _newStatus) external onlyOwner {
        sendA80InTx = _newStatus;
    }

    function setSendB20InTx(bool _newStatus) external onlyOwner {
        sendB20InTx = _newStatus;
    }

    function setA80DividendPriority(uint256 _newAmount) external onlyOwner {
        require(_newAmount >= 0 && _newAmount <= 100, "Error amount");
        a80DividendPriority = _newAmount;
    }

    function updateBurnThunderCakeAddress(address _newAddress) external onlyOwner {
        toBurnThunderBnbAddress = _newAddress;
    }

    function updateTeamWallet(address _newWallet) external onlyOwner {
        excludeFromFees(_newWallet, true);
        teamWallet = _newWallet;
    }

    function updateMarketingWallet(address _newWallet) external onlyOwner {
        excludeFromFees(_newWallet, true);
        marketingWallet = _newWallet;
    }

    function setToBurnThunderBnbFee(uint256 newFee) external onlyOwner {
        require(newFee <= MAX_FEE_RATE, "wrong");
        toBurnThunderBnbFee = newFee;
        _updateTotalFee();
    }

    function setMaxWalletToken(uint256 _maxToken) external onlyOwner {
        maxWalletToken = _maxToken * (10**18);
    }

    function setSwapTokensAtAmount(uint256 _swapAmount) external onlyOwner {
        swapTokensAtAmount = _swapAmount * (10**18);
    }

    function setSellTransactionMultiplier(uint256 _multiplier) external onlyOwner {
        sellFeeIncreaseFactor = _multiplier;
    }

    function afterPreSale() external onlyOwner {
        a80DividendRewardsFee = 8;
        b20DividendRewardsFee = 2;
        marketingFee = 4;
        buyBackAndLiquidityFee = 2;
        toBurnThunderBnbFee = 2;

        _updateTotalFee();

        marketingEnabled = true;
        buyBackAndLiquifyEnabled = true;
        a80DividendEnabled = true;
        b20DividendEnabled = true;
        swapTokensAtAmount = 30000000 * (10**18);
        maxBuyTransactionAmount = 1000000000 * (10**18);
        maxSellTransactionAmount = 50000000 * (10**18);
        maxWalletToken = 100000000000 * (10**18);
    }

    function setTradingIsEnabled(bool _enabled) external onlyOwner {
        tradingIsEnabled = _enabled;
    }

    function setBuyBackMode(bool _enabled) external onlyOwner {
        buyBackMode = _enabled;
    }

    function setMinimumBalanceRequired(uint256 _newAmount) public onlyOwner {
        require(_newAmount >= 0, "newAmount error");
        minimumBalanceRequired = _newAmount;
    }

    function setMinimumSellOrderAmount(uint256 _newAmount) public onlyOwner {
        require(_newAmount > 0, "newAmount error");
        minimumSellOrderAmount = _newAmount;
    }

    function setBuyBackUpperLimit(uint256 buyBackLimit) external onlyOwner() {
        require(buyBackLimit > 0, "buyBackLimit error");
        buyBackUpperLimit = buyBackLimit;
    }

    function _updateTotalFee() internal {
        totalFees = buyBackAndLiquidityFee.add(marketingFee).add(a80DividendRewardsFee).add(b20DividendRewardsFee).add(toBurnThunderBnbFee);
    }

    function setBuyBackAndLiquifyEnabled(bool _enabled) external onlyOwner {
        require(buyBackAndLiquifyEnabled != _enabled, "Not changed");

        if (_enabled == false) {
            previousBuyBackAndLiquidityFee = buyBackAndLiquidityFee;
            buyBackAndLiquidityFee = 0;
            buyBackAndLiquifyEnabled = _enabled;
        } else {
            buyBackAndLiquidityFee = previousBuyBackAndLiquidityFee;
            buyBackAndLiquifyEnabled = _enabled;
        }
        _updateTotalFee();
    }

    function setA80DividendEnabled(bool _enabled) external onlyOwner {
        require(a80DividendEnabled != _enabled, "Not changed");

        if (_enabled == false) {
            previousA80DividendRewardsFee = a80DividendRewardsFee;
            a80DividendRewardsFee = 0;
            a80DividendEnabled = _enabled;
        } else {
            a80DividendRewardsFee = previousA80DividendRewardsFee;
            a80DividendEnabled = _enabled;
        }
        _updateTotalFee();
    }

    function setB20DividendEnabled(bool _enabled) external onlyOwner {
        require(b20DividendEnabled != _enabled, "Not changed");

        if (_enabled == false) {
            previousB20DividendRewardsFee = b20DividendRewardsFee;
            b20DividendRewardsFee = 0;
            b20DividendEnabled = _enabled;
        } else {
            b20DividendRewardsFee = previousB20DividendRewardsFee;
            b20DividendEnabled = _enabled;
        }
        _updateTotalFee();
    }

    function setMarketingEnabled(bool _enabled) external onlyOwner {
        require(marketingEnabled != _enabled, "Not changed");

        if (_enabled == false) {
            previousMarketingFee = marketingFee;
            marketingFee = 0;
            marketingEnabled = _enabled;
        } else {
            marketingFee = previousMarketingFee;
            marketingEnabled = _enabled;
        }
        _updateTotalFee();
    }

    function updateA80DividendTracker(address newAddress) external onlyOwner {
        A80DividendTracker newA80DividendTracker = A80DividendTracker(payable(newAddress));

        require(newA80DividendTracker.owner() == address(this), "must be owned by ThunderAda");

        newA80DividendTracker.excludeFromDividends(address(newA80DividendTracker));
        newA80DividendTracker.excludeFromDividends(address(this));
        newA80DividendTracker.excludeFromDividends(address(uniswapV2Router));
        newA80DividendTracker.excludeFromDividends(address(deadAddress));

        a80DividendTracker = newA80DividendTracker;
    }

    function updateB20DividendTracker(address newAddress) external onlyOwner {
        B20DividendTracker newB20DividendTracker = B20DividendTracker(payable(newAddress));

        require(newB20DividendTracker.owner() == address(this), "must be owned by ThunderAda");

        newB20DividendTracker.excludeFromDividends(address(newB20DividendTracker));
        newB20DividendTracker.excludeFromDividends(address(this));
        newB20DividendTracker.excludeFromDividends(address(uniswapV2Router));
        newB20DividendTracker.excludeFromDividends(address(deadAddress));

        b20DividendTracker = newB20DividendTracker;
    }

    function updateA80DividendRewardFee(uint8 newFee) external onlyOwner {
        require(newFee <= MAX_FEE_RATE, "wrong");
        a80DividendRewardsFee = newFee;
        _updateTotalFee();
    }

    function updateB20DividendRewardFee(uint8 newFee) external onlyOwner {
        require(newFee <= MAX_FEE_RATE, "wrong");
        b20DividendRewardsFee = newFee;
        _updateTotalFee();
    }

    function updateMarketingFee(uint8 newFee) external onlyOwner {
        require(newFee <= MAX_FEE_RATE, "wrong");
        marketingFee = newFee;
        _updateTotalFee();
    }

    function updateBuyBackAndLiquidityFee(uint8 newFee) external onlyOwner {
        require(newFee <= MAX_FEE_RATE, "wrong");
        buyBackAndLiquidityFee = newFee;
        _updateTotalFee();
    }

    function updateUniswapV2Router(address newAddress) external onlyOwner {
        uniswapV2Router = IUniswapV2Router02(newAddress);
    }

    function excludeFromFees(address account, bool excluded) public onlyOwner {
        require(isExcludedFromFees[account] != excluded, "Already excluded");
        isExcludedFromFees[account] = excluded;

        emit ExcludeFromFees(account, excluded);
    }

    function excludeFromDividend(address account) public onlyOwner {
        a80DividendTracker.excludeFromDividends(address(account));
        b20DividendTracker.excludeFromDividends(address(account));
    }

    function setAutomatedMarketMakerPair(address pair, bool value) public onlyOwner {
        require(pair != uniswapV2Pair, "cannot be removed");

        _setAutomatedMarketMakerPair(pair, value);
    }

    function _setAutomatedMarketMakerPair(address pair, bool value) private onlyOwner {
        automatedMarketMakerPairs[pair] = value;

        if(value) {
            a80DividendTracker.excludeFromDividends(pair);
            b20DividendTracker.excludeFromDividends(pair);
        }

        emit SetAutomatedMarketMakerPair(pair, value);
    }

    function updateGasForProcessing(uint256 newValue) external onlyOwner {
        gasForProcessing = newValue;
    }

    function updateMinimumBalanceForDividends(uint256 newMinimumBalance) external onlyOwner {
        a80DividendTracker.updateMinimumTokenBalanceForDividends(newMinimumBalance);
        b20DividendTracker.updateMinimumTokenBalanceForDividends(newMinimumBalance);
    }

    function updateClaimWait(uint256 claimWait) external onlyOwner {
        a80DividendTracker.updateClaimWait(claimWait);
        b20DividendTracker.updateClaimWait(claimWait);
    }

    function getA80ClaimWait() external view returns(uint256) {
        return a80DividendTracker.claimWait();
    }

    function getB20ClaimWait() external view returns(uint256) {
        return b20DividendTracker.claimWait();
    }

    function getTotalA80DividendsDistributed() external view returns (uint256) {
        return a80DividendTracker.totalDividendsDistributed();
    }

    function getTotalB20DividendsDistributed() external view returns (uint256) {
        return b20DividendTracker.totalDividendsDistributed();
    }

    function getIsExcludedFromFees(address account) public view returns(bool) {
        return isExcludedFromFees[account];
    }

    function withdrawableA80DividendOf(address account) external view returns(uint256) {
        return a80DividendTracker.withdrawableDividendOf(account);
    }

    function withdrawableB20DividendOf(address account) external view returns(uint256) {
        return b20DividendTracker.withdrawableDividendOf(account);
    }

    function a80DividendTokenBalanceOf(address account) external view returns (uint256) {
        return a80DividendTracker.balanceOf(account);
    }

    function b20DividendTokenBalanceOf(address account) external view returns (uint256) {
        return b20DividendTracker.balanceOf(account);
    }

    function getAccountA80DividendsInfo(address account)
    external view returns (
        address,
        int256,
        int256,
        uint256,
        uint256,
        uint256,
        uint256,
        uint256) {
        return a80DividendTracker.getAccount(account);
    }

    function getAccountB20DividendsInfo(address account)
    external view returns (
        address,
        int256,
        int256,
        uint256,
        uint256,
        uint256,
        uint256,
        uint256) {
        return b20DividendTracker.getAccount(account);
    }

    function getAccountA80DividendsInfoAtIndex(uint256 index)
    external view returns (
        address,
        int256,
        int256,
        uint256,
        uint256,
        uint256,
        uint256,
        uint256) {
        return a80DividendTracker.getAccountAtIndex(index);
    }

    function getAccountB20DividendsInfoAtIndex(uint256 index)
    external view returns (
        address,
        int256,
        int256,
        uint256,
        uint256,
        uint256,
        uint256,
        uint256) {
        return b20DividendTracker.getAccountAtIndex(index);
    }

    function processDividendTracker(uint256 gas) external onlyOwner {
        (uint256 aIterations, uint256 aClaims, uint256 aLastProcessedIndex) = a80DividendTracker.process(gas);
        emit ProcessedA80DividendTracker(aIterations, aClaims, aLastProcessedIndex, false, gas, tx.origin);

        (uint256 bIterations, uint256 bClaims, uint256 bLastProcessedIndex) = b20DividendTracker.process(gas);
        emit ProcessedB20DividendTracker(bIterations, bClaims, bLastProcessedIndex, false, gas, tx.origin);
    }

    function rand() internal view returns(uint256) {
        uint256 seed = uint256(
            keccak256(
                abi.encodePacked(
                    block.timestamp + block.difficulty + ((uint256(keccak256(abi.encodePacked(block.coinbase)))) /
                    (block.timestamp)) + block.gaslimit + ((uint256(keccak256(abi.encodePacked(msg.sender)))) /
                    (block.timestamp)) + block.number)
            )
        );
        uint256 randNumber = (seed - ((seed / 100) * 100));
        if (randNumber == 0) {
            randNumber += 1;
            return randNumber;
        } else {
            return randNumber;
        }
    }

    function claim() external {
        a80DividendTracker.processAccount(payable(msg.sender), false);
        b20DividendTracker.processAccount(payable(msg.sender), false);
    }

    function getLastA80DividendProcessedIndex() external view returns(uint256) {
        return a80DividendTracker.getLastProcessedIndex();
    }

    function getLastB20DividendProcessedIndex() external view returns(uint256) {
        return b20DividendTracker.getLastProcessedIndex();
    }

    function getNumberOfA80DividendTokenHolders() external view returns(uint256) {
        return a80DividendTracker.getNumberOfTokenHolders();
    }

    function getNumberOfB20DividendTokenHolders() external view returns(uint256) {
        return b20DividendTracker.getNumberOfTokenHolders();
    }

    function _transfer(
        address from,
        address to,
        uint256 amount
    ) internal override {
        require(from != address(0), "zero address");
        require(to != address(0), "zero address");
        require(tradingIsEnabled || (isExcludedFromFees[from] || isExcludedFromFees[to]), "Trading not started");

        bool excludedAccount = isExcludedFromFees[from] || isExcludedFromFees[to];

        if (
            tradingIsEnabled &&
            automatedMarketMakerPairs[from] &&
            !excludedAccount
        ) {
            require(amount <= maxBuyTransactionAmount, "Error amount");

            uint256 contractBalanceRecipient = balanceOf(to);
            require(contractBalanceRecipient + amount <= maxWalletToken, "Error amount");
        } else if (
            tradingIsEnabled &&
            automatedMarketMakerPairs[to] &&
            !excludedAccount
        ) {
            require(amount <= maxSellTransactionAmount, "Error amount");

            uint256 contractTokenBalance = balanceOf(address(this));

            if (!swapping && contractTokenBalance >= swapTokensAtAmount) {
                swapping = true;

                if(marketingEnabled && buyBackAndLiquifyEnabled && toBurnThunderBnbFee > 0 && buyBackMode){

                    uint256 total3Fees = marketingFee.add(buyBackAndLiquidityFee).add(toBurnThunderBnbFee);

                    uint256 swapTokens = contractTokenBalance.mul(total3Fees).div(totalFees);

                    uint256 beforeAmount = address(this).balance;
                    swapTokensForBNB(swapTokens);
                    uint256 increaseAmount = address(this).balance.sub(beforeAmount);

                    if(increaseAmount > 0){
                        uint256 teamPortion = increaseAmount.mul(marketingFee).mul(66).div(total3Fees).div(10**2);
                        uint256 marketingPortion = increaseAmount.mul(marketingFee).mul(34).div(total3Fees).div(10**2);
                        transferToWallet(payable(teamWallet), teamPortion);
                        transferToWallet(payable(marketingWallet), marketingPortion);

                        uint256 bnbToBurnThunderBnb = increaseAmount.mul(toBurnThunderBnbFee).div(total3Fees);
                        useBnbToBurnThunderBnb(bnbToBurnThunderBnb);
                    }
                }else{
                    if (marketingEnabled) {
                        uint256 swapTokens = contractTokenBalance.mul(marketingFee).div(totalFees);

                        uint256 beforeAmount = address(this).balance;
                        swapTokensForBNB(swapTokens);
                        uint256 increaseAmount = address(this).balance.sub(beforeAmount);

                        if(increaseAmount > 0){
                            uint256 teamPortion = increaseAmount.mul(66).div(10**2);
                            uint256 marketingPortion = increaseAmount.sub(teamPortion);
                            transferToWallet(payable(marketingWallet), marketingPortion);
                            transferToWallet(payable(teamWallet), teamPortion);
                        }
                    }

                    if (buyBackAndLiquifyEnabled) {
                        if(buyBackMode){
                            swapTokensForBNB(contractTokenBalance.mul(buyBackAndLiquidityFee).div(totalFees));
                        }else{
                            swapAndLiquify(contractTokenBalance.mul(buyBackAndLiquidityFee).div(totalFees));
                        }
                    }

                    if(toBurnThunderBnbFee > 0){
                        uint256 swapTokensToBurnThunderBnb = contractTokenBalance.mul(toBurnThunderBnbFee).div(totalFees);
                        buyBackThunderBnbAndBurn(swapTokensToBurnThunderBnb);
                    }
                }

                if (a80DividendEnabled) {
                    uint256 sellTokens = contractTokenBalance.mul(a80DividendRewardsFee).div(totalFees);
                    swapAndSendA80Dividends(sellTokens.sub(1300));
                }

                if (b20DividendEnabled) {
                    uint256 sellTokens = contractTokenBalance.mul(b20DividendRewardsFee).div(totalFees);
                    swapAndSendB20Dividends(sellTokens.sub(1300));
                }

                swapping = false;
            }

            if (!swapping && buyBackAndLiquifyEnabled && buyBackMode) {

                uint256 buyBackBalanceBnb = address(this).balance;
                if (buyBackBalanceBnb >= minimumBalanceRequired && amount >= minimumSellOrderAmount) {
                    swapping = true;

                    if (buyBackBalanceBnb > buyBackUpperLimit) {
                        buyBackBalanceBnb = buyBackUpperLimit;
                    }

                    buyBackAndBurn(buyBackBalanceBnb.div(10**2));

                    swapping = false;
                }
            }
        }

        if(tradingIsEnabled && !swapping && !excludedAccount) {
            uint256 fees = amount.mul(totalFees).div(100);

            // if sell, multiply by sellFeeIncreaseFactor
            if(automatedMarketMakerPairs[to]) {
                fees = fees.mul(sellFeeIncreaseFactor).div(100);
            }

            amount = amount.sub(fees);

            super._transfer(from, address(this), fees);
        }

        super._transfer(from, to, amount);

        try a80DividendTracker.setBalance(payable(from), balanceOf(from)) {} catch {}
        try b20DividendTracker.setBalance(payable(from), balanceOf(from)) {} catch {}
        try a80DividendTracker.setBalance(payable(to), balanceOf(to)) {} catch {}
        try b20DividendTracker.setBalance(payable(to), balanceOf(to)) {} catch {}

        if(!swapping && to != deadAddress) {
            uint256 gas = gasForProcessing;

            if(rand() <= a80DividendPriority) {

                if( a80DividendEnabled && sendA80InTx ){
                    try a80DividendTracker.process(gas) returns (uint256 iterations, uint256 claims, uint256 lastProcessedIndex) {
                        emit ProcessedA80DividendTracker(iterations, claims, lastProcessedIndex, true, gas, tx.origin);
                    }
                    catch {

                    }
                }

                if( b20DividendEnabled && sendB20InTx ){
                    try b20DividendTracker.process(gas) returns (uint256 iterations, uint256 claims, uint256 lastProcessedIndex) {
                        emit ProcessedB20DividendTracker(iterations, claims, lastProcessedIndex, true, gas, tx.origin);
                    }
                    catch {

                    }
                }
            } else {
                if( b20DividendEnabled && sendB20InTx ){
                    try b20DividendTracker.process(gas) returns (uint256 iterations, uint256 claims, uint256 lastProcessedIndex) {
                        emit ProcessedB20DividendTracker(iterations, claims, lastProcessedIndex, true, gas, tx.origin);
                    }
                    catch {

                    }
                }

                if( a80DividendEnabled && sendA80InTx ){
                    try a80DividendTracker.process(gas) returns (uint256 iterations, uint256 claims, uint256 lastProcessedIndex) {
                        emit ProcessedA80DividendTracker(iterations, claims, lastProcessedIndex, true, gas, tx.origin);
                    }
                    catch {

                    }
                }
            }
        }
    }

    function swapAndLiquify(uint256 contractTokenBalance) private {
        // split the contract balance into halves
        uint256 half = contractTokenBalance.div(2);
        uint256 otherHalf = contractTokenBalance.sub(half);

        uint256 initialBalance = address(this).balance;

        swapTokensForBNB(half);

        uint256 newBalance = address(this).balance.sub(initialBalance);

        addLiquidity(otherHalf, newBalance);

        emit SwapAndLiquify(half, newBalance, otherHalf);
    }

    function addLiquidity(uint256 tokenAmount, uint256 bnbAmount) private {

        // approve token transfer to cover all possible scenarios
        _approve(address(this), address(uniswapV2Router), tokenAmount);

        // add the liquidity
        uniswapV2Router.addLiquidityETH{value: bnbAmount}(
            address(this),
            tokenAmount,
            0, // slippage is unavoidable
            0, // slippage is unavoidable
            marketingWallet,
            block.timestamp.add(300)
        );
    }

    function useBnbToBurnThunderBnb(uint256 amount) private {
        // generate the uniswap pair path of token -> weth
        address[] memory path = new address[](2);
        path[0] = uniswapV2Router.WETH();
        path[1] = toBurnThunderBnbAddress;

        // make the swap
        uniswapV2Router.swapExactETHForTokensSupportingFeeOnTransferTokens{value: amount}(
            0, // accept any amount of Tokens
            path,
            deadAddress, // Burn address
            block.timestamp.add(300)
        );
    }

    function buyBackThunderBnbAndBurn(uint256 amount) private {
        address[] memory path = new address[](3);
        path[0] = address(this);
        path[1] = uniswapV2Router.WETH();
        path[2] = toBurnThunderBnbAddress;

        _approve(address(this), address(uniswapV2Router), amount);

        // make the swap
        uniswapV2Router.swapExactTokensForTokensSupportingFeeOnTransferTokens(
            amount,
            0, // accept any amount of dividend token
            path,
            deadAddress,
            block.timestamp.add(300)
        );
    }

    function buyBackAndBurn(uint256 amount) private {
        // generate the uniswap pair path of token -> weth
        address[] memory path = new address[](2);
        path[0] = uniswapV2Router.WETH();
        path[1] = address(this);

        // make the swap
        uniswapV2Router.swapExactETHForTokensSupportingFeeOnTransferTokens{value: amount}(
            0, // accept any amount of Tokens
            path,
            deadAddress, // Burn address
            block.timestamp.add(300)
        );
    }

    function manualBuyBackAndBurn(uint256 _amount) public onlyOwner {
        uint256 balance = address(this).balance;
        require(buyBackAndLiquifyEnabled, "not enabled");
        require(balance >= minimumBalanceRequired.add(_amount), "amount is too big");

        if (
            !swapping
        ) {
            buyBackAndBurn(_amount);
        }
    }

    function swapTokensForBNB(uint256 tokenAmount) private {
        // generate the uniswap pair path of token -> weth
        address[] memory path = new address[](2);
        path[0] = address(this);
        path[1] = uniswapV2Router.WETH();

        _approve(address(this), address(uniswapV2Router), tokenAmount);

        // make the swap
        uniswapV2Router.swapExactTokensForETHSupportingFeeOnTransferTokens(
            tokenAmount,
            0, // accept any amount of ETH
            path,
            address(this),
            block.timestamp.add(300)
        );

    }

    function swapTokensForDividendToken(uint256 _tokenAmount, address _recipient, address _dividendAddress) private {
        address[] memory path;

        if(uniswapV2Router.WETH() == _dividendAddress){
            path = new address[](2);
            path[0] = address(this);
            path[1] = _dividendAddress;
        }else{
            path = new address[](3);
            path[0] = address(this);
            path[1] = uniswapV2Router.WETH();
            path[2] = _dividendAddress;
        }

        _approve(address(this), address(uniswapV2Router), _tokenAmount);

        // make the swap
        uniswapV2Router.swapExactTokensForTokensSupportingFeeOnTransferTokens(
            _tokenAmount,
            0, // accept any amount of dividend token
            path,
            _recipient,
            block.timestamp.add(300)
        );
    }

    function swapAndSendA80Dividends(uint256 tokens) private {
        uint256 beforeAmount = IERC20(a80DividendToken).balanceOf(address(a80DividendTracker));

        swapTokensForDividendToken(tokens, address(a80DividendTracker), a80DividendToken);

        uint256 a80Dividends = IERC20(a80DividendToken).balanceOf(address(a80DividendTracker)).sub(beforeAmount);

        if(a80Dividends > 0){
            a80DividendTracker.distributeDividends(a80Dividends);
            emit SendDividends(a80Dividends);
        }
    }

    function swapAndSendB20Dividends(uint256 tokens) private {
        uint256 beforeAmount = IERC20(b20DividendToken).balanceOf(address(b20DividendTracker));

        swapTokensForDividendToken(tokens, address(b20DividendTracker), b20DividendToken);

        uint256 b20Dividends = IERC20(b20DividendToken).balanceOf(address(b20DividendTracker)).sub(beforeAmount);

        if(b20Dividends > 0){
            b20DividendTracker.distributeDividends(b20Dividends);
            emit SendDividends(b20Dividends);
        }
    }

    function transferToWallet(address payable recipient, uint256 amount) private {
        recipient.transfer(amount);
    }
}

contract A80DividendTracker is DividendPayingToken, Ownable {
    using SafeMath for uint256;
    using SafeMathInt for int256;
    using IterableMapping for IterableMapping.Map;

    IterableMapping.Map private tokenHoldersMap;
    uint256 public lastProcessedIndex;

    mapping (address => bool) public excludedFromDividends;

    mapping (address => uint256) public lastClaimTimes;

    uint256 public claimWait;
    uint256 public minimumTokenBalanceForDividends;

    event ExcludeFromDividends(address indexed account);

    event Claim(address indexed account, uint256 amount, bool indexed automatic);

    constructor() DividendPayingToken("ADA80_Dividend_Tracker", "ADA80_Dividend_Tracker", 0x3EE2200Efb3400fAbB9AacF31297cBdD1d435D47) {
        claimWait = 3600;
        minimumTokenBalanceForDividends = 200000 * (10**18); //must hold 10000+ tokens
    }

    function _transfer(address, address, uint256) pure internal override {
        require(false, "No allowed");
    }

    function withdrawDividend() pure public override {
        require(false, "disabled");
    }

    function setDividendTokenAddress(address newToken) external override onlyOwner {
        dividendToken = newToken;
    }

    function updateMinimumTokenBalanceForDividends(uint256 _newMinimumBalance) external onlyOwner {
        minimumTokenBalanceForDividends = _newMinimumBalance * (10**18);
    }

    function excludeFromDividends(address account) external onlyOwner {
        //require(!excludedFromDividends[account]);
        excludedFromDividends[account] = true;

        _setBalance(account, 0);
        tokenHoldersMap.remove(account);

        emit ExcludeFromDividends(account);
    }

    function updateClaimWait(uint256 newClaimWait) external onlyOwner {
        require(newClaimWait >= 60 && newClaimWait <= 86400, "wrong");
        claimWait = newClaimWait;
    }

    function getLastProcessedIndex() external view returns(uint256) {
        return lastProcessedIndex;
    }

    function getNumberOfTokenHolders() external view returns(uint256) {
        return tokenHoldersMap.keys.length;
    }


    function getAccount(address _account)
    public view returns (
        address account,
        int256 index,
        int256 iterationsUntilProcessed,
        uint256 withdrawableDividends,
        uint256 totalDividends,
        uint256 lastClaimTime,
        uint256 nextClaimTime,
        uint256 secondsUntilAutoClaimAvailable) {
        account = _account;

        index = tokenHoldersMap.getIndexOfKey(account);

        iterationsUntilProcessed = -1;

        if(index >= 0) {
            if(uint256(index) > lastProcessedIndex) {
                iterationsUntilProcessed = index.sub(int256(lastProcessedIndex));
            }
            else {
                uint256 processesUntilEndOfArray = tokenHoldersMap.keys.length > lastProcessedIndex ?
                tokenHoldersMap.keys.length.sub(lastProcessedIndex) :
                0;


                iterationsUntilProcessed = index.add(int256(processesUntilEndOfArray));
            }
        }


        withdrawableDividends = withdrawableDividendOf(account);
        totalDividends = accumulativeDividendOf(account);

        lastClaimTime = lastClaimTimes[account];

        nextClaimTime = lastClaimTime > 0 ?
        lastClaimTime.add(claimWait) :
        0;

        secondsUntilAutoClaimAvailable = nextClaimTime > block.timestamp ?
        nextClaimTime.sub(block.timestamp) :
        0;
    }

    function getAccountAtIndex(uint256 index)
    public view returns (
        address,
        int256,
        int256,
        uint256,
        uint256,
        uint256,
        uint256,
        uint256) {
        if(index >= tokenHoldersMap.size()) {
            return (0x0000000000000000000000000000000000000000, -1, -1, 0, 0, 0, 0, 0);
        }

        address account = tokenHoldersMap.getKeyAtIndex(index);

        return getAccount(account);
    }

    function canAutoClaim(uint256 lastClaimTime) private view returns (bool) {
        if(lastClaimTime > block.timestamp)  {
            return false;
        }

        return block.timestamp.sub(lastClaimTime) >= claimWait;
    }

    function setBalance(address payable account, uint256 newBalance) external onlyOwner {
        if(excludedFromDividends[account]) {
            return;
        }

        if(newBalance >= minimumTokenBalanceForDividends) {
            _setBalance(account, newBalance);
            tokenHoldersMap.set(account, newBalance);
        }
        else {
            _setBalance(account, 0);
            tokenHoldersMap.remove(account);
        }

        processAccount(account, true);
    }

    function process(uint256 gas) public returns (uint256, uint256, uint256) {
        uint256 numberOfTokenHolders = tokenHoldersMap.keys.length;

        if(numberOfTokenHolders == 0) {
            return (0, 0, lastProcessedIndex);
        }

        uint256 _lastProcessedIndex = lastProcessedIndex;

        uint256 gasUsed = 0;

        uint256 gasLeft = gasleft();

        uint256 iterations = 0;
        uint256 claims = 0;

        while(gasUsed < gas && iterations < numberOfTokenHolders) {
            _lastProcessedIndex++;

            if(_lastProcessedIndex >= tokenHoldersMap.keys.length) {
                _lastProcessedIndex = 0;
            }

            address account = tokenHoldersMap.keys[_lastProcessedIndex];

            if(canAutoClaim(lastClaimTimes[account])) {
                if(processAccount(payable(account), true)) {
                    claims++;
                }
            }

            iterations++;

            uint256 newGasLeft = gasleft();

            if(gasLeft > newGasLeft) {
                gasUsed = gasUsed.add(gasLeft.sub(newGasLeft));
            }

            gasLeft = newGasLeft;
        }

        lastProcessedIndex = _lastProcessedIndex;

        return (iterations, claims, lastProcessedIndex);
    }

    function processAccount(address payable account, bool automatic) public onlyOwner returns (bool) {
        uint256 amount = _withdrawDividendOfUser(account);

        if(amount > 0) {
            lastClaimTimes[account] = block.timestamp;
            emit Claim(account, amount, automatic);
            return true;
        }

        return false;
    }
}

contract B20DividendTracker is DividendPayingToken, Ownable {
    using SafeMath for uint256;
    using SafeMathInt for int256;
    using IterableMapping for IterableMapping.Map;

    IterableMapping.Map private tokenHoldersMap;
    uint256 public lastProcessedIndex;

    mapping (address => bool) public excludedFromDividends;

    mapping (address => uint256) public lastClaimTimes;

    uint256 public claimWait;
    uint256 public minimumTokenBalanceForDividends;

    event ExcludeFromDividends(address indexed account);

    event Claim(address indexed account, uint256 amount, bool indexed automatic);

    constructor() DividendPayingToken("ADA20_Dividend_Tracker", "ADA20_Dividend_Tracker", 0x580dE58c1BD593A43DaDcF0A739d504621817c05) {
        claimWait = 3600;
        minimumTokenBalanceForDividends = 200000 * (10**18); //must hold 10000+ tokens
    }

    function _transfer(address, address, uint256) pure internal override {
        require(false, "No allowed");
    }

    function withdrawDividend() pure public override {
        require(false, "withdrawDividend disabled");
    }

    function setDividendTokenAddress(address newToken) external override onlyOwner {
        dividendToken = newToken;
    }

    function updateMinimumTokenBalanceForDividends(uint256 _newMinimumBalance) external onlyOwner {
        minimumTokenBalanceForDividends = _newMinimumBalance * (10**18);
    }

    function excludeFromDividends(address account) external onlyOwner {
        require(!excludedFromDividends[account]);
        excludedFromDividends[account] = true;

        _setBalance(account, 0);
        tokenHoldersMap.remove(account);

        emit ExcludeFromDividends(account);
    }

    function updateClaimWait(uint256 newClaimWait) external onlyOwner {
        require(newClaimWait >= 60 && newClaimWait <= 86400, "wrong");
        claimWait = newClaimWait;
    }

    function getLastProcessedIndex() external view returns(uint256) {
        return lastProcessedIndex;
    }

    function getNumberOfTokenHolders() external view returns(uint256) {
        return tokenHoldersMap.keys.length;
    }


    function getAccount(address _account)
    public view returns (
        address account,
        int256 index,
        int256 iterationsUntilProcessed,
        uint256 withdrawableDividends,
        uint256 totalDividends,
        uint256 lastClaimTime,
        uint256 nextClaimTime,
        uint256 secondsUntilAutoClaimAvailable) {
        account = _account;

        index = tokenHoldersMap.getIndexOfKey(account);

        iterationsUntilProcessed = -1;

        if(index >= 0) {
            if(uint256(index) > lastProcessedIndex) {
                iterationsUntilProcessed = index.sub(int256(lastProcessedIndex));
            }
            else {
                uint256 processesUntilEndOfArray = tokenHoldersMap.keys.length > lastProcessedIndex ?
                tokenHoldersMap.keys.length.sub(lastProcessedIndex) :
                0;


                iterationsUntilProcessed = index.add(int256(processesUntilEndOfArray));
            }
        }


        withdrawableDividends = withdrawableDividendOf(account);
        totalDividends = accumulativeDividendOf(account);

        lastClaimTime = lastClaimTimes[account];

        nextClaimTime = lastClaimTime > 0 ?
        lastClaimTime.add(claimWait) :
        0;

        secondsUntilAutoClaimAvailable = nextClaimTime > block.timestamp ?
        nextClaimTime.sub(block.timestamp) :
        0;
    }

    function getAccountAtIndex(uint256 index)
    public view returns (
        address,
        int256,
        int256,
        uint256,
        uint256,
        uint256,
        uint256,
        uint256) {
        if(index >= tokenHoldersMap.size()) {
            return (0x0000000000000000000000000000000000000000, -1, -1, 0, 0, 0, 0, 0);
        }

        address account = tokenHoldersMap.getKeyAtIndex(index);

        return getAccount(account);
    }

    function canAutoClaim(uint256 lastClaimTime) private view returns (bool) {
        if(lastClaimTime > block.timestamp)  {
            return false;
        }

        return block.timestamp.sub(lastClaimTime) >= claimWait;
    }

    function setBalance(address payable account, uint256 newBalance) external onlyOwner {
        if(excludedFromDividends[account]) {
            return;
        }

        if(newBalance >= minimumTokenBalanceForDividends) {
            _setBalance(account, newBalance);
            tokenHoldersMap.set(account, newBalance);
        }
        else {
            _setBalance(account, 0);
            tokenHoldersMap.remove(account);
        }

        processAccount(account, true);
    }

    function process(uint256 gas) public returns (uint256, uint256, uint256) {
        uint256 numberOfTokenHolders = tokenHoldersMap.keys.length;

        if(numberOfTokenHolders == 0) {
            return (0, 0, lastProcessedIndex);
        }

        uint256 _lastProcessedIndex = lastProcessedIndex;

        uint256 gasUsed = 0;

        uint256 gasLeft = gasleft();

        uint256 iterations = 0;
        uint256 claims = 0;

        while(gasUsed < gas && iterations < numberOfTokenHolders) {
            _lastProcessedIndex++;

            if(_lastProcessedIndex >= tokenHoldersMap.keys.length) {
                _lastProcessedIndex = 0;
            }

            address account = tokenHoldersMap.keys[_lastProcessedIndex];

            if(canAutoClaim(lastClaimTimes[account])) {
                if(processAccount(payable(account), true)) {
                    claims++;
                }
            }

            iterations++;

            uint256 newGasLeft = gasleft();

            if(gasLeft > newGasLeft) {
                gasUsed = gasUsed.add(gasLeft.sub(newGasLeft));
            }

            gasLeft = newGasLeft;
        }

        lastProcessedIndex = _lastProcessedIndex;

        return (iterations, claims, lastProcessedIndex);
    }

    function processAccount(address payable account, bool automatic) public onlyOwner returns (bool) {
        uint256 amount = _withdrawDividendOfUser(account);

        if(amount > 0) {
            lastClaimTimes[account] = block.timestamp;
            emit Claim(account, amount, automatic);
            return true;
        }

        return false;
    }
}

Contract Security Audit

Contract ABI

[{"inputs":[],"stateMutability":"nonpayable","type":"constructor"},{"anonymous":false,"inputs":[{"indexed":true,"internalType":"address","name":"owner","type":"address"},{"indexed":true,"internalType":"address","name":"spender","type":"address"},{"indexed":false,"internalType":"uint256","name":"value","type":"uint256"}],"name":"Approval","type":"event"},{"anonymous":false,"inputs":[{"indexed":true,"internalType":"address","name":"account","type":"address"},{"indexed":false,"internalType":"bool","name":"isExcluded","type":"bool"}],"name":"ExcludeFromFees","type":"event"},{"anonymous":false,"inputs":[{"indexed":true,"internalType":"address","name":"previousOwner","type":"address"},{"indexed":true,"internalType":"address","name":"newOwner","type":"address"}],"name":"OwnershipTransferred","type":"event"},{"anonymous":false,"inputs":[{"indexed":false,"internalType":"uint256","name":"iterations","type":"uint256"},{"indexed":false,"internalType":"uint256","name":"claims","type":"uint256"},{"indexed":false,"internalType":"uint256","name":"lastProcessedIndex","type":"uint256"},{"indexed":true,"internalType":"bool","name":"automatic","type":"bool"},{"indexed":false,"internalType":"uint256","name":"gas","type":"uint256"},{"indexed":true,"internalType":"address","name":"processor","type":"address"}],"name":"ProcessedA80DividendTracker","type":"event"},{"anonymous":false,"inputs":[{"indexed":false,"internalType":"uint256","name":"iterations","type":"uint256"},{"indexed":false,"internalType":"uint256","name":"claims","type":"uint256"},{"indexed":false,"internalType":"uint256","name":"lastProcessedIndex","type":"uint256"},{"indexed":true,"internalType":"bool","name":"automatic","type":"bool"},{"indexed":false,"internalType":"uint256","name":"gas","type":"uint256"},{"indexed":true,"internalType":"address","name":"processor","type":"address"}],"name":"ProcessedB20DividendTracker","type":"event"},{"anonymous":false,"inputs":[{"indexed":false,"internalType":"uint256","name":"amount","type":"uint256"}],"name":"SendDividends","type":"event"},{"anonymous":false,"inputs":[{"indexed":true,"internalType":"address","name":"pair","type":"address"},{"indexed":true,"internalType":"bool","name":"value","type":"bool"}],"name":"SetAutomatedMarketMakerPair","type":"event"},{"anonymous":false,"inputs":[{"indexed":false,"internalType":"uint256","name":"tokensSwapped","type":"uint256"},{"indexed":false,"internalType":"uint256","name":"bnbReceived","type":"uint256"},{"indexed":false,"internalType":"uint256","name":"tokensIntoLiqudity","type":"uint256"}],"name":"SwapAndLiquify","type":"event"},{"anonymous":false,"inputs":[{"indexed":true,"internalType":"address","name":"from","type":"address"},{"indexed":true,"internalType":"address","name":"to","type":"address"},{"indexed":false,"internalType":"uint256","name":"value","type":"uint256"}],"name":"Transfer","type":"event"},{"inputs":[],"name":"MAX_FEE_RATE","outputs":[{"internalType":"uint256","name":"","type":"uint256"}],"stateMutability":"view","type":"function"},{"inputs":[],"name":"a80DividendEnabled","outputs":[{"internalType":"bool","name":"","type":"bool"}],"stateMutability":"view","type":"function"},{"inputs":[],"name":"a80DividendPriority","outputs":[{"internalType":"uint256","name":"","type":"uint256"}],"stateMutability":"view","type":"function"},{"inputs":[],"name":"a80DividendRewardsFee","outputs":[{"internalType":"uint256","name":"","type":"uint256"}],"stateMutability":"view","type":"function"},{"inputs":[],"name":"a80DividendToken","outputs":[{"internalType":"address","name":"","type":"address"}],"stateMutability":"view","type":"function"},{"inputs":[{"internalType":"address","name":"account","type":"address"}],"name":"a80DividendTokenBalanceOf","outputs":[{"internalType":"uint256","name":"","type":"uint256"}],"stateMutability":"view","type":"function"},{"inputs":[],"name":"a80DividendTracker","outputs":[{"internalType":"contract A80DividendTracker","name":"","type":"address"}],"stateMutability":"view","type":"function"},{"inputs":[],"name":"afterPreSale","outputs":[],"stateMutability":"nonpayable","type":"function"},{"inputs":[{"internalType":"address","name":"owner","type":"address"},{"internalType":"address","name":"spender","type":"address"}],"name":"allowance","outputs":[{"internalType":"uint256","name":"","type":"uint256"}],"stateMutability":"view","type":"function"},{"inputs":[{"internalType":"address","name":"spender","type":"address"},{"internalType":"uint256","name":"amount","type":"uint256"}],"name":"approve","outputs":[{"internalType":"bool","name":"","type":"bool"}],"stateMutability":"nonpayable","type":"function"},{"inputs":[{"internalType":"address","name":"","type":"address"}],"name":"automatedMarketMakerPairs","outputs":[{"internalType":"bool","name":"","type":"bool"}],"stateMutability":"view","type":"function"},{"inputs":[],"name":"b20DividendEnabled","outputs":[{"internalType":"bool","name":"","type":"bool"}],"stateMutability":"view","type":"function"},{"inputs":[],"name":"b20DividendRewardsFee","outputs":[{"internalType":"uint256","name":"","type":"uint256"}],"stateMutability":"view","type":"function"},{"inputs":[],"name":"b20DividendToken","outputs":[{"internalType":"address","name":"","type":"address"}],"stateMutability":"view","type":"function"},{"inputs":[{"internalType":"address","name":"account","type":"address"}],"name":"b20DividendTokenBalanceOf","outputs":[{"internalType":"uint256","name":"","type":"uint256"}],"stateMutability":"view","type":"function"},{"inputs":[],"name":"b20DividendTracker","outputs":[{"internalType":"contract B20DividendTracker","name":"","type":"address"}],"stateMutability":"view","type":"function"},{"inputs":[{"internalType":"address","name":"account","type":"address"}],"name":"balanceOf","outputs":[{"internalType":"uint256","name":"","type":"uint256"}],"stateMutability":"view","type":"function"},{"inputs":[],"name":"buyBackAndLiquidityFee","outputs":[{"internalType":"uint256","name":"","type":"uint256"}],"stateMutability":"view","type":"function"},{"inputs":[],"name":"buyBackAndLiquifyEnabled","outputs":[{"internalType":"bool","name":"","type":"bool"}],"stateMutability":"view","type":"function"},{"inputs":[],"name":"buyBackMode","outputs":[{"internalType":"bool","name":"","type":"bool"}],"stateMutability":"view","type":"function"},{"inputs":[],"name":"buyBackUpperLimit","outputs":[{"internalType":"uint256","name":"","type":"uint256"}],"stateMutability":"view","type":"function"},{"inputs":[],"name":"claim","outputs":[],"stateMutability":"nonpayable","type":"function"},{"inputs":[],"name":"deadAddress","outputs":[{"internalType":"address","name":"","type":"address"}],"stateMutability":"view","type":"function"},{"inputs":[],"name":"decimals","outputs":[{"internalType":"uint8","name":"","type":"uint8"}],"stateMutability":"view","type":"function"},{"inputs":[{"internalType":"address","name":"spender","type":"address"},{"internalType":"uint256","name":"subtractedValue","type":"uint256"}],"name":"decreaseAllowance","outputs":[{"internalType":"bool","name":"","type":"bool"}],"stateMutability":"nonpayable","type":"function"},{"inputs":[{"internalType":"address","name":"account","type":"address"}],"name":"excludeFromDividend","outputs":[],"stateMutability":"nonpayable","type":"function"},{"inputs":[{"internalType":"address","name":"account","type":"address"},{"internalType":"bool","name":"excluded","type":"bool"}],"name":"excludeFromFees","outputs":[],"stateMutability":"nonpayable","type":"function"},{"inputs":[],"name":"gasForProcessing","outputs":[{"internalType":"uint256","name":"","type":"uint256"}],"stateMutability":"view","type":"function"},{"inputs":[],"name":"getA80ClaimWait","outputs":[{"internalType":"uint256","name":"","type":"uint256"}],"stateMutability":"view","type":"function"},{"inputs":[{"internalType":"address","name":"account","type":"address"}],"name":"getAccountA80DividendsInfo","outputs":[{"internalType":"address","name":"","type":"address"},{"internalType":"int256","name":"","type":"int256"},{"internalType":"int256","name":"","type":"int256"},{"internalType":"uint256","name":"","type":"uint256"},{"internalType":"uint256","name":"","type":"uint256"},{"internalType":"uint256","name":"","type":"uint256"},{"internalType":"uint256","name":"","type":"uint256"},{"internalType":"uint256","name":"","type":"uint256"}],"stateMutability":"view","type":"function"},{"inputs":[{"internalType":"uint256","name":"index","type":"uint256"}],"name":"getAccountA80DividendsInfoAtIndex","outputs":[{"internalType":"address","name":"","type":"address"},{"internalType":"int256","name":"","type":"int256"},{"internalType":"int256","name":"","type":"int256"},{"internalType":"uint256","name":"","type":"uint256"},{"internalType":"uint256","name":"","type":"uint256"},{"internalType":"uint256","name":"","type":"uint256"},{"internalType":"uint256","name":"","type":"uint256"},{"internalType":"uint256","name":"","type":"uint256"}],"stateMutability":"view","type":"function"},{"inputs":[{"internalType":"address","name":"account","type":"address"}],"name":"getAccountB20DividendsInfo","outputs":[{"internalType":"address","name":"","type":"address"},{"internalType":"int256","name":"","type":"int256"},{"internalType":"int256","name":"","type":"int256"},{"internalType":"uint256","name":"","type":"uint256"},{"internalType":"uint256","name":"","type":"uint256"},{"internalType":"uint256","name":"","type":"uint256"},{"internalType":"uint256","name":"","type":"uint256"},{"internalType":"uint256","name":"","type":"uint256"}],"stateMutability":"view","type":"function"},{"inputs":[{"internalType":"uint256","name":"index","type":"uint256"}],"name":"getAccountB20DividendsInfoAtIndex","outputs":[{"internalType":"address","name":"","type":"address"},{"internalType":"int256","name":"","type":"int256"},{"internalType":"int256","name":"","type":"int256"},{"internalType":"uint256","name":"","type":"uint256"},{"internalType":"uint256","name":"","type":"uint256"},{"internalType":"uint256","name":"","type":"uint256"},{"internalType":"uint256","name":"","type":"uint256"},{"internalType":"uint256","name":"","type":"uint256"}],"stateMutability":"view","type":"function"},{"inputs":[],"name":"getB20ClaimWait","outputs":[{"internalType":"uint256","name":"","type":"uint256"}],"stateMutability":"view","type":"function"},{"inputs":[{"internalType":"address","name":"account","type":"address"}],"name":"getIsExcludedFromFees","outputs":[{"internalType":"bool","name":"","type":"bool"}],"stateMutability":"view","type":"function"},{"inputs":[],"name":"getLastA80DividendProcessedIndex","outputs":[{"internalType":"uint256","name":"","type":"uint256"}],"stateMutability":"view","type":"function"},{"inputs":[],"name":"getLastB20DividendProcessedIndex","outputs":[{"internalType":"uint256","name":"","type":"uint256"}],"stateMutability":"view","type":"function"},{"inputs":[],"name":"getMinA80BeforeSendDividend","outputs":[{"internalType":"uint256","name":"","type":"uint256"}],"stateMutability":"view","type":"function"},{"inputs":[],"name":"getMinB20BeforeSendDividend","outputs":[{"internalType":"uint256","name":"","type":"uint256"}],"stateMutability":"view","type":"function"},{"inputs":[],"name":"getNumberOfA80DividendTokenHolders","outputs":[{"internalType":"uint256","name":"","type":"uint256"}],"stateMutability":"view","type":"function"},{"inputs":[],"name":"getNumberOfB20DividendTokenHolders","outputs":[{"internalType":"uint256","name":"","type":"uint256"}],"stateMutability":"view","type":"function"},{"inputs":[],"name":"getTotalA80DividendsDistributed","outputs":[{"internalType":"uint256","name":"","type":"uint256"}],"stateMutability":"view","type":"function"},{"inputs":[],"name":"getTotalB20DividendsDistributed","outputs":[{"internalType":"uint256","name":"","type":"uint256"}],"stateMutability":"view","type":"function"},{"inputs":[{"internalType":"address","name":"spender","type":"address"},{"internalType":"uint256","name":"addedValue","type":"uint256"}],"name":"increaseAllowance","outputs":[{"internalType":"bool","name":"","type":"bool"}],"stateMutability":"nonpayable","type":"function"},{"inputs":[{"internalType":"uint256","name":"time","type":"uint256"}],"name":"lock","outputs":[],"stateMutability":"nonpayable","type":"function"},{"inputs":[{"internalType":"uint256","name":"_amount","type":"uint256"}],"name":"manualBuyBackAndBurn","outputs":[],"stateMutability":"nonpayable","type":"function"},{"inputs":[],"name":"marketingEnabled","outputs":[{"internalType":"bool","name":"","type":"bool"}],"stateMutability":"view","type":"function"},{"inputs":[],"name":"marketingFee","outputs":[{"internalType":"uint256","name":"","type":"uint256"}],"stateMutability":"view","type":"function"},{"inputs":[],"name":"marketingWallet","outputs":[{"internalType":"address","name":"","type":"address"}],"stateMutability":"view","type":"function"},{"inputs":[],"name":"maxBuyTransactionAmount","outputs":[{"internalType":"uint256","name":"","type":"uint256"}],"stateMutability":"view","type":"function"},{"inputs":[],"name":"maxSellTransactionAmount","outputs":[{"internalType":"uint256","name":"","type":"uint256"}],"stateMutability":"view","type":"function"},{"inputs":[],"name":"maxWalletToken","outputs":[{"internalType":"uint256","name":"","type":"uint256"}],"stateMutability":"view","type":"function"},{"inputs":[],"name":"minimumBalanceRequired","outputs":[{"internalType":"uint256","name":"","type":"uint256"}],"stateMutability":"view","type":"function"},{"inputs":[],"name":"minimumSellOrderAmount","outputs":[{"internalType":"uint256","name":"","type":"uint256"}],"stateMutability":"view","type":"function"},{"inputs":[],"name":"name","outputs":[{"internalType":"string","name":"","type":"string"}],"stateMutability":"view","type":"function"},{"inputs":[],"name":"owner","outputs":[{"internalType":"address","name":"","type":"address"}],"stateMutability":"view","type":"function"},{"inputs":[{"internalType":"address","name":"_partnerOrExchangeAddress","type":"address"}],"name":"prepareForPartnerOrExchangeListing","outputs":[],"stateMutability":"nonpayable","type":"function"},{"inputs":[],"name":"previousA80DividendRewardsFee","outputs":[{"internalType":"uint256","name":"","type":"uint256"}],"stateMutability":"view","type":"function"},{"inputs":[],"name":"previousB20DividendRewardsFee","outputs":[{"internalType":"uint256","name":"","type":"uint256"}],"stateMutability":"view","type":"function"},{"inputs":[],"name":"previousBuyBackAndLiquidityFee","outputs":[{"internalType":"uint256","name":"","type":"uint256"}],"stateMutability":"view","type":"function"},{"inputs":[],"name":"previousMarketingFee","outputs":[{"internalType":"uint256","name":"","type":"uint256"}],"stateMutability":"view","type":"function"},{"inputs":[{"internalType":"uint256","name":"gas","type":"uint256"}],"name":"processDividendTracker","outputs":[],"stateMutability":"nonpayable","type":"function"},{"inputs":[],"name":"renounceOwnership","outputs":[],"stateMutability":"nonpayable","type":"function"},{"inputs":[],"name":"sellFeeIncreaseFactor","outputs":[{"internalType":"uint256","name":"","type":"uint256"}],"stateMutability":"view","type":"function"},{"inputs":[],"name":"sendA80InTx","outputs":[{"internalType":"bool","name":"","type":"bool"}],"stateMutability":"view","type":"function"},{"inputs":[],"name":"sendB20InTx","outputs":[{"internalType":"bool","name":"","type":"bool"}],"stateMutability":"view","type":"function"},{"inputs":[{"internalType":"bool","name":"_enabled","type":"bool"}],"name":"setA80DividendEnabled","outputs":[],"stateMutability":"nonpayable","type":"function"},{"inputs":[{"internalType":"uint256","name":"_newAmount","type":"uint256"}],"name":"setA80DividendPriority","outputs":[],"stateMutability":"nonpayable","type":"function"},{"inputs":[{"internalType":"address","name":"pair","type":"address"},{"internalType":"bool","name":"value","type":"bool"}],"name":"setAutomatedMarketMakerPair","outputs":[],"stateMutability":"nonpayable","type":"function"},{"inputs":[{"internalType":"bool","name":"_enabled","type":"bool"}],"name":"setB20DividendEnabled","outputs":[],"stateMutability":"nonpayable","type":"function"},{"inputs":[{"internalType":"bool","name":"_enabled","type":"bool"}],"name":"setBuyBackAndLiquifyEnabled","outputs":[],"stateMutability":"nonpayable","type":"function"},{"inputs":[{"internalType":"bool","name":"_enabled","type":"bool"}],"name":"setBuyBackMode","outputs":[],"stateMutability":"nonpayable","type":"function"},{"inputs":[{"internalType":"uint256","name":"buyBackLimit","type":"uint256"}],"name":"setBuyBackUpperLimit","outputs":[],"stateMutability":"nonpayable","type":"function"},{"inputs":[{"internalType":"bool","name":"_enabled","type":"bool"}],"name":"setMarketingEnabled","outputs":[],"stateMutability":"nonpayable","type":"function"},{"inputs":[{"internalType":"uint256","name":"_maxTxn","type":"uint256"}],"name":"setMaxBuyTransaction","outputs":[],"stateMutability":"nonpayable","type":"function"},{"inputs":[{"internalType":"uint256","name":"_maxTxn","type":"uint256"}],"name":"setMaxSellTransaction","outputs":[],"stateMutability":"nonpayable","type":"function"},{"inputs":[{"internalType":"uint256","name":"_maxToken","type":"uint256"}],"name":"setMaxWalletToken","outputs":[],"stateMutability":"nonpayable","type":"function"},{"inputs":[{"internalType":"uint256","name":"_newAmount","type":"uint256"}],"name":"setMinimumBalanceRequired","outputs":[],"stateMutability":"nonpayable","type":"function"},{"inputs":[{"internalType":"uint256","name":"_newAmount","type":"uint256"}],"name":"setMinimumSellOrderAmount","outputs":[],"stateMutability":"nonpayable","type":"function"},{"inputs":[{"internalType":"uint256","name":"_multiplier","type":"uint256"}],"name":"setSellTransactionMultiplier","outputs":[],"stateMutability":"nonpayable","type":"function"},{"inputs":[{"internalType":"bool","name":"_newStatus","type":"bool"}],"name":"setSendA80InTx","outputs":[],"stateMutability":"nonpayable","type":"function"},{"inputs":[{"internalType":"bool","name":"_newStatus","type":"bool"}],"name":"setSendB20InTx","outputs":[],"stateMutability":"nonpayable","type":"function"},{"inputs":[{"internalType":"uint256","name":"_swapAmount","type":"uint256"}],"name":"setSwapTokensAtAmount","outputs":[],"stateMutability":"nonpayable","type":"function"},{"inputs":[{"internalType":"uint256","name":"newFee","type":"uint256"}],"name":"setToBurnThunderBnbFee","outputs":[],"stateMutability":"nonpayable","type":"function"},{"inputs":[{"internalType":"bool","name":"_enabled","type":"bool"}],"name":"setTradingIsEnabled","outputs":[],"stateMutability":"nonpayable","type":"function"},{"inputs":[],"name":"swapTokensAtAmount","outputs":[{"internalType":"uint256","name":"","type":"uint256"}],"stateMutability":"view","type":"function"},{"inputs":[],"name":"symbol","outputs":[{"internalType":"string","name":"","type":"string"}],"stateMutability":"view","type":"function"},{"inputs":[],"name":"teamWallet","outputs":[{"internalType":"address","name":"","type":"address"}],"stateMutability":"view","type":"function"},{"inputs":[],"name":"toBurnThunderBnbAddress","outputs":[{"internalType":"address","name":"","type":"address"}],"stateMutability":"view","type":"function"},{"inputs":[],"name":"toBurnThunderBnbFee","outputs":[{"internalType":"uint256","name":"","type":"uint256"}],"stateMutability":"view","type":"function"},{"inputs":[],"name":"totalFees","outputs":[{"internalType":"uint256","name":"","type":"uint256"}],"stateMutability":"view","type":"function"},{"inputs":[],"name":"totalSupply","outputs":[{"internalType":"uint256","name":"","type":"uint256"}],"stateMutability":"view","type":"function"},{"inputs":[],"name":"tradingIsEnabled","outputs":[{"internalType":"bool","name":"","type":"bool"}],"stateMutability":"view","type":"function"},{"inputs":[{"internalType":"address","name":"recipient","type":"address"},{"internalType":"uint256","name":"amount","type":"uint256"}],"name":"transfer","outputs":[{"internalType":"bool","name":"","type":"bool"}],"stateMutability":"nonpayable","type":"function"},{"inputs":[{"internalType":"address","name":"sender","type":"address"},{"internalType":"address","name":"recipient","type":"address"},{"internalType":"uint256","name":"amount","type":"uint256"}],"name":"transferFrom","outputs":[{"internalType":"bool","name":"","type":"bool"}],"stateMutability":"nonpayable","type":"function"},{"inputs":[{"internalType":"address","name":"newOwner","type":"address"}],"name":"transferOwnership","outputs":[],"stateMutability":"nonpayable","type":"function"},{"inputs":[],"name":"uniswapV2Pair","outputs":[{"internalType":"address","name":"","type":"address"}],"stateMutability":"view","type":"function"},{"inputs":[],"name":"uniswapV2Router","outputs":[{"internalType":"contract IUniswapV2Router02","name":"","type":"address"}],"stateMutability":"view","type":"function"},{"inputs":[{"internalType":"uint8","name":"newFee","type":"uint8"}],"name":"updateA80DividendRewardFee","outputs":[],"stateMutability":"nonpayable","type":"function"},{"inputs":[{"internalType":"address","name":"_newContract","type":"address"}],"name":"updateA80DividendToken","outputs":[],"stateMutability":"nonpayable","type":"function"},{"inputs":[{"internalType":"address","name":"newAddress","type":"address"}],"name":"updateA80DividendTracker","outputs":[],"stateMutability":"nonpayable","type":"function"},{"inputs":[{"internalType":"uint8","name":"newFee","type":"uint8"}],"name":"updateB20DividendRewardFee","outputs":[],"stateMutability":"nonpayable","type":"function"},{"inputs":[{"internalType":"address","name":"_newContract","type":"address"}],"name":"updateB20DividendToken","outputs":[],"stateMutability":"nonpayable","type":"function"},{"inputs":[{"internalType":"address","name":"newAddress","type":"address"}],"name":"updateB20DividendTracker","outputs":[],"stateMutability":"nonpayable","type":"function"},{"inputs":[{"internalType":"address","name":"_newAddress","type":"address"}],"name":"updateBurnThunderCakeAddress","outputs":[],"stateMutability":"nonpayable","type":"function"},{"inputs":[{"internalType":"uint8","name":"newFee","type":"uint8"}],"name":"updateBuyBackAndLiquidityFee","outputs":[],"stateMutability":"nonpayable","type":"function"},{"inputs":[{"internalType":"uint256","name":"claimWait","type":"uint256"}],"name":"updateClaimWait","outputs":[],"stateMutability":"nonpayable","type":"function"},{"inputs":[{"internalType":"uint256","name":"newValue","type":"uint256"}],"name":"updateGasForProcessing","outputs":[],"stateMutability":"nonpayable","type":"function"},{"inputs":[{"internalType":"uint8","name":"newFee","type":"uint8"}],"name":"updateMarketingFee","outputs":[],"stateMutability":"nonpayable","type":"function"},{"inputs":[{"internalType":"address","name":"_newWallet","type":"address"}],"name":"updateMarketingWallet","outputs":[],"stateMutability":"nonpayable","type":"function"},{"inputs":[{"internalType":"uint256","name":"_newAmount","type":"uint256"}],"name":"updateMinA80BeforeSendDividend","outputs":[],"stateMutability":"nonpayable","type":"function"},{"inputs":[{"internalType":"uint256","name":"_newAmount","type":"uint256"}],"name":"updateMinB20BeforeSendDividend","outputs":[],"stateMutability":"nonpayable","type":"function"},{"inputs":[{"internalType":"uint256","name":"newMinimumBalance","type":"uint256"}],"name":"updateMinimumBalanceForDividends","outputs":[],"stateMutability":"nonpayable","type":"function"},{"inputs":[{"internalType":"address","name":"_newWallet","type":"address"}],"name":"updateTeamWallet","outputs":[],"stateMutability":"nonpayable","type":"function"},{"inputs":[{"internalType":"address","name":"newAddress","type":"address"}],"name":"updateUniswapV2Router","outputs":[],"stateMutability":"nonpayable","type":"function"},{"inputs":[{"internalType":"address","name":"account","type":"address"}],"name":"withdrawableA80DividendOf","outputs":[{"internalType":"uint256","name":"","type":"uint256"}],"stateMutability":"view","type":"function"},{"inputs":[{"internalType":"address","name":"account","type":"address"}],"name":"withdrawableB20DividendOf","outputs":[{"internalType":"uint256","name":"","type":"uint256"}],"stateMutability":"view","type":"function"},{"stateMutability":"payable","type":"receive"}]

60a0604052600b80547c010100000100000000000000000000000000000000000000000000dead7fffffff0000000000000000ff0000000000000000000000000000000000000000909116179055600e80546001600160a01b03191673b9654a42f0f5dcdef5617debf8bd048e33f180e71790556002600f55670de0b6b3a7640000601681905560175569152d02c7e14af68000006018556050601d556096602355620927c0602455348015620000b557600080fd5b50604080518082018252600e81526d05468756e6465724144412e6170760941b60208083019182528351808501909452600a8452695448554e44455241444160b01b9084015281519192916200010e9160039162000a7c565b5080516200012490600490602084019062000a7c565b50506005805460ff191660121790555060006200013e3390565b60058054610100600160a81b0319166101006001600160a01b03841690810291909117909155604051919250906000907f8be0079c531659141344cd1fd0a4f28419497f9722a3daafe3b4186f6b6457e0908290a350604051620001a29062000b0b565b604051809103906000f080158015620001bf573d6000803e3d6000fd5b50600c80546001600160a01b0319166001600160a01b0392909216919091179055604051620001ee9062000b19565b604051809103906000f0801580156200020b573d6000803e3d6000fd5b50600d80546001600160a01b03929092166001600160a01b031992831617905560118054821673a67625255d0ca1b6da42c475a4adc7aa8359ecfc17905560108054821673c9f19d1f492dcc9ff782b6f832d784af390cfa4a179055600980548216733ee2200efb3400fabb9aacf31297cbdd1d435d47179055600a805490911673580de58c1bd593a43dadcf0a739d504621817c051790556040805163c45a015560e01b815290517310ed43c718714eb63d5aa57b78b54704e256024e91600091839163c45a0155916004828101926020929190829003018186803b158015620002f557600080fd5b505afa1580156200030a573d6000803e3d6000fd5b505050506040513d601f19601f8201168201806040525081019062000330919062000b3e565b6001600160a01b031663c9c6539630846001600160a01b031663ad5c46486040518163ffffffff1660e01b815260040160206040518083038186803b1580156200037957600080fd5b505afa1580156200038e573d6000803e3d6000fd5b505050506040513d601f19601f82011682018060405250810190620003b4919062000b3e565b6040516001600160e01b031960e085901b1681526001600160a01b03928316600482015291166024820152604401602060405180830381600087803b158015620003fd57600080fd5b505af115801562000412573d6000803e3d6000fd5b505050506040513d601f19601f8201168201806040525081019062000438919062000b3e565b600880546001600160a01b0319166001600160a01b038516179055606081901b6001600160601b0319166080529050620004748160016200056a565b600c546200048b906001600160a01b0316620006ec565b600d54620004a2906001600160a01b0316620006ec565b620004ad30620006ec565b620004b882620006ec565b600b54620004cf906001600160a01b0316620006ec565b601154620004e8906001600160a01b0316600162000802565b60105462000501906001600160a01b0316600162000802565b6200050e30600162000802565b620005326200052a60055461010090046001600160a01b031690565b600162000802565b620005626200054e60055461010090046001600160a01b031690565b6c01431e0fae6d7217caa000000062000916565b505062000bc9565b6005546001600160a01b03610100909104163314620005bf5760405162461bcd60e51b815260206004820181905260248201526000805160206200b4d083398151915260448201526064015b60405180910390fd5b6001600160a01b0382166000908152602660205260409020805460ff19168215801591909117909155620006b057600c5460405163031e79db60e41b81526001600160a01b038481166004830152909116906331e79db090602401600060405180830381600087803b1580156200063557600080fd5b505af11580156200064a573d6000803e3d6000fd5b5050600d5460405163031e79db60e41b81526001600160a01b03868116600483015290911692506331e79db09150602401600060405180830381600087803b1580156200069657600080fd5b505af1158015620006ab573d6000803e3d6000fd5b505050505b604051811515906001600160a01b038416907fffa9187bf1f18bf477bd0ea1bcbb64e93b6a98132473929edfce215cd9b16fab90600090a35050565b6005546001600160a01b036101009091041633146200073d5760405162461bcd60e51b815260206004820181905260248201526000805160206200b4d08339815191526044820152606401620005b6565b600c5460405163031e79db60e41b81526001600160a01b038381166004830152909116906331e79db090602401600060405180830381600087803b1580156200078557600080fd5b505af11580156200079a573d6000803e3d6000fd5b5050600d5460405163031e79db60e41b81526001600160a01b03858116600483015290911692506331e79db09150602401600060405180830381600087803b158015620007e657600080fd5b505af1158015620007fb573d6000803e3d6000fd5b5050505050565b6005546001600160a01b03610100909104163314620008535760405162461bcd60e51b815260206004820181905260248201526000805160206200b4d08339815191526044820152606401620005b6565b6001600160a01b03821660009081526025602052604090205460ff1615158115151415620008b75760405162461bcd60e51b815260206004820152601060248201526f105b1c9958591e48195e18db1d59195960821b6044820152606401620005b6565b6001600160a01b038216600081815260256020908152604091829020805460ff191685151590811790915591519182527f9d8f7706ea1113d1a167b526eca956215946dd36cc7df39eb16180222d8b5df7910160405180910390a25050565b6001600160a01b0382166200096e5760405162461bcd60e51b815260206004820152601f60248201527f45524332303a206d696e7420746f20746865207a65726f2061646472657373006044820152606401620005b6565b6200098a8160025462000a1260201b6200397f1790919060201c565b6002556001600160a01b03821660009081526020818152604090912054620009bd9183906200397f62000a12821b17901c565b6001600160a01b038316600081815260208181526040808320949094559251848152919290917fddf252ad1be2c89b69c2b068fc378daa952ba7f163c4a11628f55a4df523b3ef910160405180910390a35050565b60008062000a21838562000b67565b90508381101562000a755760405162461bcd60e51b815260206004820152601b60248201527f536166654d6174683a206164646974696f6e206f766572666c6f7700000000006044820152606401620005b6565b9392505050565b82805462000a8a9062000b8c565b90600052602060002090601f01602090048101928262000aae576000855562000af9565b82601f1062000ac957805160ff191683800117855562000af9565b8280016001018555821562000af9579182015b8281111562000af957825182559160200191906001019062000adc565b5062000b0792915062000b27565b5090565b6124928062006b7183390190565b6124cd806200900383390190565b5b8082111562000b07576000815560010162000b28565b60006020828403121562000b50578081fd5b81516001600160a01b038116811462000a75578182fd5b6000821982111562000b8757634e487b7160e01b81526011600452602481fd5b500190565b600181811c9082168062000ba157607f821691505b6020821081141562000bc357634e487b7160e01b600052602260045260246000fd5b50919050565b60805160601c615f8262000bef60003960008181610b2801526129f20152615f826000f3fe60806040526004361061070e5760003560e01c80637cd6180f1161039b578063b62496f5116101e7578063dc1a6b001161010d578063e6c75f71116100ab578063e98030c71161007a578063e98030c7146114c1578063eb4350ed146114e1578063f2fde38b146114f6578063fb7f634a1461151657600080fd5b8063e6c75f711461144a578063e71072fe14611460578063e841b7ce14611480578063e84d44f8146114a057600080fd5b8063dd62ed3e116100e7578063dd62ed3e146113ae578063e1adb132146113f4578063e27ad5eb14611414578063e2f456051461143457600080fd5b8063dc1a6b0014611358578063dd2b2e6f14611378578063dd4670641461138e57600080fd5b8063c9b4c06311610185578063d46d9ba111610154578063d46d9ba1146112e1578063d8b5ceaa14611301578063d8c682ce14611322578063daecf5f61461134257600080fd5b8063c9b4c06314611280578063cf50573614611296578063cf8f19bf146112ac578063d09eca7f146112cc57600080fd5b8063bf32420f116101c1578063bf32420f1461120b578063c02466681461122b578063c55a35821461124b578063c5e987d11461126b57600080fd5b8063b62496f5146111a6578063bdc9097f146111d6578063beeaacb4146111eb57600080fd5b8063980f02fe116102cc578063a5dec6231161026a578063afa4f3b211610239578063afa4f3b214611126578063b13f725d14611146578063b3a1ee5514611166578063b3b5e0431461118657600080fd5b8063a5dec6231461106c578063a820e08214611081578063a9059cbb146110e6578063aacebbe31461110657600080fd5b80639e08799d116102a65780639e08799d14610ff65780639e09c8531461100c578063a1538d411461102c578063a457c2d71461104c57600080fd5b8063980f02fe14610fa05780639a7a23d614610fc05780639c1b8af514610fe057600080fd5b806391d55f411161033957806394067993116103135780639406799314610f35578063955ebc9e14610f5557806395d89b4114610f6b57806396bd0f6514610f8057600080fd5b806391d55f4114610ee05780639201158f14610f0057806392f6576e14610f2057600080fd5b8063864d6db911610375578063864d6db914610e67578063871c128d14610e7c5780638bd8ae7c14610e9c5780638da5cb5b14610ebd57600080fd5b80637cd6180f14610e065780637fe8401714610e2757806381d67de214610e4757600080fd5b80633b364da81161055a5780635c38ffe21161048b578063700bb1911161042957806375f0a874116103f857806375f0a87414610d6c578063798441e014610d8c5780637b16cea014610dad5780637cb332bb14610de657600080fd5b8063700bb19114610d0157806370a0823114610d2157806370e5024114610d41578063715018a614610d5757600080fd5b806365b8dbc01161046557806365b8dbc014610c965780636a0f61c114610cb65780636b67c4df14610ccb5780636cbc3f6b14610ce157600080fd5b80635c38ffe214610c405780635fd65fea14610c6057806361b83a5714610c7657600080fd5b806350140e46116104f857806359927044116104d25780635992704414610bd55780635a6e0f7114610bf55780635aa821a914610c155780635bcef93514610c2b57600080fd5b806350140e4614610b755780635282406814610b955780635294e95e14610bb557600080fd5b806344ce4e0a1161053457806344ce4e0a14610b0057806349bd5a5e14610b165780634e71d92d14610b4a5780635004f51d14610b5f57600080fd5b80633b364da814610aab5780633b68afa414610acb5780633e137aad14610aeb57600080fd5b80631d199cfd1161063f57806327c8f835116105dd578063339826b0116105ac578063339826b014610a2a5780633458436014610a4a5780633884f36414610a6a5780633950935114610a8b57600080fd5b806327c8f835146109a7578063286d2316146109c7578063313ce567146109e85780633395155e14610a0a57600080fd5b806322bd3f7f1161061957806322bd3f7f146109315780632370c7711461094757806323b872dd14610967578063263b5fcb1461098757600080fd5b80631d199cfd146108e55780631ea3f30b146108fb5780631fa52f6b1461091b57600080fd5b806311f25b9b116106ac57806318160ddd1161068657806318160ddd1461087b578063196fb595146108905780631982a285146108a557806319ad3cb8146108c557600080fd5b806311f25b9b1461080d57806313114a9d1461082d5780631694505e1461084357600080fd5b8063095ea7b3116106e8578063095ea7b31461077c57806309c58fcd146107ac5780630a8a4bac146107cd5780630aafcad4146107ed57600080fd5b806302259e9e1461071a57806306fdde031461074357806307efbfdc1461076557600080fd5b3661071557005b600080fd5b34801561072657600080fd5b5061073060135481565b6040519081526020015b60405180910390f35b34801561074f57600080fd5b50610758611536565b60405161073a9190615cc9565b34801561077157600080fd5b5061077a6115c8565b005b34801561078857600080fd5b5061079c610797366004615b70565b61167e565b604051901515815260200161073a565b3480156107b857600080fd5b50600b5461079c90600160a81b900460ff1681565b3480156107d957600080fd5b5061077a6107e8366004615b9b565b611695565b3480156107f957600080fd5b50610730610808366004615a2a565b6116e3565b34801561081957600080fd5b5061077a610828366004615bd3565b611762565b34801561083957600080fd5b5061073060225481565b34801561084f57600080fd5b50600854610863906001600160a01b031681565b6040516001600160a01b03909116815260200161073a565b34801561088757600080fd5b50600254610730565b34801561089c57600080fd5b50610730611797565b3480156108b157600080fd5b50600e54610863906001600160a01b031681565b3480156108d157600080fd5b5061077a6108e0366004615c30565b611819565b3480156108f157600080fd5b50610730601c5481565b34801561090757600080fd5b5061077a610916366004615bd3565b61187f565b34801561092757600080fd5b50610730601a5481565b34801561093d57600080fd5b5061073060235481565b34801561095357600080fd5b5061077a610962366004615a2a565b6118d5565b34801561097357600080fd5b5061079c610982366004615a9a565b611b70565b34801561099357600080fd5b5061077a6109a2366004615b9b565b611bd9565b3480156109b357600080fd5b50600b54610863906001600160a01b031681565b3480156109d357600080fd5b50600b5461079c90600160d01b900460ff1681565b3480156109f457600080fd5b5060055460405160ff909116815260200161073a565b348015610a1657600080fd5b5061077a610a25366004615a2a565b611c8c565b348015610a3657600080fd5b5061077a610a45366004615bd3565b611d85565b348015610a5657600080fd5b50600a54610863906001600160a01b031681565b348015610a7657600080fd5b50600b5461079c90600160b81b900460ff1681565b348015610a9757600080fd5b5061079c610aa6366004615b70565b611dfc565b348015610ab757600080fd5b5061077a610ac6366004615bd3565b611e32565b348015610ad757600080fd5b5061077a610ae6366004615bd3565b611f22565b348015610af757600080fd5b50610730611f83565b348015610b0c57600080fd5b50610730601b5481565b348015610b2257600080fd5b506108637f000000000000000000000000000000000000000000000000000000000000000081565b348015610b5657600080fd5b5061077a611fc8565b348015610b6b57600080fd5b5061073060195481565b348015610b8157600080fd5b5061077a610b90366004615bd3565b6120d1565b348015610ba157600080fd5b50610730610bb0366004615a2a565b61212f565b348015610bc157600080fd5b50610730610bd0366004615a2a565b612162565b348015610be157600080fd5b50601054610863906001600160a01b031681565b348015610c0157600080fd5b50600d54610863906001600160a01b031681565b348015610c2157600080fd5b5061073060125481565b348015610c3757600080fd5b50610730612195565b348015610c4c57600080fd5b5061077a610c5b366004615bd3565b6121da565b348015610c6c57600080fd5b50610730601f5481565b348015610c8257600080fd5b5061077a610c91366004615bd3565b612222565b348015610ca257600080fd5b5061077a610cb1366004615a2a565b612283565b348015610cc257600080fd5b506107306122d5565b348015610cd757600080fd5b50610730601e5481565b348015610ced57600080fd5b5061077a610cfc366004615b9b565b61231a565b348015610d0d57600080fd5b5061077a610d1c366004615bd3565b612368565b348015610d2d57600080fd5b50610730610d3c366004615a2a565b612557565b348015610d4d57600080fd5b5061073060165481565b348015610d6357600080fd5b5061077a612572565b348015610d7857600080fd5b50601154610863906001600160a01b031681565b348015610d9857600080fd5b50600b5461079c90600160c01b900460ff1681565b348015610db957600080fd5b5061079c610dc8366004615a2a565b6001600160a01b031660009081526025602052604090205460ff1690565b348015610df257600080fd5b5061077a610e01366004615a2a565b6125f2565b348015610e1257600080fd5b50600b5461079c90600160c81b900460ff1681565b348015610e3357600080fd5b50600c54610863906001600160a01b031681565b348015610e5357600080fd5b5061077a610e62366004615a2a565b61264f565b348015610e7357600080fd5b506107306126c8565b348015610e8857600080fd5b5061077a610e97366004615bd3565b61270d565b348015610ea857600080fd5b50600b5461079c90600160d81b900460ff1681565b348015610ec957600080fd5b5060055461010090046001600160a01b0316610863565b348015610eec57600080fd5b5061077a610efb366004615bd3565b612742565b348015610f0c57600080fd5b5061077a610f1b366004615bd3565b61278a565b348015610f2c57600080fd5b50610730601981565b348015610f4157600080fd5b5061077a610f50366004615c30565b612871565b348015610f6157600080fd5b5061073060205481565b348015610f7757600080fd5b506107586128d4565b348015610f8c57600080fd5b5061077a610f9b366004615bd3565b6128e3565b348015610fac57600080fd5b5061077a610fbb366004615c30565b61295d565b348015610fcc57600080fd5b5061077a610fdb366004615ada565b6129c0565b348015610fec57600080fd5b5061073060245481565b34801561100257600080fd5b50610730600f5481565b34801561101857600080fd5b5061077a611027366004615b9b565b612a70565b34801561103857600080fd5b50610730611047366004615a2a565b612abe565b34801561105857600080fd5b5061079c611067366004615b70565b612af1565b34801561107857600080fd5b50610730612b40565b34801561108d57600080fd5b506110a161109c366004615a2a565b612b85565b604080516001600160a01b0390991689526020890197909752958701949094526060860192909252608085015260a084015260c083015260e08201526101000161073a565b3480156110f257600080fd5b5061079c611101366004615b70565b612c2f565b34801561111257600080fd5b5061077a611121366004615a2a565b612c3c565b34801561113257600080fd5b5061077a611141366004615bd3565b612c99565b34801561115257600080fd5b5061077a611161366004615a2a565b612ce1565b34801561117257600080fd5b50600954610863906001600160a01b031681565b34801561119257600080fd5b5061077a6111a1366004615bd3565b612da2565b3480156111b257600080fd5b5061079c6111c1366004615a2a565b60266020526000908152604090205460ff1681565b3480156111e257600080fd5b50610730612dea565b3480156111f757600080fd5b5061077a611206366004615b9b565b612e2f565b34801561121757600080fd5b5061077a611226366004615a2a565b612ee1565b34801561123757600080fd5b5061077a611246366004615ada565b61317c565b34801561125757600080fd5b506110a1611266366004615bd3565b61326d565b34801561127757600080fd5b506107306132af565b34801561128c57600080fd5b5061073060215481565b3480156112a257600080fd5b5061073060175481565b3480156112b857600080fd5b5061077a6112c7366004615b9b565b6132f4565b3480156112d857600080fd5b506107306133a6565b3480156112ed57600080fd5b5061077a6112fc366004615c30565b6133eb565b34801561130d57600080fd5b50600b5461079c90600160e01b900460ff1681565b34801561132e57600080fd5b5061077a61133d366004615a2a565b61344e565b34801561134e57600080fd5b50610730601d5481565b34801561136457600080fd5b506110a1611373366004615bd3565b6134a0565b34801561138457600080fd5b5061073060185481565b34801561139a57600080fd5b5061077a6113a9366004615bd3565b6134e2565b3480156113ba57600080fd5b506107306113c9366004615a62565b6001600160a01b03918216600090815260016020908152604080832093909416825291909152205490565b34801561140057600080fd5b5061077a61140f366004615a2a565b61358f565b34801561142057600080fd5b5061077a61142f366004615b9b565b613608565b34801561144057600080fd5b5061073060145481565b34801561145657600080fd5b5061073060155481565b34801561146c57600080fd5b5061077a61147b366004615b9b565b613656565b34801561148c57600080fd5b506110a161149b366004615a2a565b613708565b3480156114ac57600080fd5b50600b5461079c90600160b01b900460ff1681565b3480156114cd57600080fd5b5061077a6114dc366004615bd3565b61374a565b3480156114ed57600080fd5b50610730613809565b34801561150257600080fd5b5061077a611511366004615a2a565b61384e565b34801561152257600080fd5b5061077a611531366004615bd3565b61394a565b60606003805461154590615e8b565b80601f016020809104026020016040519081016040528092919081815260200182805461157190615e8b565b80156115be5780601f10611593576101008083540402835291602001916115be565b820191906000526020600020905b8154815290600101906020018083116115a157829003601f168201915b5050505050905090565b6005546001600160a01b036101009091041633146116015760405162461bcd60e51b81526004016115f890615d86565b60405180910390fd5b60086019556002601b8190556004601e556020819055600f556116226139e5565b600b805464ffff00ffff60b01b191664010100010160b01b1790556a18d0bf423c03d8de0000006014556b033b2e3c9fd0803ce80000006012556a295be96e640669720000006013556c01431e0fae6d7217caa0000000601555565b600061168b338484613a19565b5060015b92915050565b6005546001600160a01b036101009091041633146116c55760405162461bcd60e51b81526004016115f890615d86565b600b8054911515600160e01b0260ff60e01b19909216919091179055565b600c546040516302a2e74960e61b81526001600160a01b038381166004830152600092169063a8b9d240906024015b60206040518083038186803b15801561172a57600080fd5b505afa15801561173e573d6000803e3d6000fd5b505050506040513d601f19601f8201168201806040525081019061168f9190615beb565b6005546001600160a01b036101009091041633146117925760405162461bcd60e51b81526004016115f890615d86565b601755565b600c546040805163042aa97b60e51b815290516000926001600160a01b0316916385552f60916004808301926020929190829003018186803b1580156117dc57600080fd5b505afa1580156117f0573d6000803e3d6000fd5b505050506040513d601f19601f820116820180604052508101906118149190615beb565b905090565b6005546001600160a01b036101009091041633146118495760405162461bcd60e51b81526004016115f890615d86565b60198160ff16111561186d5760405162461bcd60e51b81526004016115f890615d67565b60ff811660195561187c6139e5565b50565b6005546001600160a01b036101009091041633146118af5760405162461bcd60e51b81526004016115f890615d86565b60648111156118d05760405162461bcd60e51b81526004016115f890615d41565b601d55565b6005546001600160a01b036101009091041633146119055760405162461bcd60e51b81526004016115f890615d86565b6000819050306001600160a01b0316816001600160a01b0316638da5cb5b6040518163ffffffff1660e01b815260040160206040518083038186803b15801561194d57600080fd5b505afa158015611961573d6000803e3d6000fd5b505050506040513d601f19601f820116820180604052508101906119859190615a46565b6001600160a01b0316146119db5760405162461bcd60e51b815260206004820152601b60248201527f6d757374206265206f776e6564206279205468756e646572416461000000000060448201526064016115f8565b60405163031e79db60e41b81526001600160a01b03821660048201819052906331e79db090602401600060405180830381600087803b158015611a1d57600080fd5b505af1158015611a31573d6000803e3d6000fd5b505060405163031e79db60e41b81523060048201526001600160a01b03841692506331e79db09150602401600060405180830381600087803b158015611a7657600080fd5b505af1158015611a8a573d6000803e3d6000fd5b505060085460405163031e79db60e41b81526001600160a01b03918216600482015290841692506331e79db09150602401600060405180830381600087803b158015611ad557600080fd5b505af1158015611ae9573d6000803e3d6000fd5b5050600b5460405163031e79db60e41b81526001600160a01b03918216600482015290841692506331e79db09150602401600060405180830381600087803b158015611b3457600080fd5b505af1158015611b48573d6000803e3d6000fd5b5050600d80546001600160a01b0319166001600160a01b039490941693909317909255505050565b6000611b7d848484613ac7565b611bcf8433611bca85604051806060016040528060288152602001615f00602891396001600160a01b038a16600090815260016020908152604080832033845290915290205491906147c1565b613a19565b5060019392505050565b6005546001600160a01b03610100909104163314611c095760405162461bcd60e51b81526004016115f890615d86565b600b5460ff600160b01b9091041615158115151415611c3a5760405162461bcd60e51b81526004016115f890615d1c565b80611c6657601e8054601f5560009055600b805460ff60b01b1916600160b01b83151502179055611c84565b601f54601e55600b805460ff60b01b1916600160b01b831515021790555b61187c6139e5565b6005546001600160a01b03610100909104163314611cbc5760405162461bcd60e51b81526004016115f890615d86565b600c5460405163031e79db60e41b81526001600160a01b038381166004830152909116906331e79db090602401600060405180830381600087803b158015611d0357600080fd5b505af1158015611d17573d6000803e3d6000fd5b5050600d5460405163031e79db60e41b81526001600160a01b03858116600483015290911692506331e79db09150602401600060405180830381600087803b158015611d6257600080fd5b505af1158015611d76573d6000803e3d6000fd5b5050505061187c81600161317c565b6005546001600160a01b03610100909104163314611db55760405162461bcd60e51b81526004016115f890615d86565b60008111611df75760405162461bcd60e51b815260206004820152600f60248201526e3732bba0b6b7bab73a1032b93937b960891b60448201526064016115f8565b601855565b3360008181526001602090815260408083206001600160a01b0387168452909152812054909161168b918590611bca908661397f565b6005546001600160a01b03610100909104163314611e625760405162461bcd60e51b81526004016115f890615d86565b600c54604051630dcb2e8960e01b8152600481018390526001600160a01b0390911690630dcb2e8990602401600060405180830381600087803b158015611ea857600080fd5b505af1158015611ebc573d6000803e3d6000fd5b5050600d54604051630dcb2e8960e01b8152600481018590526001600160a01b039091169250630dcb2e8991506024015b600060405180830381600087803b158015611f0757600080fd5b505af1158015611f1b573d6000803e3d6000fd5b5050505050565b6005546001600160a01b03610100909104163314611f525760405162461bcd60e51b81526004016115f890615d86565b600c5460405163bd0a238160e01b8152600481018390526001600160a01b039091169063bd0a238190602401611eed565b600d546040805163039e107b60e61b815290516000926001600160a01b03169163e7841ec0916004808301926020929190829003018186803b1580156117dc57600080fd5b600c5460405163bc4c4b3760e01b8152336004820152600060248201526001600160a01b039091169063bc4c4b3790604401602060405180830381600087803b15801561201457600080fd5b505af1158015612028573d6000803e3d6000fd5b505050506040513d601f19601f8201168201806040525081019061204c9190615bb7565b50600d5460405163bc4c4b3760e01b8152336004820152600060248201526001600160a01b039091169063bc4c4b3790604401602060405180830381600087803b15801561209957600080fd5b505af11580156120ad573d6000803e3d6000fd5b505050506040513d601f19601f8201168201806040525081019061187c9190615bb7565b6005546001600160a01b036101009091041633146121015760405162461bcd60e51b81526004016115f890615d86565b60198111156121225760405162461bcd60e51b81526004016115f890615d67565b600f81905561187c6139e5565b600d546040516302a2e74960e61b81526001600160a01b038381166004830152600092169063a8b9d24090602401611712565b600d546040516370a0823160e01b81526001600160a01b03838116600483015260009216906370a0823190602401611712565b600d5460408051631bc9e27b60e21b815290516000926001600160a01b031691636f2789ec916004808301926020929190829003018186803b1580156117dc57600080fd5b6005546001600160a01b0361010090910416331461220a5760405162461bcd60e51b81526004016115f890615d86565b61221c81670de0b6b3a7640000615e55565b60135550565b6005546001600160a01b036101009091041633146122525760405162461bcd60e51b81526004016115f890615d86565b600d5460405163bd0a238160e01b8152600481018390526001600160a01b039091169063bd0a238190602401611eed565b6005546001600160a01b036101009091041633146122b35760405162461bcd60e51b81526004016115f890615d86565b600880546001600160a01b0319166001600160a01b0392909216919091179055565b600d54604080516304ddf6ef60e11b815290516000926001600160a01b0316916309bbedde916004808301926020929190829003018186803b1580156117dc57600080fd5b6005546001600160a01b0361010090910416331461234a5760405162461bcd60e51b81526004016115f890615d86565b600b8054911515600160c01b0260ff60c01b19909216919091179055565b6005546001600160a01b036101009091041633146123985760405162461bcd60e51b81526004016115f890615d86565b600c546040516001624d3b8760e01b0319815260048101839052600091829182916001600160a01b03169063ffb2c47990602401606060405180830381600087803b1580156123e657600080fd5b505af11580156123fa573d6000803e3d6000fd5b505050506040513d601f19601f8201168201806040525081019061241e9190615c03565b604080518481526020810184905290810182905260608101889052929550909350915032906000907fb58dec3e2b463c9c7350bc4fedf418d1d15b64634c86d5225dfa4e78e578ae669060800160405180910390a3600d546040516001624d3b8760e01b0319815260048101869052600091829182916001600160a01b03169063ffb2c47990602401606060405180830381600087803b1580156124c157600080fd5b505af11580156124d5573d6000803e3d6000fd5b505050506040513d601f19601f820116820180604052508101906124f99190615c03565b6040805184815260208101849052908101829052606081018b9052929550909350915032906000907fca4f306e136c818900d9c0f1ac0a69487e6ba3f0e817c4fe7abca67a2825eed79060800160405180910390a350505050505050565b6001600160a01b031660009081526020819052604090205490565b6005546001600160a01b036101009091041633146125a25760405162461bcd60e51b81526004016115f890615d86565b60055460405160009161010090046001600160a01b0316907f8be0079c531659141344cd1fd0a4f28419497f9722a3daafe3b4186f6b6457e0908390a360058054610100600160a81b0319169055565b6005546001600160a01b036101009091041633146126225760405162461bcd60e51b81526004016115f890615d86565b61262d81600161317c565b601080546001600160a01b0319166001600160a01b0392909216919091179055565b6005546001600160a01b0361010090910416331461267f5760405162461bcd60e51b81526004016115f890615d86565b600980546001600160a01b0319166001600160a01b03838116918217909255600c54604051633f1f3fe960e11b8152600481019290925290911690637e3e7fd290602401611eed565b600c54604080516342d359d760e11b815290516000926001600160a01b0316916385a6b3ae916004808301926020929190829003018186803b1580156117dc57600080fd5b6005546001600160a01b0361010090910416331461273d5760405162461bcd60e51b81526004016115f890615d86565b602455565b6005546001600160a01b036101009091041633146127725760405162461bcd60e51b81526004016115f890615d86565b61278481670de0b6b3a7640000615e55565b60155550565b6005546001600160a01b036101009091041633146127ba5760405162461bcd60e51b81526004016115f890615d86565b600b544790600160b81b900460ff166128035760405162461bcd60e51b815260206004820152600b60248201526a1b9bdd08195b98589b195960aa1b60448201526064016115f8565b601754612810908361397f565b8110156128535760405162461bcd60e51b8152602060048201526011602482015270616d6f756e7420697320746f6f2062696760781b60448201526064016115f8565b600b54600160a01b900460ff1661286d5761286d826147f8565b5050565b6005546001600160a01b036101009091041633146128a15760405162461bcd60e51b81526004016115f890615d86565b60198160ff1611156128c55760405162461bcd60e51b81526004016115f890615d67565b60ff8116601b5561187c6139e5565b60606004805461154590615e8b565b6005546001600160a01b036101009091041633146129135760405162461bcd60e51b81526004016115f890615d86565b600081116129585760405162461bcd60e51b8152602060048201526012602482015271313abca130b1b5a634b6b4ba1032b93937b960711b60448201526064016115f8565b601655565b6005546001600160a01b0361010090910416331461298d5760405162461bcd60e51b81526004016115f890615d86565b60198160ff1611156129b15760405162461bcd60e51b81526004016115f890615d67565b60ff811660205561187c6139e5565b6005546001600160a01b036101009091041633146129f05760405162461bcd60e51b81526004016115f890615d86565b7f00000000000000000000000000000000000000000000000000000000000000006001600160a01b0316826001600160a01b03161415612a665760405162461bcd60e51b815260206004820152601160248201527018d85b9b9bdd081899481c995b5bdd9959607a1b60448201526064016115f8565b61286d8282614987565b6005546001600160a01b03610100909104163314612aa05760405162461bcd60e51b81526004016115f890615d86565b600b8054911515600160d81b0260ff60d81b19909216919091179055565b600c546040516370a0823160e01b81526001600160a01b03838116600483015260009216906370a0823190602401611712565b600061168b3384611bca85604051806060016040528060258152602001615f28602591393360009081526001602090815260408083206001600160a01b038d16845290915290205491906147c1565b600d546040805163042aa97b60e51b815290516000926001600160a01b0316916385552f60916004808301926020929190829003018186803b1580156117dc57600080fd5b600c5460405163fbcbc0f160e01b81526001600160a01b038381166004830152600092839283928392839283928392839291169063fbcbc0f1906024015b6101006040518083038186803b158015612bdc57600080fd5b505afa158015612bf0573d6000803e3d6000fd5b505050506040513d601f19601f82011682018060405250810190612c149190615b07565b97509750975097509750975097509750919395975091939597565b600061168b338484613ac7565b6005546001600160a01b03610100909104163314612c6c5760405162461bcd60e51b81526004016115f890615d86565b612c7781600161317c565b601180546001600160a01b0319166001600160a01b0392909216919091179055565b6005546001600160a01b03610100909104163314612cc95760405162461bcd60e51b81526004016115f890615d86565b612cdb81670de0b6b3a7640000615e55565b60145550565b6005546001600160a01b03610100909104163314612d115760405162461bcd60e51b81526004016115f890615d86565b600c5460405163031e79db60e41b81526001600160a01b038381166004830152909116906331e79db090602401600060405180830381600087803b158015612d5857600080fd5b505af1158015612d6c573d6000803e3d6000fd5b5050600d5460405163031e79db60e41b81526001600160a01b03858116600483015290911692506331e79db09150602401611eed565b6005546001600160a01b03610100909104163314612dd25760405162461bcd60e51b81526004016115f890615d86565b612de481670de0b6b3a7640000615e55565b60125550565b600c54604080516304ddf6ef60e11b815290516000926001600160a01b0316916309bbedde916004808301926020929190829003018186803b1580156117dc57600080fd5b6005546001600160a01b03610100909104163314612e5f5760405162461bcd60e51b81526004016115f890615d86565b600b5460ff600160d01b9091041615158115151415612e905760405162461bcd60e51b81526004016115f890615d1c565b80612ebc57601b8054601c5560009055600b805460ff60d01b1916600160d01b83151502179055611c84565b601c54601b55600b805460ff60d01b1916600160d01b8315150217905561187c6139e5565b6005546001600160a01b03610100909104163314612f115760405162461bcd60e51b81526004016115f890615d86565b6000819050306001600160a01b0316816001600160a01b0316638da5cb5b6040518163ffffffff1660e01b815260040160206040518083038186803b158015612f5957600080fd5b505afa158015612f6d573d6000803e3d6000fd5b505050506040513d601f19601f82011682018060405250810190612f919190615a46565b6001600160a01b031614612fe75760405162461bcd60e51b815260206004820152601b60248201527f6d757374206265206f776e6564206279205468756e646572416461000000000060448201526064016115f8565b60405163031e79db60e41b81526001600160a01b03821660048201819052906331e79db090602401600060405180830381600087803b15801561302957600080fd5b505af115801561303d573d6000803e3d6000fd5b505060405163031e79db60e41b81523060048201526001600160a01b03841692506331e79db09150602401600060405180830381600087803b15801561308257600080fd5b505af1158015613096573d6000803e3d6000fd5b505060085460405163031e79db60e41b81526001600160a01b03918216600482015290841692506331e79db09150602401600060405180830381600087803b1580156130e157600080fd5b505af11580156130f5573d6000803e3d6000fd5b5050600b5460405163031e79db60e41b81526001600160a01b03918216600482015290841692506331e79db09150602401600060405180830381600087803b15801561314057600080fd5b505af1158015613154573d6000803e3d6000fd5b5050600c80546001600160a01b0319166001600160a01b039490941693909317909255505050565b6005546001600160a01b036101009091041633146131ac5760405162461bcd60e51b81526004016115f890615d86565b6001600160a01b03821660009081526025602052604090205460ff161515811515141561320e5760405162461bcd60e51b815260206004820152601060248201526f105b1c9958591e48195e18db1d59195960821b60448201526064016115f8565b6001600160a01b038216600081815260256020908152604091829020805460ff191685151590811790915591519182527f9d8f7706ea1113d1a167b526eca956215946dd36cc7df39eb16180222d8b5df7910160405180910390a25050565b600c54604051635183d6fd60e01b81526004810183905260009182918291829182918291829182916001600160a01b0390911690635183d6fd90602401612bc3565b600c546040805163039e107b60e61b815290516000926001600160a01b03169163e7841ec0916004808301926020929190829003018186803b1580156117dc57600080fd5b6005546001600160a01b036101009091041633146133245760405162461bcd60e51b81526004016115f890615d86565b600b5460ff600160b81b90910416151581151514156133555760405162461bcd60e51b81526004016115f890615d1c565b80613381576020805460215560009055600b805460ff60b81b1916600160b81b83151502179055611c84565b602154602055600b805460ff60b81b1916600160b81b8315150217905561187c6139e5565b600c5460408051631bc9e27b60e21b815290516000926001600160a01b031691636f2789ec916004808301926020929190829003018186803b1580156117dc57600080fd5b6005546001600160a01b0361010090910416331461341b5760405162461bcd60e51b81526004016115f890615d86565b60198160ff16111561343f5760405162461bcd60e51b81526004016115f890615d67565b60ff8116601e5561187c6139e5565b6005546001600160a01b0361010090910416331461347e5760405162461bcd60e51b81526004016115f890615d86565b600e80546001600160a01b0319166001600160a01b0392909216919091179055565b600d54604051635183d6fd60e01b81526004810183905260009182918291829182918291829182916001600160a01b0390911690635183d6fd90602401612bc3565b6005546001600160a01b036101009091041633146135125760405162461bcd60e51b81526004016115f890615d86565b60058054600680546001600160a01b0319166001600160a01b03610100840416179055610100600160a81b031916905561354c8142615e1d565b60075560055460405160009161010090046001600160a01b0316907f8be0079c531659141344cd1fd0a4f28419497f9722a3daafe3b4186f6b6457e0908390a350565b6005546001600160a01b036101009091041633146135bf5760405162461bcd60e51b81526004016115f890615d86565b600a80546001600160a01b0319166001600160a01b03838116918217909255600d54604051633f1f3fe960e11b8152600481019290925290911690637e3e7fd290602401611eed565b6005546001600160a01b036101009091041633146136385760405162461bcd60e51b81526004016115f890615d86565b600b8054911515600160a81b0260ff60a81b19909216919091179055565b6005546001600160a01b036101009091041633146136865760405162461bcd60e51b81526004016115f890615d86565b600b5460ff600160c81b90910416151581151514156136b75760405162461bcd60e51b81526004016115f890615d1c565b806136e35760198054601a5560009055600b805460ff60c81b1916600160c81b83151502179055611c84565b601a54601955600b805460ff60c81b1916600160c81b8315150217905561187c6139e5565b600d5460405163fbcbc0f160e01b81526001600160a01b038381166004830152600092839283928392839283928392839291169063fbcbc0f190602401612bc3565b6005546001600160a01b0361010090910416331461377a5760405162461bcd60e51b81526004016115f890615d86565b600c5460405163e98030c760e01b8152600481018390526001600160a01b039091169063e98030c790602401600060405180830381600087803b1580156137c057600080fd5b505af11580156137d4573d6000803e3d6000fd5b5050600d5460405163e98030c760e01b8152600481018590526001600160a01b03909116925063e98030c79150602401611eed565b600d54604080516342d359d760e11b815290516000926001600160a01b0316916385a6b3ae916004808301926020929190829003018186803b1580156117dc57600080fd5b6005546001600160a01b0361010090910416331461387e5760405162461bcd60e51b81526004016115f890615d86565b6001600160a01b0381166138e35760405162461bcd60e51b815260206004820152602660248201527f4f776e61626c653a206e6577206f776e657220697320746865207a65726f206160448201526564647265737360d01b60648201526084016115f8565b6005546040516001600160a01b0380841692610100900416907f8be0079c531659141344cd1fd0a4f28419497f9722a3daafe3b4186f6b6457e090600090a3600580546001600160a01b0390921661010002610100600160a81b0319909216919091179055565b6005546001600160a01b0361010090910416331461397a5760405162461bcd60e51b81526004016115f890615d86565b602355565b60008061398c8385615e1d565b9050838110156139de5760405162461bcd60e51b815260206004820152601b60248201527f536166654d6174683a206164646974696f6e206f766572666c6f77000000000060448201526064016115f8565b9392505050565b613a14600f54613a0e601b54613a0e601954613a0e601e5460205461397f90919063ffffffff16565b9061397f565b602255565b6001600160a01b038316613a3f5760405162461bcd60e51b81526004016115f890615dbb565b6001600160a01b038216613a655760405162461bcd60e51b81526004016115f890615dbb565b6001600160a01b0383811660008181526001602090815260408083209487168084529482529182902085905590518481527f8c5be1e5ebec7d5bd14f71427d1e84f3dd0314c0f7b2291e5b200ac8c7c3b92591015b60405180910390a3505050565b6001600160a01b038316613aed5760405162461bcd60e51b81526004016115f890615dbb565b6001600160a01b038216613b135760405162461bcd60e51b81526004016115f890615dbb565b600b54600160a81b900460ff1680613b6557506001600160a01b03831660009081526025602052604090205460ff1680613b6557506001600160a01b03821660009081526025602052604090205460ff165b613ba75760405162461bcd60e51b8152602060048201526013602482015272151c98591a5b99c81b9bdd081cdd185c9d1959606a1b60448201526064016115f8565b6001600160a01b03831660009081526025602052604081205460ff1680613be657506001600160a01b03831660009081526025602052604090205460ff165b600b54909150600160a81b900460ff168015613c1a57506001600160a01b03841660009081526026602052604090205460ff165b8015613c24575080155b15613c8a57601254821115613c4b5760405162461bcd60e51b81526004016115f890615d41565b6000613c5684612557565b601554909150613c668483615e1d565b1115613c845760405162461bcd60e51b81526004016115f890615d41565b5061410e565b600b54600160a81b900460ff168015613cbb57506001600160a01b03831660009081526026602052604090205460ff165b8015613cc5575080155b1561410e57601354821115613cec5760405162461bcd60e51b81526004016115f890615d41565b6000613cf730612557565b600b54909150600160a01b900460ff16158015613d1657506014548110155b1561406f57600b805460ff60a01b1916600160a01b1790819055600160b01b900460ff168015613d4f5750600b54600160b81b900460ff165b8015613d5d57506000600f54115b8015613d725750600b54600160c01b900460ff165b15613e8d576000613d96600f54613a0e602054601e5461397f90919063ffffffff16565b90506000613db9602254613db38486614adf90919063ffffffff16565b90614b5e565b905047613dc582614bb9565b6000613dd14783614d47565b90508015613e84576000613e046064613db387613db36042613dfe601e5489614adf90919063ffffffff16565b90614adf565b90506000613e2b6064613db388613db36022613dfe601e548a614adf90919063ffffffff16565b601054909150613e44906001600160a01b031683614da3565b601154613e5a906001600160a01b031682614da3565b6000613e7587613db3600f5487614adf90919063ffffffff16565b9050613e8081614dde565b5050505b50505050613fd3565b600b54600160b01b900460ff1615613f32576000613ebc602254613db3601e5485614adf90919063ffffffff16565b905047613ec882614bb9565b6000613ed44783614d47565b90508015613f2e576000613eee6064613db3846042614adf565b90506000613efc8383614d47565b601154909150613f15906001600160a01b031682614da3565b601054613f2b906001600160a01b031683614da3565b50505b5050505b600b54600160b81b900460ff1615613fa157600b54600160c01b900460ff1615613f7e57613f79613f74602254613db360205485614adf90919063ffffffff16565b614bb9565b613fa1565b613fa1613f9c602254613db360205485614adf90919063ffffffff16565b614edb565b600f5415613fd3576000613fc6602254613db3600f5485614adf90919063ffffffff16565b9050613fd181614f62565b505b600b54600160c81b900460ff161561401a576000614002602254613db360195485614adf90919063ffffffff16565b905061401861401382610514614d47565b6150e5565b505b600b54600160d01b900460ff1615614061576000614049602254613db3601b5485614adf90919063ffffffff16565b905061405f61405a82610514614d47565b6152be565b505b600b805460ff60a01b191690555b600b54600160a01b900460ff161580156140925750600b54600160b81b900460ff165b80156140a75750600b54600160c01b900460ff165b1561410c57601754479081108015906140c257506018548410155b1561410a57600b805460ff60a01b1916600160a01b1790556016548111156140e957506016545b6140fc6140f7826064614b5e565b6147f8565b600b805460ff60a01b191690555b505b505b600b54600160a81b900460ff1680156141315750600b54600160a01b900460ff16155b801561413b575080155b156141b657600061415c6064613db360225486614adf90919063ffffffff16565b6001600160a01b03851660009081526026602052604090205490915060ff161561419d5761419a6064613db360235484614adf90919063ffffffff16565b90505b6141a78382614d47565b92506141b48530836153d9565b505b6141c18484846153d9565b600c546001600160a01b031663e30443bc856141dc81612557565b6040516001600160e01b031960e085901b1681526001600160a01b0390921660048301526024820152604401600060405180830381600087803b15801561422257600080fd5b505af1925050508015614233575060015b50600d546001600160a01b031663e30443bc8561424f81612557565b6040516001600160e01b031960e085901b1681526001600160a01b0390921660048301526024820152604401600060405180830381600087803b15801561429557600080fd5b505af19250505080156142a6575060015b50600c546001600160a01b031663e30443bc846142c281612557565b6040516001600160e01b031960e085901b1681526001600160a01b0390921660048301526024820152604401600060405180830381600087803b15801561430857600080fd5b505af1925050508015614319575060015b50600d546001600160a01b031663e30443bc8461433581612557565b6040516001600160e01b031960e085901b1681526001600160a01b0390921660048301526024820152604401600060405180830381600087803b15801561437b57600080fd5b505af192505050801561438c575060015b50600b54600160a01b900460ff161580156143b55750600b546001600160a01b03848116911614155b156147bb57602454601d546143c86154f1565b116145c657600b54600160c81b900460ff1680156143ef5750600b54600160d81b900460ff165b156144c757600c546040516001624d3b8760e01b03198152600481018390526001600160a01b039091169063ffb2c47990602401606060405180830381600087803b15801561443d57600080fd5b505af192505050801561446d575060408051601f3d908101601f1916820190925261446a91810190615c03565b60015b614476576144c7565b60408051848152602081018490529081018290526060810185905232906001907fb58dec3e2b463c9c7350bc4fedf418d1d15b64634c86d5225dfa4e78e578ae669060800160405180910390a35050505b600b54600160d01b900460ff1680156144e95750600b54600160e01b900460ff165b156145c157600d546040516001624d3b8760e01b03198152600481018390526001600160a01b039091169063ffb2c47990602401606060405180830381600087803b15801561453757600080fd5b505af1925050508015614567575060408051601f3d908101601f1916820190925261456491810190615c03565b60015b61457057611f1b565b60408051848152602081018490529081018290526060810185905232906001907fca4f306e136c818900d9c0f1ac0a69487e6ba3f0e817c4fe7abca67a2825eed79060800160405180910390a35050505b611f1b565b600b54600160d01b900460ff1680156145e85750600b54600160e01b900460ff165b156146c057600d546040516001624d3b8760e01b03198152600481018390526001600160a01b039091169063ffb2c47990602401606060405180830381600087803b15801561463657600080fd5b505af1925050508015614666575060408051601f3d908101601f1916820190925261466391810190615c03565b60015b61466f576146c0565b60408051848152602081018490529081018290526060810185905232906001907fca4f306e136c818900d9c0f1ac0a69487e6ba3f0e817c4fe7abca67a2825eed79060800160405180910390a35050505b600b54600160c81b900460ff1680156146e25750600b54600160d81b900460ff165b15611f1b57600c546040516001624d3b8760e01b03198152600481018390526001600160a01b039091169063ffb2c47990602401606060405180830381600087803b15801561473057600080fd5b505af1925050508015614760575060408051601f3d908101601f1916820190925261475d91810190615c03565b60015b61476957611f1b565b60408051848152602081018490529081018290526060810185905232906001907fb58dec3e2b463c9c7350bc4fedf418d1d15b64634c86d5225dfa4e78e578ae669060800160405180910390a3505050505b50505050565b600081848411156147e55760405162461bcd60e51b81526004016115f89190615cc9565b506147f08385615e74565b949350505050565b6040805160028082526060820183526000926020830190803683375050600854604080516315ab88c960e31b815290519394506001600160a01b039091169263ad5c464892506004808301926020929190829003018186803b15801561485d57600080fd5b505afa158015614871573d6000803e3d6000fd5b505050506040513d601f19601f820116820180604052508101906148959190615a46565b816000815181106148b657634e487b7160e01b600052603260045260246000fd5b60200260200101906001600160a01b031690816001600160a01b03168152505030816001815181106148f857634e487b7160e01b600052603260045260246000fd5b6001600160a01b039283166020918202929092010152600854600b549082169163b6f9de959185916000918691166149324261012c61397f565b6040518663ffffffff1660e01b81526004016149519493929190615c94565b6000604051808303818588803b15801561496a57600080fd5b505af115801561497e573d6000803e3d6000fd5b50505050505050565b6005546001600160a01b036101009091041633146149b75760405162461bcd60e51b81526004016115f890615d86565b6001600160a01b0382166000908152602660205260409020805460ff19168215801591909117909155614aa357600c5460405163031e79db60e41b81526001600160a01b038481166004830152909116906331e79db090602401600060405180830381600087803b158015614a2b57600080fd5b505af1158015614a3f573d6000803e3d6000fd5b5050600d5460405163031e79db60e41b81526001600160a01b03868116600483015290911692506331e79db09150602401600060405180830381600087803b158015614a8a57600080fd5b505af1158015614a9e573d6000803e3d6000fd5b505050505b604051811515906001600160a01b038416907fffa9187bf1f18bf477bd0ea1bcbb64e93b6a98132473929edfce215cd9b16fab90600090a35050565b600082614aee5750600061168f565b6000614afa8385615e55565b905082614b078583615e35565b146139de5760405162461bcd60e51b815260206004820152602160248201527f536166654d6174683a206d756c7469706c69636174696f6e206f766572666c6f6044820152607760f81b60648201526084016115f8565b6000808211614baf5760405162461bcd60e51b815260206004820152601a60248201527f536166654d6174683a206469766973696f6e206279207a65726f00000000000060448201526064016115f8565b6139de8284615e35565b6040805160028082526060820183526000926020830190803683370190505090503081600081518110614bfc57634e487b7160e01b600052603260045260246000fd5b6001600160a01b03928316602091820292909201810191909152600854604080516315ab88c960e31b81529051919093169263ad5c4648926004808301939192829003018186803b158015614c5057600080fd5b505afa158015614c64573d6000803e3d6000fd5b505050506040513d601f19601f82011682018060405250810190614c889190615a46565b81600181518110614ca957634e487b7160e01b600052603260045260246000fd5b6001600160a01b039283166020918202929092010152600854614ccf9130911684613a19565b6008546001600160a01b031663791ac9478360008430614cf14261012c61397f565b6040518663ffffffff1660e01b8152600401614d11959493929190615de1565b600060405180830381600087803b158015614d2b57600080fd5b505af1158015614d3f573d6000803e3d6000fd5b505050505050565b600082821115614d995760405162461bcd60e51b815260206004820152601e60248201527f536166654d6174683a207375627472616374696f6e206f766572666c6f77000060448201526064016115f8565b6139de8284615e74565b6040516001600160a01b0383169082156108fc029083906000818181858888f19350505050158015614dd9573d6000803e3d6000fd5b505050565b6040805160028082526060820183526000926020830190803683375050600854604080516315ab88c960e31b815290519394506001600160a01b039091169263ad5c464892506004808301926020929190829003018186803b158015614e4357600080fd5b505afa158015614e57573d6000803e3d6000fd5b505050506040513d601f19601f82011682018060405250810190614e7b9190615a46565b81600081518110614e9c57634e487b7160e01b600052603260045260246000fd5b6001600160a01b039283166020918202929092010152600e548251911690829060019081106148f857634e487b7160e01b600052603260045260246000fd5b6000614ee8826002614b5e565b90506000614ef68383614d47565b905047614f0283614bb9565b6000614f0e4783614d47565b9050614f1a8382615612565b60408051858152602081018390529081018490527f17bbfb9a6069321b6ded73bd96327c9e6b7212a5cd51ff219cd61370acafb5619060600160405180910390a15050505050565b60408051600380825260808201909252600091602082016060803683370190505090503081600081518110614fa757634e487b7160e01b600052603260045260246000fd5b6001600160a01b03928316602091820292909201810191909152600854604080516315ab88c960e31b81529051919093169263ad5c4648926004808301939192829003018186803b158015614ffb57600080fd5b505afa15801561500f573d6000803e3d6000fd5b505050506040513d601f19601f820116820180604052508101906150339190615a46565b8160018151811061505457634e487b7160e01b600052603260045260246000fd5b6001600160a01b039283166020918202929092010152600e5482519116908290600290811061509357634e487b7160e01b600052603260045260246000fd5b6001600160a01b0392831660209182029290920101526008546150b99130911684613a19565b600854600b546001600160a01b0391821691635c11d795918591600091869116614cf14261012c61397f565b600954600c546040516370a0823160e01b81526001600160a01b03918216600482015260009291909116906370a082319060240160206040518083038186803b15801561513157600080fd5b505afa158015615145573d6000803e3d6000fd5b505050506040513d601f19601f820116820180604052508101906151699190615beb565b600c5460095491925061518a9184916001600160a01b0390811691166156fb565b600954600c546040516370a0823160e01b81526001600160a01b0391821660048201526000926152199285929116906370a08231906024015b60206040518083038186803b1580156151db57600080fd5b505afa1580156151ef573d6000803e3d6000fd5b505050506040513d601f19601f820116820180604052508101906152139190615beb565b90614d47565b90508015614dd957600c54604051633243c79160e01b8152600481018390526001600160a01b0390911690633243c791906024015b600060405180830381600087803b15801561526857600080fd5b505af115801561527c573d6000803e3d6000fd5b505050507fb0cc2628d6d644cf6be9d8110e142297ac910d6d8026d795a99f272fd9ad60b1816040516152b191815260200190565b60405180910390a1505050565b600a54600d546040516370a0823160e01b81526001600160a01b03918216600482015260009291909116906370a082319060240160206040518083038186803b15801561530a57600080fd5b505afa15801561531e573d6000803e3d6000fd5b505050506040513d601f19601f820116820180604052508101906153429190615beb565b600d54600a549192506153639184916001600160a01b0390811691166156fb565b600a54600d546040516370a0823160e01b81526001600160a01b0391821660048201526000926153a09285929116906370a08231906024016151c3565b90508015614dd957600d54604051633243c79160e01b8152600481018390526001600160a01b0390911690633243c7919060240161524e565b6001600160a01b0383166153ff5760405162461bcd60e51b81526004016115f890615dbb565b6001600160a01b0382166154255760405162461bcd60e51b81526004016115f890615dbb565b604080518082018252600f81526e657863656564732062616c616e636560881b6020808301919091526001600160a01b03861660009081529081905291909120546154719183906147c1565b6001600160a01b0380851660009081526020819052604080822093909355908416815220546154a0908261397f565b6001600160a01b038381166000818152602081815260409182902094909455518481529092918616917fddf252ad1be2c89b69c2b068fc378daa952ba7f163c4a11628f55a4df523b3ef9101613aba565b6040516bffffffffffffffffffffffff193360601b1660208201526000908190439042906034016040516020818303038152906040528051906020012060001c61553b9190615e35565b6040516bffffffffffffffffffffffff194160601b166020820152459042906034016040516020818303038152906040528051906020012060001c6155809190615e35565b61558a4442615e1d565b6155949190615e1d565b61559e9190615e1d565b6155a89190615e1d565b6155b29190615e1d565b6040516020016155c491815260200190565b60408051601f198184030181529190528051602090910120905060006155eb606483615e35565b6155f6906064615e55565b6156009083615e74565b90508061168f576139de600182615e1d565b60085461562a9030906001600160a01b031684613a19565b6008546011546001600160a01b039182169163f305d7199184913091879160009182911661565a4261012c61397f565b60405160e089901b6001600160e01b03191681526001600160a01b039687166004820152602481019590955260448501939093526064840191909152909216608482015260a481019190915260c4016060604051808303818588803b1580156156c257600080fd5b505af11580156156d6573d6000803e3d6000fd5b50505050506040513d601f19601f82011682018060405250810190611f1b9190615c03565b6060816001600160a01b0316600860009054906101000a90046001600160a01b03166001600160a01b031663ad5c46486040518163ffffffff1660e01b815260040160206040518083038186803b15801561575557600080fd5b505afa158015615769573d6000803e3d6000fd5b505050506040513d601f19601f8201168201806040525081019061578d9190615a46565b6001600160a01b0316141561584557604080516002808252606082018352909160208301908036833701905050905030816000815181106157de57634e487b7160e01b600052603260045260246000fd5b60200260200101906001600160a01b031690816001600160a01b031681525050818160018151811061582057634e487b7160e01b600052603260045260246000fd5b60200260200101906001600160a01b031690816001600160a01b031681525050615998565b604080516003808252608082019092529060208201606080368337019050509050308160008151811061588857634e487b7160e01b600052603260045260246000fd5b6001600160a01b03928316602091820292909201810191909152600854604080516315ab88c960e31b81529051919093169263ad5c4648926004808301939192829003018186803b1580156158dc57600080fd5b505afa1580156158f0573d6000803e3d6000fd5b505050506040513d601f19601f820116820180604052508101906159149190615a46565b8160018151811061593557634e487b7160e01b600052603260045260246000fd5b60200260200101906001600160a01b031690816001600160a01b031681525050818160028151811061597757634e487b7160e01b600052603260045260246000fd5b60200260200101906001600160a01b031690816001600160a01b0316815250505b6008546159b09030906001600160a01b031686613a19565b6008546001600160a01b0316635c11d79585600084876159d24261012c61397f565b6040518663ffffffff1660e01b81526004016159f2959493929190615de1565b600060405180830381600087803b158015615a0c57600080fd5b505af1158015615a20573d6000803e3d6000fd5b5050505050505050565b600060208284031215615a3b578081fd5b81356139de81615edc565b600060208284031215615a57578081fd5b81516139de81615edc565b60008060408385031215615a74578081fd5b8235615a7f81615edc565b91506020830135615a8f81615edc565b809150509250929050565b600080600060608486031215615aae578081fd5b8335615ab981615edc565b92506020840135615ac981615edc565b929592945050506040919091013590565b60008060408385031215615aec578182fd5b8235615af781615edc565b91506020830135615a8f81615ef1565b600080600080600080600080610100898b031215615b23578384fd5b8851615b2e81615edc565b809850506020890151965060408901519550606089015194506080890151935060a0890151925060c0890151915060e089015190509295985092959890939650565b60008060408385031215615b82578182fd5b8235615b8d81615edc565b946020939093013593505050565b600060208284031215615bac578081fd5b81356139de81615ef1565b600060208284031215615bc8578081fd5b81516139de81615ef1565b600060208284031215615be4578081fd5b5035919050565b600060208284031215615bfc578081fd5b5051919050565b600080600060608486031215615c17578283fd5b8351925060208401519150604084015190509250925092565b600060208284031215615c41578081fd5b813560ff811681146139de578182fd5b6000815180845260208085019450808401835b83811015615c895781516001600160a01b031687529582019590820190600101615c64565b509495945050505050565b848152608060208201526000615cad6080830186615c51565b6001600160a01b03949094166040830152506060015292915050565b6000602080835283518082850152825b81811015615cf557858101830151858201604001528201615cd9565b81811115615d065783604083870101525b50601f01601f1916929092016040019392505050565b6020808252600b908201526a139bdd0818da185b99d95960aa1b604082015260600190565b6020808252600c908201526b115c9c9bdc88185b5bdd5b9d60a21b604082015260600190565b60208082526005908201526477726f6e6760d81b604082015260600190565b6020808252818101527f4f776e61626c653a2063616c6c6572206973206e6f7420746865206f776e6572604082015260600190565b6020808252600c908201526b7a65726f206164647265737360a01b604082015260600190565b85815284602082015260a060408201526000615e0060a0830186615c51565b6001600160a01b0394909416606083015250608001529392505050565b60008219821115615e3057615e30615ec6565b500190565b600082615e5057634e487b7160e01b81526012600452602481fd5b500490565b6000816000190483118215151615615e6f57615e6f615ec6565b500290565b600082821015615e8657615e86615ec6565b500390565b600181811c90821680615e9f57607f821691505b60208210811415615ec057634e487b7160e01b600052602260045260246000fd5b50919050565b634e487b7160e01b600052601160045260246000fd5b6001600160a01b038116811461187c57600080fd5b801515811461187c57600080fdfe45524332303a207472616e7366657220616d6f756e74206578636565647320616c6c6f77616e636545524332303a2064656372656173656420616c6c6f77616e63652062656c6f77207a65726fa2646970667358221220869342e1d1094874e92b5c5dc51b63abf0b38f8cbdb94f395631f296c9f9280564736f6c634300080400336080604052600880546001600160a01b031916738ca23dea974781c94d961950230fb1ffdb61bb601790556000600b553480156200003c57600080fd5b506040518060400160405280601681526020017f41444138305f4469766964656e645f547261636b6572000000000000000000008152506040518060400160405280601681526020017f41444138305f4469766964656e645f547261636b657200000000000000000000815250733ee2200efb3400fabb9aacf31297cbdd1d435d4782828160039080519060200190620000d892919062000194565b508051620000ee90600490602084019062000194565b50506005805460ff1916601217905550600a80546001600160a01b039092166001600160a01b031990921691909117905550600090506200012c3390565b600f80546001600160a01b0319166001600160a01b038316908117909155604051919250906000907f8be0079c531659141344cd1fd0a4f28419497f9722a3daafe3b4186f6b6457e0908290a350610e10601955692a5a058fc295ed000000601a5562000277565b828054620001a2906200023a565b90600052602060002090601f016020900481019282620001c6576000855562000211565b82601f10620001e157805160ff191683800117855562000211565b8280016001018555821562000211579182015b8281111562000211578251825591602001919060010190620001f4565b506200021f92915062000223565b5090565b5b808211156200021f576000815560010162000224565b600181811c908216806200024f57607f821691505b602082108114156200027157634e487b7160e01b600052602260045260246000fd5b50919050565b61220b80620002876000396000f3fe6080604052600436106102605760003560e01c806385552f6011610144578063be10b614116100b6578063e7841ec01161007a578063e7841ec014610796578063e98030c7146107ab578063f2fde38b146107cb578063fbcbc0f1146107eb578063fc6f94681461080b578063ffb2c4791461082b57600080fd5b8063be10b614146106da578063d64039ae146106f0578063dd46706414610710578063dd62ed3e14610730578063e30443bc1461077657600080fd5b8063a457c2d711610108578063a457c2d714610604578063a8b9d24014610624578063a9059cbb14610644578063aafd847a14610664578063bc4c4b371461069a578063bd0a2381146106ba57600080fd5b806385552f601461058557806385a6b3ae1461059b5780638da5cb5b146105b157806391b89fba146105cf57806395d89b41146105ef57600080fd5b8063313ce567116101dd5780635183d6fd116101a15780635183d6fd1461048a5780636a474002146104ef5780636f2789ec1461050457806370a082311461051a578063715018a6146105505780637e3e7fd21461056557600080fd5b8063313ce567146103d857806331e79db0146103fa5780633243c7911461041a578063395093511461043a5780634e7b827f1461045a57600080fd5b806318160ddd1161022457806318160ddd14610340578063226cfa3d1461035557806323b872dd1461038257806327ce0147146103a25780633009a609146103c257600080fd5b806306fdde031461026c578063095ea7b31461029757806309bbedde146102c75780630dcb2e89146102e65780631582358e1461030857600080fd5b3661026757005b600080fd5b34801561027857600080fd5b50610281610866565b60405161028e9190611f5d565b60405180910390f35b3480156102a357600080fd5b506102b76102b2366004611e79565b6108f8565b604051901515815260200161028e565b3480156102d357600080fd5b506012545b60405190815260200161028e565b3480156102f257600080fd5b50610306610301366004611f45565b61090f565b005b34801561031457600080fd5b50600a54610328906001600160a01b031681565b6040516001600160a01b03909116815260200161028e565b34801561034c57600080fd5b506002546102d8565b34801561036157600080fd5b506102d8610370366004611e09565b60186020526000908152604090205481565b34801561038e57600080fd5b506102b761039d366004611ed1565b61095a565b3480156103ae57600080fd5b506102d86103bd366004611e09565b6109c3565b3480156103ce57600080fd5b506102d860165481565b3480156103e457600080fd5b5060055460405160ff909116815260200161028e565b34801561040657600080fd5b50610306610415366004611e09565b610a1f565b34801561042657600080fd5b50610306610435366004611f45565b610b20565b34801561044657600080fd5b506102b7610455366004611e79565b610bfc565b34801561046657600080fd5b506102b7610475366004611e09565b60176020526000908152604090205460ff1681565b34801561049657600080fd5b506104aa6104a5366004611f45565b610c32565b604080516001600160a01b0390991689526020890197909752958701949094526060860192909252608085015260a084015260c083015260e08201526101000161028e565b3480156104fb57600080fd5b50610306610da4565b34801561051057600080fd5b506102d860195481565b34801561052657600080fd5b506102d8610535366004611e09565b6001600160a01b031660009081526020819052604090205490565b34801561055c57600080fd5b50610306610dd7565b34801561057157600080fd5b50610306610580366004611e09565b610e4b565b34801561059157600080fd5b506102d8600b5481565b3480156105a757600080fd5b506102d8600e5481565b3480156105bd57600080fd5b50600f546001600160a01b0316610328565b3480156105db57600080fd5b506102d86105ea366004611e09565b610e97565b3480156105fb57600080fd5b50610281610ea2565b34801561061057600080fd5b506102b761061f366004611e79565b610eb1565b34801561063057600080fd5b506102d861063f366004611e09565b610f00565b34801561065057600080fd5b506102b761065f366004611e79565b610f2c565b34801561067057600080fd5b506102d861067f366004611e09565b6001600160a01b03166000908152600d602052604090205490565b3480156106a657600080fd5b506102b76106b5366004611e41565b610f39565b3480156106c657600080fd5b506103066106d5366004611f45565b610fe7565b3480156106e657600080fd5b506102d8601a5481565b3480156106fc57600080fd5b5061030661070b366004611e09565b611033565b34801561071c57600080fd5b5061030661072b366004611f45565b61109c565b34801561073c57600080fd5b506102d861074b366004611ea4565b6001600160a01b03918216600090815260016020908152604080832093909416825291909152205490565b34801561078257600080fd5b50610306610791366004611e79565b611133565b3480156107a257600080fd5b506016546102d8565b3480156107b757600080fd5b506103066107c6366004611f45565b6112a1565b3480156107d757600080fd5b506103066107e6366004611e09565b611318565b3480156107f757600080fd5b506104aa610806366004611e09565b611403565b34801561081757600080fd5b50600854610328906001600160a01b031681565b34801561083757600080fd5b5061084b610846366004611f45565b61157b565b6040805193845260208401929092529082015260600161028e565b606060038054610875906120f9565b80601f01602080910402602001604051908101604052809291908181526020018280546108a1906120f9565b80156108ee5780601f106108c3576101008083540402835291602001916108ee565b820191906000526020600020905b8154815290600101906020018083116108d157829003601f168201915b5050505050905090565b60006109053384846116a4565b5060015b92915050565b600f546001600160a01b031633146109425760405162461bcd60e51b815260040161093990611fb0565b60405180910390fd5b61095481670de0b6b3a7640000612084565b601a5550565b6000610967848484611751565b6109b984336109b485604051806060016040528060288152602001612189602891396001600160a01b038a1660009081526001602090815260408083203384529091529020549190611786565b6116a4565b5060019392505050565b6001600160a01b0381166000908152600c602090815260408083205491839052822054600654600160801b92610a1592610a1092610a0a91610a0591906117bd565b611843565b90611853565b611891565b6109099190612064565b600f546001600160a01b03163314610a495760405162461bcd60e51b815260040161093990611fb0565b6001600160a01b0381166000908152601760205260408120805460ff19166001179055610a779082906118a4565b60405163131836e760e21b8152601260048201526001600160a01b0382166024820152735524a23642cbf77c059fede311a9e5504ee7eea790634c60db9c9060440160006040518083038186803b158015610ad157600080fd5b505af4158015610ae5573d6000803e3d6000fd5b50506040516001600160a01b03841692507fa878b31040b2e6d0a9a3d3361209db3908ba62014b0dca52adbaee451d128b259150600090a250565b6009546001600160a01b03163314610b685760405162461bcd60e51b815260206004820152600b60248201526a27b7363c9031b0b63632b960a91b6044820152606401610939565b6000610b7360025490565b11610b7d57600080fd5b8015610bf957610bb0610b8f60025490565b610b9d83600160801b6117bd565b610ba79190612064565b60065490611903565b60065560405181815233907fa493a9229478c3fcd73f66d2cdeb7f94fd0f341da924d1054236d784541165119060200160405180910390a2600e54610bf59082611903565b600e555b50565b3360008181526001602090815260408083206001600160a01b038716845290915281205490916109059185906109b49086611903565b6000806000806000806000806012735524a23642cbf77c059fede311a9e5504ee7eea763deb3d89690916040518263ffffffff1660e01b8152600401610c7a91815260200190565b60206040518083038186803b158015610c9257600080fd5b505af4158015610ca6573d6000803e3d6000fd5b505050506040513d601f19601f82011682018060405250810190610cca9190611f2d565b8910610cef575060009650600019955085945086935083925082915081905080610d99565b6040516368d54f3f60e11b815260126004820152602481018a9052600090735524a23642cbf77c059fede311a9e5504ee7eea79063d1aa9e7e9060440160206040518083038186803b158015610d4457600080fd5b505af4158015610d58573d6000803e3d6000fd5b505050506040513d601f19601f82011682018060405250810190610d7c9190611e25565b9050610d8781611403565b98509850985098509850985098509850505b919395975091939597565b60405162461bcd60e51b8152602060048201526008602482015267191a5cd8589b195960c21b6044820152606401610939565b600f546001600160a01b03163314610e015760405162461bcd60e51b815260040161093990611fb0565b600f546040516000916001600160a01b0316907f8be0079c531659141344cd1fd0a4f28419497f9722a3daafe3b4186f6b6457e0908390a3600f80546001600160a01b0319169055565b600f546001600160a01b03163314610e755760405162461bcd60e51b815260040161093990611fb0565b600a80546001600160a01b0319166001600160a01b0392909216919091179055565b600061090982610f00565b606060048054610875906120f9565b600061090533846109b4856040518060600160405280602581526020016121b1602591393360009081526001602090815260408083206001600160a01b038d1684529091529020549190611786565b6001600160a01b0381166000908152600d602052604081205461090990610f26846109c3565b90611962565b6000610905338484611751565b600f546000906001600160a01b03163314610f665760405162461bcd60e51b815260040161093990611fb0565b6000610f71846119be565b90508015610fdd576001600160a01b038416600081815260186020526040908190204290555184151591907fa2c38e2d2fb7e3e1912d937fd1ca11ed6d51864dee4cfa7a7bf02becd7acf09290610fcb9085815260200190565b60405180910390a36001915050610909565b5060009392505050565b6008546001600160a01b0316321461102e5760405162461bcd60e51b815260206004820152600a60248201526927b7363c9030b236b4b760b11b6044820152606401610939565b600b55565b6008546001600160a01b0316321461107a5760405162461bcd60e51b815260206004820152600a60248201526927b7363c9030b236b4b760b11b6044820152606401610939565b600980546001600160a01b0319166001600160a01b0392909216919091179055565b600f546001600160a01b031633146110c65760405162461bcd60e51b815260040161093990611fb0565b600f8054601080546001600160a01b03199081166001600160a01b038416179091551690556110f5814261204c565b601155600f546040516000916001600160a01b0316907f8be0079c531659141344cd1fd0a4f28419497f9722a3daafe3b4186f6b6457e0908390a350565b600f546001600160a01b0316331461115d5760405162461bcd60e51b815260040161093990611fb0565b6001600160a01b03821660009081526017602052604090205460ff1615611182575050565b601a5481106112135761119582826118a4565b604051632f0ad01760e21b8152601260048201526001600160a01b038316602482015260448101829052735524a23642cbf77c059fede311a9e5504ee7eea79063bc2b405c9060640160006040518083038186803b1580156111f657600080fd5b505af415801561120a573d6000803e3d6000fd5b50505050611291565b61121e8260006118a4565b60405163131836e760e21b8152601260048201526001600160a01b0383166024820152735524a23642cbf77c059fede311a9e5504ee7eea790634c60db9c9060440160006040518083038186803b15801561127857600080fd5b505af415801561128c573d6000803e3d6000fd5b505050505b61129c826001610f39565b505050565b600f546001600160a01b031633146112cb5760405162461bcd60e51b815260040161093990611fb0565b603c81101580156112df5750620151808111155b6113135760405162461bcd60e51b815260206004820152600560248201526477726f6e6760d81b6044820152606401610939565b601955565b600f546001600160a01b031633146113425760405162461bcd60e51b815260040161093990611fb0565b6001600160a01b0381166113a75760405162461bcd60e51b815260206004820152602660248201527f4f776e61626c653a206e6577206f776e657220697320746865207a65726f206160448201526564647265737360d01b6064820152608401610939565b600f546040516001600160a01b038084169216907f8be0079c531659141344cd1fd0a4f28419497f9722a3daafe3b4186f6b6457e090600090a3600f80546001600160a01b0319166001600160a01b0392909216919091179055565b6040516317e142d160e01b8152601260048201526001600160a01b03821660248201528190600090819081908190819081908190735524a23642cbf77c059fede311a9e5504ee7eea7906317e142d19060440160206040518083038186803b15801561146e57600080fd5b505af4158015611482573d6000803e3d6000fd5b505050506040513d601f19601f820116820180604052508101906114a69190611f2d565b9650600019955060008712611508576016548711156114d4576016546114cd908890611b36565b9550611508565b601654601254600091106114e95760006114f8565b6016546012546114f891611962565b90506115048882611853565b9650505b61151188610f00565b945061151c886109c3565b6001600160a01b038916600090815260186020526040902054909450925082611546576000611554565b601954611554908490611903565b915042821161156457600061156e565b61156e8242611962565b9050919395975091939597565b601254600090819081908061159b5750506016546000925082915061169d565b6016546000805a90506000805b89841080156115b657508582105b1561168c57846115c581612134565b601254909650861090506115d857600094505b6000601260000186815481106115fe57634e487b7160e01b600052603260045260246000fd5b60009182526020808320909101546001600160a01b0316808352601890915260409091205490915061162f90611b82565b156116525761163f816001610f39565b15611652578161164e81612134565b9250505b8261165c81612134565b93505060005a905080851115611683576116806116798683611962565b8790611903565b95505b93506115a89050565b601685905590975095509193505050505b9193909250565b6001600160a01b0383166116ca5760405162461bcd60e51b815260040161093990611fe5565b6001600160a01b0382166116f05760405162461bcd60e51b815260040161093990611fe5565b6001600160a01b0383811660008181526001602090815260408083209487168084529482529182902085905590518481527f8c5be1e5ebec7d5bd14f71427d1e84f3dd0314c0f7b2291e5b200ac8c7c3b925910160405180910390a3505050565b60405162461bcd60e51b815260206004820152600a602482015269139bc8185b1b1bddd95960b21b6044820152606401610939565b600081848411156117aa5760405162461bcd60e51b81526004016109399190611f5d565b506117b583856120e2565b949350505050565b6000826117cc57506000610909565b60006117d88385612084565b9050826117e58583612064565b1461183c5760405162461bcd60e51b815260206004820152602160248201527f536166654d6174683a206d756c7469706c69636174696f6e206f766572666c6f6044820152607760f81b6064820152608401610939565b9392505050565b6000818181121561090957600080fd5b600080611860838561200b565b9050600083121580156118735750838112155b80611888575060008312801561188857508381125b61183c57600080fd5b6000808212156118a057600080fd5b5090565b6001600160a01b038216600090815260208190526040902054808211156118e35760006118d18383611962565b90506118dd8482611ba9565b50505050565b8082101561129c5760006118f78284611962565b90506118dd8482611c0d565b600080611910838561204c565b90508381101561183c5760405162461bcd60e51b815260206004820152601b60248201527f536166654d6174683a206164646974696f6e206f766572666c6f7700000000006044820152606401610939565b6000828211156119b45760405162461bcd60e51b815260206004820152601e60248201527f536166654d6174683a207375627472616374696f6e206f766572666c6f7700006044820152606401610939565b61183c82846120e2565b6000806119ca83610f00565b9050600b54811115611b2d576001600160a01b0383166000908152600d60205260409020546119f99082611903565b6001600160a01b0384166000818152600d6020526040908190209290925590517fee503bee2bb6a87e57bc57db795f98137327401a0e7b7ce42e37926cc1a9ca4d90611a489084815260200190565b60405180910390a2600a5460405163a9059cbb60e01b81526001600160a01b03858116600483015260248201849052600092169063a9059cbb90604401602060405180830381600087803b158015611a9f57600080fd5b505af1158015611ab3573d6000803e3d6000fd5b505050506040513d601f19601f82011682018060405250810190611ad79190611f11565b905080611b26576001600160a01b0384166000908152600d6020526040902054611b019083611962565b6001600160a01b039094166000908152600d6020526040812094909455509192915050565b5092915050565b50600092915050565b6000808212158015611b51575082611b4e83826120a3565b13155b80611b6f5750600082128015611b6f575082611b6d83826120a3565b135b611b7857600080fd5b61183c82846120a3565b600042821115611b9457506000919050565b601954611ba14284611962565b101592915050565b611bb38282611c51565b611bed611bce610a05836006546117bd90919063ffffffff16565b6001600160a01b0384166000908152600c602052604090205490611b36565b6001600160a01b039092166000908152600c602052604090209190915550565b611c178282611d30565b611bed611c32610a05836006546117bd90919063ffffffff16565b6001600160a01b0384166000908152600c602052604090205490611853565b6001600160a01b038216611ca75760405162461bcd60e51b815260206004820152601f60248201527f45524332303a206d696e7420746f20746865207a65726f2061646472657373006044820152606401610939565b600254611cb49082611903565b6002556001600160a01b038216600090815260208190526040902054611cda9082611903565b6001600160a01b038316600081815260208181526040808320949094559251848152919290917fddf252ad1be2c89b69c2b068fc378daa952ba7f163c4a11628f55a4df523b3ef91015b60405180910390a35050565b6001600160a01b038216611d565760405162461bcd60e51b815260040161093990611fe5565b604080518082018252600f81526e657863656564732062616c616e636560881b6020808301919091526001600160a01b0385166000908152908190529190912054611da2918390611786565b6001600160a01b038316600090815260208190526040902055600254611dc89082611962565b6002556040518181526000906001600160a01b038416907fddf252ad1be2c89b69c2b068fc378daa952ba7f163c4a11628f55a4df523b3ef90602001611d24565b600060208284031215611e1a578081fd5b813561183c81612165565b600060208284031215611e36578081fd5b815161183c81612165565b60008060408385031215611e53578081fd5b8235611e5e81612165565b91506020830135611e6e8161217a565b809150509250929050565b60008060408385031215611e8b578182fd5b8235611e9681612165565b946020939093013593505050565b60008060408385031215611eb6578182fd5b8235611ec181612165565b91506020830135611e6e81612165565b600080600060608486031215611ee5578081fd5b8335611ef081612165565b92506020840135611f0081612165565b929592945050506040919091013590565b600060208284031215611f22578081fd5b815161183c8161217a565b600060208284031215611f3e578081fd5b5051919050565b600060208284031215611f56578081fd5b5035919050565b6000602080835283518082850152825b81811015611f8957858101830151858201604001528201611f6d565b81811115611f9a5783604083870101525b50601f01601f1916929092016040019392505050565b6020808252818101527f4f776e61626c653a2063616c6c6572206973206e6f7420746865206f776e6572604082015260600190565b6020808252600c908201526b7a65726f206164647265737360a01b604082015260600190565b600080821280156001600160ff1b038490038513161561202d5761202d61214f565b600160ff1b83900384128116156120465761204661214f565b50500190565b6000821982111561205f5761205f61214f565b500190565b60008261207f57634e487b7160e01b81526012600452602481fd5b500490565b600081600019048311821515161561209e5761209e61214f565b500290565b60008083128015600160ff1b8501841216156120c1576120c161214f565b6001600160ff1b03840183138116156120dc576120dc61214f565b50500390565b6000828210156120f4576120f461214f565b500390565b600181811c9082168061210d57607f821691505b6020821081141561212e57634e487b7160e01b600052602260045260246000fd5b50919050565b60006000198214156121485761214861214f565b5060010190565b634e487b7160e01b600052601160045260246000fd5b6001600160a01b0381168114610bf957600080fd5b8015158114610bf957600080fdfe45524332303a207472616e7366657220616d6f756e74206578636565647320616c6c6f77616e636545524332303a2064656372656173656420616c6c6f77616e63652062656c6f77207a65726fa26469706673582212205519398b8ecbf8b2a1cbbaf07b96591c43fd105cdec37ab4dc003aae27a24b2564736f6c634300080400336080604052600880546001600160a01b031916738ca23dea974781c94d961950230fb1ffdb61bb601790556000600b553480156200003c57600080fd5b506040518060400160405280601681526020017f41444132305f4469766964656e645f547261636b6572000000000000000000008152506040518060400160405280601681526020017f41444132305f4469766964656e645f547261636b65720000000000000000000081525073580de58c1bd593a43dadcf0a739d504621817c0582828160039080519060200190620000d892919062000194565b508051620000ee90600490602084019062000194565b50506005805460ff1916601217905550600a80546001600160a01b039092166001600160a01b031990921691909117905550600090506200012c3390565b600f80546001600160a01b0319166001600160a01b038316908117909155604051919250906000907f8be0079c531659141344cd1fd0a4f28419497f9722a3daafe3b4186f6b6457e0908290a350610e10601955692a5a058fc295ed000000601a5562000277565b828054620001a2906200023a565b90600052602060002090601f016020900481019282620001c6576000855562000211565b82601f10620001e157805160ff191683800117855562000211565b8280016001018555821562000211579182015b8281111562000211578251825591602001919060010190620001f4565b506200021f92915062000223565b5090565b5b808211156200021f576000815560010162000224565b600181811c908216806200024f57607f821691505b602082108114156200027157634e487b7160e01b600052602260045260246000fd5b50919050565b61224680620002876000396000f3fe6080604052600436106102605760003560e01c806385552f6011610144578063be10b614116100b6578063e7841ec01161007a578063e7841ec014610796578063e98030c7146107ab578063f2fde38b146107cb578063fbcbc0f1146107eb578063fc6f94681461080b578063ffb2c4791461082b57600080fd5b8063be10b614146106da578063d64039ae146106f0578063dd46706414610710578063dd62ed3e14610730578063e30443bc1461077657600080fd5b8063a457c2d711610108578063a457c2d714610604578063a8b9d24014610624578063a9059cbb14610644578063aafd847a14610664578063bc4c4b371461069a578063bd0a2381146106ba57600080fd5b806385552f601461058557806385a6b3ae1461059b5780638da5cb5b146105b157806391b89fba146105cf57806395d89b41146105ef57600080fd5b8063313ce567116101dd5780635183d6fd116101a15780635183d6fd1461048a5780636a474002146104ef5780636f2789ec1461050457806370a082311461051a578063715018a6146105505780637e3e7fd21461056557600080fd5b8063313ce567146103d857806331e79db0146103fa5780633243c7911461041a578063395093511461043a5780634e7b827f1461045a57600080fd5b806318160ddd1161022457806318160ddd14610340578063226cfa3d1461035557806323b872dd1461038257806327ce0147146103a25780633009a609146103c257600080fd5b806306fdde031461026c578063095ea7b31461029757806309bbedde146102c75780630dcb2e89146102e65780631582358e1461030857600080fd5b3661026757005b600080fd5b34801561027857600080fd5b50610281610866565b60405161028e9190611f98565b60405180910390f35b3480156102a357600080fd5b506102b76102b2366004611eb4565b6108f8565b604051901515815260200161028e565b3480156102d357600080fd5b506012545b60405190815260200161028e565b3480156102f257600080fd5b50610306610301366004611f80565b61090f565b005b34801561031457600080fd5b50600a54610328906001600160a01b031681565b6040516001600160a01b03909116815260200161028e565b34801561034c57600080fd5b506002546102d8565b34801561036157600080fd5b506102d8610370366004611e44565b60186020526000908152604090205481565b34801561038e57600080fd5b506102b761039d366004611f0c565b61095a565b3480156103ae57600080fd5b506102d86103bd366004611e44565b6109c3565b3480156103ce57600080fd5b506102d860165481565b3480156103e457600080fd5b5060055460405160ff909116815260200161028e565b34801561040657600080fd5b50610306610415366004611e44565b610a1f565b34801561042657600080fd5b50610306610435366004611f80565b610b46565b34801561044657600080fd5b506102b7610455366004611eb4565b610c22565b34801561046657600080fd5b506102b7610475366004611e44565b60176020526000908152604090205460ff1681565b34801561049657600080fd5b506104aa6104a5366004611f80565b610c58565b604080516001600160a01b0390991689526020890197909752958701949094526060860192909252608085015260a084015260c083015260e08201526101000161028e565b3480156104fb57600080fd5b50610306610dca565b34801561051057600080fd5b506102d860195481565b34801561052657600080fd5b506102d8610535366004611e44565b6001600160a01b031660009081526020819052604090205490565b34801561055c57600080fd5b50610306610e12565b34801561057157600080fd5b50610306610580366004611e44565b610e86565b34801561059157600080fd5b506102d8600b5481565b3480156105a757600080fd5b506102d8600e5481565b3480156105bd57600080fd5b50600f546001600160a01b0316610328565b3480156105db57600080fd5b506102d86105ea366004611e44565b610ed2565b3480156105fb57600080fd5b50610281610edd565b34801561061057600080fd5b506102b761061f366004611eb4565b610eec565b34801561063057600080fd5b506102d861063f366004611e44565b610f3b565b34801561065057600080fd5b506102b761065f366004611eb4565b610f67565b34801561067057600080fd5b506102d861067f366004611e44565b6001600160a01b03166000908152600d602052604090205490565b3480156106a657600080fd5b506102b76106b5366004611e7c565b610f74565b3480156106c657600080fd5b506103066106d5366004611f80565b611022565b3480156106e657600080fd5b506102d8601a5481565b3480156106fc57600080fd5b5061030661070b366004611e44565b61106e565b34801561071c57600080fd5b5061030661072b366004611f80565b6110d7565b34801561073c57600080fd5b506102d861074b366004611edf565b6001600160a01b03918216600090815260016020908152604080832093909416825291909152205490565b34801561078257600080fd5b50610306610791366004611eb4565b61116e565b3480156107a257600080fd5b506016546102d8565b3480156107b757600080fd5b506103066107c6366004611f80565b6112dc565b3480156107d757600080fd5b506103066107e6366004611e44565b611353565b3480156107f757600080fd5b506104aa610806366004611e44565b61143e565b34801561081757600080fd5b50600854610328906001600160a01b031681565b34801561083757600080fd5b5061084b610846366004611f80565b6115b6565b6040805193845260208401929092529082015260600161028e565b60606003805461087590612134565b80601f01602080910402602001604051908101604052809291908181526020018280546108a190612134565b80156108ee5780601f106108c3576101008083540402835291602001916108ee565b820191906000526020600020905b8154815290600101906020018083116108d157829003601f168201915b5050505050905090565b60006109053384846116df565b5060015b92915050565b600f546001600160a01b031633146109425760405162461bcd60e51b815260040161093990611feb565b60405180910390fd5b61095481670de0b6b3a76400006120bf565b601a5550565b600061096784848461178c565b6109b984336109b4856040518060600160405280602881526020016121c4602891396001600160a01b038a16600090815260016020908152604080832033845290915290205491906117c1565b6116df565b5060019392505050565b6001600160a01b0381166000908152600c602090815260408083205491839052822054600654600160801b92610a1592610a1092610a0a91610a0591906117f8565b61187e565b9061188e565b6118cc565b610909919061209f565b600f546001600160a01b03163314610a495760405162461bcd60e51b815260040161093990611feb565b6001600160a01b03811660009081526017602052604090205460ff1615610a6f57600080fd5b6001600160a01b0381166000908152601760205260408120805460ff19166001179055610a9d9082906118df565b60405163131836e760e21b8152601260048201526001600160a01b0382166024820152735524a23642cbf77c059fede311a9e5504ee7eea790634c60db9c9060440160006040518083038186803b158015610af757600080fd5b505af4158015610b0b573d6000803e3d6000fd5b50506040516001600160a01b03841692507fa878b31040b2e6d0a9a3d3361209db3908ba62014b0dca52adbaee451d128b259150600090a250565b6009546001600160a01b03163314610b8e5760405162461bcd60e51b815260206004820152600b60248201526a27b7363c9031b0b63632b960a91b6044820152606401610939565b6000610b9960025490565b11610ba357600080fd5b8015610c1f57610bd6610bb560025490565b610bc383600160801b6117f8565b610bcd919061209f565b6006549061193e565b60065560405181815233907fa493a9229478c3fcd73f66d2cdeb7f94fd0f341da924d1054236d784541165119060200160405180910390a2600e54610c1b908261193e565b600e555b50565b3360008181526001602090815260408083206001600160a01b038716845290915281205490916109059185906109b4908661193e565b6000806000806000806000806012735524a23642cbf77c059fede311a9e5504ee7eea763deb3d89690916040518263ffffffff1660e01b8152600401610ca091815260200190565b60206040518083038186803b158015610cb857600080fd5b505af4158015610ccc573d6000803e3d6000fd5b505050506040513d601f19601f82011682018060405250810190610cf09190611f68565b8910610d15575060009650600019955085945086935083925082915081905080610dbf565b6040516368d54f3f60e11b815260126004820152602481018a9052600090735524a23642cbf77c059fede311a9e5504ee7eea79063d1aa9e7e9060440160206040518083038186803b158015610d6a57600080fd5b505af4158015610d7e573d6000803e3d6000fd5b505050506040513d601f19601f82011682018060405250810190610da29190611e60565b9050610dad8161143e565b98509850985098509850985098509850505b919395975091939597565b60405162461bcd60e51b815260206004820152601960248201527f77697468647261774469766964656e642064697361626c6564000000000000006044820152606401610939565b600f546001600160a01b03163314610e3c5760405162461bcd60e51b815260040161093990611feb565b600f546040516000916001600160a01b0316907f8be0079c531659141344cd1fd0a4f28419497f9722a3daafe3b4186f6b6457e0908390a3600f80546001600160a01b0319169055565b600f546001600160a01b03163314610eb05760405162461bcd60e51b815260040161093990611feb565b600a80546001600160a01b0319166001600160a01b0392909216919091179055565b600061090982610f3b565b60606004805461087590612134565b600061090533846109b4856040518060600160405280602581526020016121ec602591393360009081526001602090815260408083206001600160a01b038d16845290915290205491906117c1565b6001600160a01b0381166000908152600d602052604081205461090990610f61846109c3565b9061199d565b600061090533848461178c565b600f546000906001600160a01b03163314610fa15760405162461bcd60e51b815260040161093990611feb565b6000610fac846119f9565b90508015611018576001600160a01b038416600081815260186020526040908190204290555184151591907fa2c38e2d2fb7e3e1912d937fd1ca11ed6d51864dee4cfa7a7bf02becd7acf092906110069085815260200190565b60405180910390a36001915050610909565b5060009392505050565b6008546001600160a01b031632146110695760405162461bcd60e51b815260206004820152600a60248201526927b7363c9030b236b4b760b11b6044820152606401610939565b600b55565b6008546001600160a01b031632146110b55760405162461bcd60e51b815260206004820152600a60248201526927b7363c9030b236b4b760b11b6044820152606401610939565b600980546001600160a01b0319166001600160a01b0392909216919091179055565b600f546001600160a01b031633146111015760405162461bcd60e51b815260040161093990611feb565b600f8054601080546001600160a01b03199081166001600160a01b038416179091551690556111308142612087565b601155600f546040516000916001600160a01b0316907f8be0079c531659141344cd1fd0a4f28419497f9722a3daafe3b4186f6b6457e0908390a350565b600f546001600160a01b031633146111985760405162461bcd60e51b815260040161093990611feb565b6001600160a01b03821660009081526017602052604090205460ff16156111bd575050565b601a54811061124e576111d082826118df565b604051632f0ad01760e21b8152601260048201526001600160a01b038316602482015260448101829052735524a23642cbf77c059fede311a9e5504ee7eea79063bc2b405c9060640160006040518083038186803b15801561123157600080fd5b505af4158015611245573d6000803e3d6000fd5b505050506112cc565b6112598260006118df565b60405163131836e760e21b8152601260048201526001600160a01b0383166024820152735524a23642cbf77c059fede311a9e5504ee7eea790634c60db9c9060440160006040518083038186803b1580156112b357600080fd5b505af41580156112c7573d6000803e3d6000fd5b505050505b6112d7826001610f74565b505050565b600f546001600160a01b031633146113065760405162461bcd60e51b815260040161093990611feb565b603c811015801561131a5750620151808111155b61134e5760405162461bcd60e51b815260206004820152600560248201526477726f6e6760d81b6044820152606401610939565b601955565b600f546001600160a01b0316331461137d5760405162461bcd60e51b815260040161093990611feb565b6001600160a01b0381166113e25760405162461bcd60e51b815260206004820152602660248201527f4f776e61626c653a206e6577206f776e657220697320746865207a65726f206160448201526564647265737360d01b6064820152608401610939565b600f546040516001600160a01b038084169216907f8be0079c531659141344cd1fd0a4f28419497f9722a3daafe3b4186f6b6457e090600090a3600f80546001600160a01b0319166001600160a01b0392909216919091179055565b6040516317e142d160e01b8152601260048201526001600160a01b03821660248201528190600090819081908190819081908190735524a23642cbf77c059fede311a9e5504ee7eea7906317e142d19060440160206040518083038186803b1580156114a957600080fd5b505af41580156114bd573d6000803e3d6000fd5b505050506040513d601f19601f820116820180604052508101906114e19190611f68565b96506000199550600087126115435760165487111561150f57601654611508908890611b71565b9550611543565b60165460125460009110611524576000611533565b6016546012546115339161199d565b905061153f888261188e565b9650505b61154c88610f3b565b9450611557886109c3565b6001600160a01b03891660009081526018602052604090205490945092508261158157600061158f565b60195461158f90849061193e565b915042821161159f5760006115a9565b6115a9824261199d565b9050919395975091939597565b60125460009081908190806115d6575050601654600092508291506116d8565b6016546000805a90506000805b89841080156115f157508582105b156116c757846116008161216f565b6012549096508610905061161357600094505b60006012600001868154811061163957634e487b7160e01b600052603260045260246000fd5b60009182526020808320909101546001600160a01b0316808352601890915260409091205490915061166a90611bbd565b1561168d5761167a816001610f74565b1561168d57816116898161216f565b9250505b826116978161216f565b93505060005a9050808511156116be576116bb6116b4868361199d565b879061193e565b95505b93506115e39050565b601685905590975095509193505050505b9193909250565b6001600160a01b0383166117055760405162461bcd60e51b815260040161093990612020565b6001600160a01b03821661172b5760405162461bcd60e51b815260040161093990612020565b6001600160a01b0383811660008181526001602090815260408083209487168084529482529182902085905590518481527f8c5be1e5ebec7d5bd14f71427d1e84f3dd0314c0f7b2291e5b200ac8c7c3b925910160405180910390a3505050565b60405162461bcd60e51b815260206004820152600a602482015269139bc8185b1b1bddd95960b21b6044820152606401610939565b600081848411156117e55760405162461bcd60e51b81526004016109399190611f98565b506117f0838561211d565b949350505050565b60008261180757506000610909565b600061181383856120bf565b905082611820858361209f565b146118775760405162461bcd60e51b815260206004820152602160248201527f536166654d6174683a206d756c7469706c69636174696f6e206f766572666c6f6044820152607760f81b6064820152608401610939565b9392505050565b6000818181121561090957600080fd5b60008061189b8385612046565b9050600083121580156118ae5750838112155b806118c357506000831280156118c357508381125b61187757600080fd5b6000808212156118db57600080fd5b5090565b6001600160a01b0382166000908152602081905260409020548082111561191e57600061190c838361199d565b90506119188482611be4565b50505050565b808210156112d7576000611932828461199d565b90506119188482611c48565b60008061194b8385612087565b9050838110156118775760405162461bcd60e51b815260206004820152601b60248201527f536166654d6174683a206164646974696f6e206f766572666c6f7700000000006044820152606401610939565b6000828211156119ef5760405162461bcd60e51b815260206004820152601e60248201527f536166654d6174683a207375627472616374696f6e206f766572666c6f7700006044820152606401610939565b611877828461211d565b600080611a0583610f3b565b9050600b54811115611b68576001600160a01b0383166000908152600d6020526040902054611a34908261193e565b6001600160a01b0384166000818152600d6020526040908190209290925590517fee503bee2bb6a87e57bc57db795f98137327401a0e7b7ce42e37926cc1a9ca4d90611a839084815260200190565b60405180910390a2600a5460405163a9059cbb60e01b81526001600160a01b03858116600483015260248201849052600092169063a9059cbb90604401602060405180830381600087803b158015611ada57600080fd5b505af1158015611aee573d6000803e3d6000fd5b505050506040513d601f19601f82011682018060405250810190611b129190611f4c565b905080611b61576001600160a01b0384166000908152600d6020526040902054611b3c908361199d565b6001600160a01b039094166000908152600d6020526040812094909455509192915050565b5092915050565b50600092915050565b6000808212158015611b8c575082611b8983826120de565b13155b80611baa5750600082128015611baa575082611ba883826120de565b135b611bb357600080fd5b61187782846120de565b600042821115611bcf57506000919050565b601954611bdc428461199d565b101592915050565b611bee8282611c8c565b611c28611c09610a05836006546117f890919063ffffffff16565b6001600160a01b0384166000908152600c602052604090205490611b71565b6001600160a01b039092166000908152600c602052604090209190915550565b611c528282611d6b565b611c28611c6d610a05836006546117f890919063ffffffff16565b6001600160a01b0384166000908152600c60205260409020549061188e565b6001600160a01b038216611ce25760405162461bcd60e51b815260206004820152601f60248201527f45524332303a206d696e7420746f20746865207a65726f2061646472657373006044820152606401610939565b600254611cef908261193e565b6002556001600160a01b038216600090815260208190526040902054611d15908261193e565b6001600160a01b038316600081815260208181526040808320949094559251848152919290917fddf252ad1be2c89b69c2b068fc378daa952ba7f163c4a11628f55a4df523b3ef91015b60405180910390a35050565b6001600160a01b038216611d915760405162461bcd60e51b815260040161093990612020565b604080518082018252600f81526e657863656564732062616c616e636560881b6020808301919091526001600160a01b0385166000908152908190529190912054611ddd9183906117c1565b6001600160a01b038316600090815260208190526040902055600254611e03908261199d565b6002556040518181526000906001600160a01b038416907fddf252ad1be2c89b69c2b068fc378daa952ba7f163c4a11628f55a4df523b3ef90602001611d5f565b600060208284031215611e55578081fd5b8135611877816121a0565b600060208284031215611e71578081fd5b8151611877816121a0565b60008060408385031215611e8e578081fd5b8235611e99816121a0565b91506020830135611ea9816121b5565b809150509250929050565b60008060408385031215611ec6578182fd5b8235611ed1816121a0565b946020939093013593505050565b60008060408385031215611ef1578182fd5b8235611efc816121a0565b91506020830135611ea9816121a0565b600080600060608486031215611f20578081fd5b8335611f2b816121a0565b92506020840135611f3b816121a0565b929592945050506040919091013590565b600060208284031215611f5d578081fd5b8151611877816121b5565b600060208284031215611f79578081fd5b5051919050565b600060208284031215611f91578081fd5b5035919050565b6000602080835283518082850152825b81811015611fc457858101830151858201604001528201611fa8565b81811115611fd55783604083870101525b50601f01601f1916929092016040019392505050565b6020808252818101527f4f776e61626c653a2063616c6c6572206973206e6f7420746865206f776e6572604082015260600190565b6020808252600c908201526b7a65726f206164647265737360a01b604082015260600190565b600080821280156001600160ff1b03849003851316156120685761206861218a565b600160ff1b83900384128116156120815761208161218a565b50500190565b6000821982111561209a5761209a61218a565b500190565b6000826120ba57634e487b7160e01b81526012600452602481fd5b500490565b60008160001904831182151516156120d9576120d961218a565b500290565b60008083128015600160ff1b8501841216156120fc576120fc61218a565b6001600160ff1b03840183138116156121175761211761218a565b50500390565b60008282101561212f5761212f61218a565b500390565b600181811c9082168061214857607f821691505b6020821081141561216957634e487b7160e01b600052602260045260246000fd5b50919050565b60006000198214156121835761218361218a565b5060010190565b634e487b7160e01b600052601160045260246000fd5b6001600160a01b0381168114610c1f57600080fd5b8015158114610c1f57600080fdfe45524332303a207472616e7366657220616d6f756e74206578636565647320616c6c6f77616e636545524332303a2064656372656173656420616c6c6f77616e63652062656c6f77207a65726fa2646970667358221220d1221689771f90c1da7e49b73dc4233fc8b2347726ff1347f175e110a6180d8264736f6c634300080400334f776e61626c653a2063616c6c6572206973206e6f7420746865206f776e6572

Library Used


Deployed ByteCode Sourcemap

47635:33529:0:-:0;;;;;;;;;;;;;;;;;;;;;;;;;;;;;;;;;;;;;;;;;;;;;;;;;;;;;;;;;;;;;;;;;;;;;;;;;;;;;;;;;;;;;;;;;;;;;;;;;;;;;;;;;;;;;;;;;;;;;;;;;;;;;;;;;;;;;;;;;;;;;;;;;;;;;;;;;;;;;;;;;;;;;;;;;;;;;;;;;;;;;;;;;;;;;;;;;;;;;;;;;;;;;;;;;;;;;;;;;;;;;;;;;;;;;;;;;;;;;;;;;;;;;;;;;;;;;;;;;;;;;;;;;;;;;;;;;;;;;;;;;;;;;;;;;;;;;;;;;;;;;;;;;;;;;;;;;;;;;;;;;;;;;;;;;;;;;;;;;;;;;;;;;;;;;;;;;;;;;;;;;;;;;;;;;;;;;;;;;;;;;;;;;;;;;;;;;;;;;;;;;;;;;;;;;;;;;;;;;;;;;;;;;;;;;;;;;;;;;;;;;;;;;;;;;;;;;;;;;;;;;;;;;;;;;;;;;;;;;;;;;;;;;;;;;;;;;;;;;;;;;;;;;;;;;;;;;;;;;;;;;;;;;;;;;;;;;;;;;;;;;;;;;;;;;;;;;;;;;;;;;;;;;;;;;;;;;;;;;;;;;;;;;;;;;;;;;;;;;;;;;;;;;;;;;;;;;;;;;;;;;;;;;;;;;;;;;;;;;;;;;;;;;;;;;;;;;;;;;;;;;;;;;;;;;;;;;;;;;;;;;;;;;;;;;;;;;;;;;;;;;;;;;;;;;;;;;;;;;;;;;;;;;;;;;;;;;;;;;;;;;;;;;;;;;;;;;;;;;;;;;;;;;;;;;;;;;;;;;;;;;;;;;;;;;;;;;;;;;;;;;;;;;;;;;;;;;;;;;;;;;;;;;;;;;;;;;;;;;;;;;;;;;;;;;;;;;;;;;;;;;;;;;;;;;;;;;;;;;;;;;;;;;;;;48762:39;;;;;;;;;;;;;;;;;;;16178:25:1;;;16166:2;16151:18;48762:39:0;;;;;;;;8355:91;;;;;;;;;;;;;:::i;:::-;;;;;;;:::i;55637:618::-;;;;;;;;;;;;;:::i;:::-;;10501:169;;;;;;;;;;-1:-1:-1;10501:169:0;;;;;:::i;:::-;;:::i;:::-;;;7794:14:1;;7787:22;7769:41;;7757:2;7742:18;10501:169:0;7724:92:1;48063:36:0;;;;;;;;;;-1:-1:-1;48063:36:0;;;;-1:-1:-1;;;48063:36:0;;;;;;54243:103;;;;;;;;;;-1:-1:-1;54243:103:0;;;;;:::i;:::-;;:::i;63811:159::-;;;;;;;;;;-1:-1:-1;63811:159:0;;;;;:::i;:::-;;:::i;56487:180::-;;;;;;;;;;-1:-1:-1;56487:180:0;;;;;:::i;:::-;;:::i;49584:24::-;;;;;;;;;;;;;;;;47784:41;;;;;;;;;;-1:-1:-1;47784:41:0;;;;-1:-1:-1;;;;;47784:41:0;;;;;;-1:-1:-1;;;;;5667:32:1;;;5649:51;;5637:2;5622:18;47784:41:0;5604:102:1;9454:108:0;;;;;;;;;;-1:-1:-1;9542:12:0;;9454:108;;53828:144;;;;;;;;;;;;;:::i;48509:83::-;;;;;;;;;;-1:-1:-1;48509:83:0;;;;-1:-1:-1;;;;;48509:83:0;;;60524:197;;;;;;;;;;-1:-1:-1;60524:197:0;;;;;:::i;:::-;;:::i;49311:44::-;;;;;;;;;;;;;;;;54354:194;;;;;;;;;;-1:-1:-1;54354:194:0;;;;;:::i;:::-;;:::i;49217:44::-;;;;;;;;;;;;;;;;49617:42;;;;;;;;;;;;;;;;59879:637;;;;;;;;;;-1:-1:-1;59879:637:0;;;;;:::i;:::-;;:::i;11152:321::-;;;;;;;;;;-1:-1:-1;11152:321:0;;;;;:::i;:::-;;:::i;58784:442::-;;;;;;;;;;-1:-1:-1;58784:442:0;;;;;:::i;:::-;;:::i;47955:71::-;;;;;;;;;;-1:-1:-1;47955:71:0;;;;-1:-1:-1;;;;;47955:71:0;;;48282:38;;;;;;;;;;-1:-1:-1;48282:38:0;;;;-1:-1:-1;;;48282:38:0;;;;;;9298:91;;;;;;;;;;-1:-1:-1;9372:9:0;;9298:91;;9372:9;;;;17663:36:1;;17651:2;17636:18;9298:91:0;17618:87:1;52497:319:0;;;;;;;;;;-1:-1:-1;52497:319:0;;;;;:::i;:::-;;:::i;56675:179::-;;;;;;;;;;-1:-1:-1;56675:179:0;;;;;:::i;:::-;;:::i;47917:31::-;;;;;;;;;;-1:-1:-1;47917:31:0;;;;-1:-1:-1;;;;;47917:31:0;;;48149:44;;;;;;;;;;-1:-1:-1;48149:44:0;;;;-1:-1:-1;;;48149:44:0;;;;;;11882:218;;;;;;;;;;-1:-1:-1;11882:218:0;;;;;:::i;:::-;;:::i;62655:268::-;;;;;;;;;;-1:-1:-1;62655:268:0;;;;;:::i;:::-;;:::i;53496:158::-;;;;;;;;;;-1:-1:-1;53496:158:0;;;;;:::i;:::-;;:::i;67203:143::-;;;;;;;;;;;;;:::i;49268:36::-;;;;;;;;;;;;;;;;47832:38;;;;;;;;;;;;;;;66866:178;;;;;;;;;;;;;:::i;49174:36::-;;;;;;;;;;;;;;;;55026:193;;;;;;;;;;-1:-1:-1;55026:193:0;;;;;:::i;:::-;;:::i;63978:159::-;;;;;;;;;;-1:-1:-1;63978:159:0;;;;;:::i;:::-;;:::i;64300:147::-;;;;;;;;;;-1:-1:-1;64300:147:0;;;;;:::i;:::-;;:::i;48646:25::-;;;;;;;;;;-1:-1:-1;48646:25:0;;;;-1:-1:-1;;;;;48646:25:0;;;48456:44;;;;;;;;;;-1:-1:-1;48456:44:0;;;;-1:-1:-1;;;;;48456:44:0;;;48717:38;;;;;;;;;;;;;;;;63244:114;;;;;;;;;;;;;:::i;52961:131::-;;;;;;;;;;-1:-1:-1;52961:131:0;;;;;:::i;:::-;;:::i;49446:35::-;;;;;;;;;;;;;;;;53662:158;;;;;;;;;;-1:-1:-1;53662:158:0;;;;;:::i;:::-;;:::i;61330:137::-;;;;;;;;;;-1:-1:-1;61330:137:0;;;;;:::i;:::-;;:::i;67509:147::-;;;;;;;;;;;;;:::i;49412:27::-;;;;;;;;;;;;;;;;56380:99;;;;;;;;;;-1:-1:-1;56380:99:0;;;;;:::i;:::-;;:::i;65659:516::-;;;;;;;;;;-1:-1:-1;65659:516:0;;;;;:::i;:::-;;:::i;9625:127::-;;;;;;;;;;-1:-1:-1;9625:127:0;;;;;:::i;:::-;;:::i;48886:47::-;;;;;;;;;;;;;;;;2800:148;;;;;;;;;;;;;:::i;48678:30::-;;;;;;;;;;-1:-1:-1;48678:30:0;;;;-1:-1:-1;;;;;48678:30:0;;;48200;;;;;;;;;;-1:-1:-1;48200:30:0;;;;-1:-1:-1;;;48200:30:0;;;;;;63676:127;;;;;;;;;;-1:-1:-1;63676:127:0;;;;;:::i;:::-;-1:-1:-1;;;;;63768:27:0;63744:4;63768:27;;;:18;:27;;;;;;;;;63676:127;54698:151;;;;;;;;;;-1:-1:-1;54698:151:0;;;;;:::i;:::-;;:::i;48237:38::-;;;;;;;;;;-1:-1:-1;48237:38:0;;;;-1:-1:-1;;;48237:38:0;;;;;;48405:44;;;;;;;;;;-1:-1:-1;48405:44:0;;;;-1:-1:-1;;;;;48405:44:0;;;53100:190;;;;;;;;;;-1:-1:-1;53100:190:0;;;;;:::i;:::-;;:::i;63366:147::-;;;;;;;;;;;;;:::i;62532:115::-;;;;;;;;;;-1:-1:-1;62532:115:0;;;;;:::i;:::-;;:::i;48329:30::-;;;;;;;;;;-1:-1:-1;48329:30:0;;;;-1:-1:-1;;;48329:30:0;;;;;;2149:87;;;;;;;;;;-1:-1:-1;2222:6:0;;;;;-1:-1:-1;;;;;2222:6:0;2149:87;;55227:121;;;;;;;;;;-1:-1:-1;55227:121:0;;;;;:::i;:::-;;:::i;78089:369::-;;;;;;;;;;-1:-1:-1;78089:369:0;;;;;:::i;:::-;;:::i;47734:41::-;;;;;;;;;;;;47773:2;47734:41;;60729:197;;;;;;;;;;-1:-1:-1;60729:197:0;;;;;:::i;:::-;;:::i;49488:37::-;;;;;;;;;;;;;;;;8565:95;;;;;;;;;;;;;:::i;56862:182::-;;;;;;;;;;-1:-1:-1;56862:182:0;;;;;:::i;:::-;;:::i;61122:200::-;;;;;;;;;;-1:-1:-1;61122:200:0;;;;;:::i;:::-;;:::i;61960:204::-;;;;;;;;;;-1:-1:-1;61960:204:0;;;;;:::i;:::-;;:::i;49668:40::-;;;;;;;;;;;;;;;;48599:38;;;;;;;;;;;;;;;;54132:103;;;;;;;;;;-1:-1:-1;54132:103:0;;;;;:::i;:::-;;:::i;64145:147::-;;;;;;;;;;-1:-1:-1;64145:147:0;;;;;:::i;:::-;;:::i;12603:269::-;;;;;;;;;;-1:-1:-1;12603:269:0;;;;;:::i;:::-;;:::i;53980:144::-;;;;;;;;;;;;;:::i;64455:288::-;;;;;;;;;;-1:-1:-1;64455:288:0;;;;;:::i;:::-;;:::i;:::-;;;;-1:-1:-1;;;;;6668:32:1;;;6650:51;;6732:2;6717:18;;6710:34;;;;6760:18;;;6753:34;;;;6818:2;6803:18;;6796:34;;;;6861:3;6846:19;;6839:35;6688:3;6890:19;;6883:35;6949:3;6934:19;;6927:35;6993:3;6978:19;;6971:35;6637:3;6622:19;64455:288:0;6604:408:1;9965:175:0;;;;;;;;;;-1:-1:-1;9965:175:0;;;;;:::i;:::-;;:::i;54857:161::-;;;;;;;;;;-1:-1:-1;54857:161:0;;;;;:::i;:::-;;:::i;55356:133::-;;;;;;;;;;-1:-1:-1;55356:133:0;;;;;:::i;:::-;;:::i;61745:207::-;;;;;;;;;;-1:-1:-1;61745:207:0;;;;;:::i;:::-;;:::i;47879:31::-;;;;;;;;;;-1:-1:-1;47879:31:0;;;;-1:-1:-1;;;;;47879:31:0;;;52824:129;;;;;;;;;;-1:-1:-1;52824:129:0;;;;;:::i;:::-;;:::i;49927:58::-;;;;;;;;;;-1:-1:-1;49927:58:0;;;;;:::i;:::-;;;;;;;;;;;;;;;;67354:147;;;;;;;;;;;;;:::i;58281:495::-;;;;;;;;;;-1:-1:-1;58281:495:0;;;;;:::i;:::-;;:::i;59234:637::-;;;;;;;;;;-1:-1:-1;59234:637:0;;;;;:::i;:::-;;:::i;61475:262::-;;;;;;;;;;-1:-1:-1;61475:262:0;;;;;:::i;:::-;;:::i;65047:298::-;;;;;;;;;;-1:-1:-1;65047:298:0;;;;;:::i;:::-;;:::i;67052:143::-;;;;;;;;;;;;;:::i;49532:45::-;;;;;;;;;;;;;;;;49037:52;;;;;;;;;;;;;;;;57246:524;;;;;;;;;;-1:-1:-1;57246:524:0;;;;;:::i;:::-;;:::i;63122:114::-;;;;;;;;;;;;;:::i;60934:180::-;;;;;;;;;;-1:-1:-1;60934:180:0;;;;;:::i;:::-;;:::i;48366:30::-;;;;;;;;;;-1:-1:-1;48366:30:0;;;;-1:-1:-1;;;48366:30:0;;;;;;54556:134;;;;;;;;;;-1:-1:-1;54556:134:0;;;;;:::i;:::-;;:::i;49364:39::-;;;;;;;;;;;;;;;;65353:298;;;;;;;;;;-1:-1:-1;65353:298:0;;;;;:::i;:::-;;:::i;49108:57::-;;;;;;;;;;;;;;;;3425:226;;;;;;;;;;-1:-1:-1;3425:226:0;;;;;:::i;:::-;;:::i;10203:151::-;;;;;;;;;;-1:-1:-1;10203:151:0;;;;;:::i;:::-;-1:-1:-1;;;;;10319:18:0;;;10292:7;10319:18;;;:11;:18;;;;;;;;:27;;;;;;;;;;;;;10203:151;53298:190;;;;;;;;;;-1:-1:-1;53298:190:0;;;;;:::i;:::-;;:::i;56263:109::-;;;;;;;;;;-1:-1:-1;56263:109:0;;;;;:::i;:::-;;:::i;48808:33::-;;;;;;;;;;;;;;;;48848:29;;;;;;;;;;;;;;;;57778:495;;;;;;;;;;-1:-1:-1;57778:495:0;;;;;:::i;:::-;;:::i;64751:288::-;;;;;;;;;;-1:-1:-1;64751:288:0;;;;;:::i;:::-;;:::i;48106:36::-;;;;;;;;;;-1:-1:-1;48106:36:0;;;;-1:-1:-1;;;48106:36:0;;;;;;62931:183;;;;;;;;;;-1:-1:-1;62931:183:0;;;;;:::i;:::-;;:::i;63521:147::-;;;;;;;;;;;;;:::i;3103:244::-;;;;;;;;;;-1:-1:-1;3103:244:0;;;;;:::i;:::-;;:::i;55497:132::-;;;;;;;;;;-1:-1:-1;55497:132:0;;;;;:::i;:::-;;:::i;8355:91::-;8400:13;8433:5;8426:12;;;;;:::i;:::-;;;;;;;;;;;;;;;;;;;;;;;;;;;;;;;;;:::i;:::-;;;;;;;;;;;;;;;;;;;;;;;;;;;;;;;;;;;;;;;;;;;;;;;;;;;;;;;;;;;;;;;;;;;8355:91;:::o;55637:618::-;2222:6;;-1:-1:-1;;;;;2222:6:0;;;;;805:10;2369:23;2361:68;;;;-1:-1:-1;;;2361:68:0;;;;;;;:::i;:::-;;;;;;;;;55715:1:::1;55691:21;:25:::0;55751:1:::1;55727:21;:25:::0;;;55778:1:::1;55763:12;:16:::0;55790:22:::1;:26:::0;;;55827:19:::1;:23:::0;55863:17:::1;:15;:17::i;:::-;55893:16;:23:::0;;-1:-1:-1;;;;56005:25:0;-1:-1:-1;;;56005:25:0;;;56062:19:::1;56041:18;:40:::0;56118:21:::1;56092:23;:47:::0;56177:19:::1;56150:24;:46:::0;56224:23:::1;56207:14;:40:::0;55637:618::o;10501:169::-;10584:4;10601:39;805:10;10624:7;10633:6;10601:8;:39::i;:::-;-1:-1:-1;10658:4:0;10501:169;;;;;:::o;54243:103::-;2222:6;;-1:-1:-1;;;;;2222:6:0;;;;;805:10;2369:23;2361:68;;;;-1:-1:-1;;;2361:68:0;;;;;;;:::i;:::-;54314:11:::1;:24:::0;;;::::1;;-1:-1:-1::0;;;54314:24:0::1;-1:-1:-1::0;;;;54314:24:0;;::::1;::::0;;;::::1;::::0;;54243:103::o;63811:159::-;63912:18;;:50;;-1:-1:-1;;;63912:50:0;;-1:-1:-1;;;;;5667:32:1;;;63912:50:0;;;5649:51:1;63885:7:0;;63912:18;;:41;;5622:18:1;;63912:50:0;;;;;;;;;;;;;;;;;;;;;;;;;;;;;;;;;;;;;;;;;;;;;;;;;;;;;;;;;;;;;;:::i;56487:180::-;2222:6;;-1:-1:-1;;;;;2222:6:0;;;;;805:10;2369:23;2361:68;;;;-1:-1:-1;;;2361:68:0;;;;;;;:::i;:::-;56624:22:::1;:35:::0;56487:180::o;53828:144::-;53917:18;;:47;;;-1:-1:-1;;;53917:47:0;;;;53890:7;;-1:-1:-1;;;;;53917:18:0;;:45;;:47;;;;;;;;;;;;;;:18;:47;;;;;;;;;;;;;;;;;;;;;;;;;;;;;;;;;;;;;;;;;;;;;;;;;;;;;:::i;:::-;53910:54;;53828:144;:::o;60524:197::-;2222:6;;-1:-1:-1;;;;;2222:6:0;;;;;805:10;2369:23;2361:68;;;;-1:-1:-1;;;2361:68:0;;;;;;;:::i;:::-;47773:2:::1;60612:6;:22;;;;60604:40;;;;-1:-1:-1::0;;;60604:40:0::1;;;;;;;:::i;:::-;60655:30;::::0;::::1;:21;:30:::0;60696:17:::1;:15;:17::i;:::-;60524:197:::0;:::o;54354:194::-;2222:6;;-1:-1:-1;;;;;2222:6:0;;;;;805:10;2369:23;2361:68;;;;-1:-1:-1;;;2361:68:0;;;;;;;:::i;:::-;54477:3:::1;54463:10;:17;;54436:61;;;;-1:-1:-1::0;;;54436:61:0::1;;;;;;;:::i;:::-;54508:19;:32:::0;54354:194::o;59879:637::-;2222:6;;-1:-1:-1;;;;;2222:6:0;;;;;805:10;2369:23;2361:68;;;;-1:-1:-1;;;2361:68:0;;;;;;;:::i;:::-;59963:40:::1;60033:10;59963:82;;60107:4;-1:-1:-1::0;;;;;60066:46:0::1;:21;-1:-1:-1::0;;;;;60066:27:0::1;;:29;;;;;;;;;;;;;;;;;;;;;;;;;;;::::0;::::1;;;;;;;;;;;;::::0;::::1;;;;;;;;;;;;;;;;;;;;;;;;;;;;;;;:::i;:::-;-1:-1:-1::0;;;;;60066:46:0::1;;60058:86;;;::::0;-1:-1:-1;;;60058:86:0;;12718:2:1;60058:86:0::1;::::0;::::1;12700:21:1::0;12757:2;12737:18;;;12730:30;12796:29;12776:18;;;12769:57;12843:18;;60058:86:0::1;12690:177:1::0;60058:86:0::1;60157:74;::::0;-1:-1:-1;;;60157:74:0;;-1:-1:-1;;;;;60157:42:0;::::1;:74;::::0;::::1;5649:51:1::0;;;60157:42:0;::::1;::::0;5622:18:1;;60157:74:0::1;;;;;;;;;;;;;;;;;::::0;::::1;;;;;;;;;;;;::::0;::::1;;;;;-1:-1:-1::0;;60242:57:0::1;::::0;-1:-1:-1;;;60242:57:0;;60293:4:::1;60242:57;::::0;::::1;5649:51:1::0;-1:-1:-1;;;;;60242:42:0;::::1;::::0;-1:-1:-1;60242:42:0::1;::::0;-1:-1:-1;5622:18:1;;60242:57:0::1;;;;;;;;;;;;;;;;;::::0;::::1;;;;;;;;;;;;::::0;::::1;;;;;-1:-1:-1::0;;60361:15:0::1;::::0;60310:68:::1;::::0;-1:-1:-1;;;60310:68:0;;-1:-1:-1;;;;;60361:15:0;;::::1;60310:68;::::0;::::1;5649:51:1::0;60310:42:0;;::::1;::::0;-1:-1:-1;60310:42:0::1;::::0;-1:-1:-1;5622:18:1;;60310:68:0::1;;;;;;;;;;;;;;;;;::::0;::::1;;;;;;;;;;;;::::0;::::1;;;;;-1:-1:-1::0;;60440:11:0::1;::::0;60389:64:::1;::::0;-1:-1:-1;;;60389:64:0;;-1:-1:-1;;;;;60440:11:0;;::::1;60389:64;::::0;::::1;5649:51:1::0;60389:42:0;;::::1;::::0;-1:-1:-1;60389:42:0::1;::::0;-1:-1:-1;5622:18:1;;60389:64:0::1;;;;;;;;;;;;;;;;;::::0;::::1;;;;;;;;;;;;::::0;::::1;;;;;-1:-1:-1::0;;60466:18:0::1;:42:::0;;-1:-1:-1;;;;;;60466:42:0::1;-1:-1:-1::0;;;;;60466:42:0;;;::::1;::::0;;;::::1;::::0;;;-1:-1:-1;;;59879:637:0:o;11152:321::-;11258:4;11275:36;11285:6;11293:9;11304:6;11275:9;:36::i;:::-;11322:121;11331:6;805:10;11353:89;11391:6;11353:89;;;;;;;;;;;;;;;;;-1:-1:-1;;;;;11353:19:0;;;;;;:11;:19;;;;;;;;805:10;11353:33;;;;;;;;;;:37;:89::i;:::-;11322:8;:121::i;:::-;-1:-1:-1;11461:4:0;11152:321;;;;;:::o;58784:442::-;2222:6;;-1:-1:-1;;;;;2222:6:0;;;;;805:10;2369:23;2361:68;;;;-1:-1:-1;;;2361:68:0;;;;;;;:::i;:::-;58866:16:::1;::::0;::::1;-1:-1:-1::0;;;58866:16:0;;::::1;;:28;;::::0;::::1;;;;58858:52;;;;-1:-1:-1::0;;;58858:52:0::1;;;;;;;:::i;:::-;58927:17:::0;58923:268:::1;;58984:12;::::0;;58961:20:::1;:35:::0;-1:-1:-1;59011:16:0;;59042::::1;:27:::0;;-1:-1:-1;;;;59042:27:0::1;-1:-1:-1::0;;;59042:27:0;::::1;;;;::::0;;58923:268:::1;;;59117:20;::::0;59102:12:::1;:35:::0;59152:16:::1;:27:::0;;-1:-1:-1;;;;59152:27:0::1;-1:-1:-1::0;;;59152:27:0;::::1;;;;::::0;;58923:268:::1;59201:17;:15;:17::i;52497:319::-:0;2222:6;;-1:-1:-1;;;;;2222:6:0;;;;;805:10;2369:23;2361:68;;;;-1:-1:-1;;;2361:68:0;;;;;;;:::i;:::-;52606:18:::1;::::0;:66:::1;::::0;-1:-1:-1;;;52606:66:0;;-1:-1:-1;;;;;5667:32:1;;;52606:66:0::1;::::0;::::1;5649:51:1::0;52606:18:0;;::::1;::::0;:39:::1;::::0;5622:18:1;;52606:66:0::1;;;;;;;;;;;;;;;;;::::0;::::1;;;;;;;;;;;;::::0;::::1;;;;;-1:-1:-1::0;;52683:18:0::1;::::0;:66:::1;::::0;-1:-1:-1;;;52683:66:0;;-1:-1:-1;;;;;5667:32:1;;;52683:66:0::1;::::0;::::1;5649:51:1::0;52683:18:0;;::::1;::::0;-1:-1:-1;52683:39:0::1;::::0;-1:-1:-1;5622:18:1;;52683:66:0::1;;;;;;;;;;;;;;;;;::::0;::::1;;;;;;;;;;;;::::0;::::1;;;;;;;;;52760:48;52776:25;52803:4;52760:15;:48::i;56675:179::-:0;2222:6;;-1:-1:-1;;;;;2222:6:0;;;;;805:10;2369:23;2361:68;;;;-1:-1:-1;;;2361:68:0;;;;;;;:::i;:::-;56779:1:::1;56766:10;:14;56758:42;;;::::0;-1:-1:-1;;;56758:42:0;;13407:2:1;56758:42:0::1;::::0;::::1;13389:21:1::0;13446:2;13426:18;;;13419:30;-1:-1:-1;;;13465:18:1;;;13458:45;13520:18;;56758:42:0::1;13379:165:1::0;56758:42:0::1;56811:22;:35:::0;56675:179::o;11882:218::-;805:10;11970:4;12019:25;;;:11;:25;;;;;;;;-1:-1:-1;;;;;12019:34:0;;;;;;;;;;11970:4;;11987:83;;12010:7;;12019:50;;12058:10;12019:38;:50::i;62655:268::-;2222:6;;-1:-1:-1;;;;;2222:6:0;;;;;805:10;2369:23;2361:68;;;;-1:-1:-1;;;2361:68:0;;;;;;;:::i;:::-;62754:18:::1;::::0;:75:::1;::::0;-1:-1:-1;;;62754:75:0;;::::1;::::0;::::1;16178:25:1::0;;;-1:-1:-1;;;;;62754:18:0;;::::1;::::0;:56:::1;::::0;16151:18:1;;62754:75:0::1;;;;;;;;;;;;;;;;;::::0;::::1;;;;;;;;;;;;::::0;::::1;;;;;-1:-1:-1::0;;62840:18:0::1;::::0;:75:::1;::::0;-1:-1:-1;;;62840:75:0;;::::1;::::0;::::1;16178:25:1::0;;;-1:-1:-1;;;;;62840:18:0;;::::1;::::0;-1:-1:-1;62840:56:0::1;::::0;-1:-1:-1;16151:18:1;;62840:75:0::1;;;;;;;;;;;;;;;;;;::::0;::::1;;;;;;;;;;;;::::0;::::1;;;;;;;;;62655:268:::0;:::o;53496:158::-;2222:6;;-1:-1:-1;;;;;2222:6:0;;;;;805:10;2369:23;2361:68;;;;-1:-1:-1;;;2361:68:0;;;;;;;:::i;:::-;53586:18:::1;::::0;:60:::1;::::0;-1:-1:-1;;;53586:60:0;;::::1;::::0;::::1;16178:25:1::0;;;-1:-1:-1;;;;;53586:18:0;;::::1;::::0;:48:::1;::::0;16151:18:1;;53586:60:0::1;16133:76:1::0;67203:143:0;67296:18;;:42;;;-1:-1:-1;;;67296:42:0;;;;67269:7;;-1:-1:-1;;;;;67296:18:0;;:40;;:42;;;;;;;;;;;;;;:18;:42;;;;;;;;;;66866:178;66903:18;;:61;;-1:-1:-1;;;66903:61:0;;66945:10;66903:61;;;5895:51:1;66903:18:0;5962::1;;;5955:50;-1:-1:-1;;;;;66903:18:0;;;;:33;;5868:18:1;;66903:61:0;;;;;;;;;;;;;;;;;;;;;;;;;;;;;;;;;;;;;;;;;;;;;;;;;;;;;;;;;;;;;;:::i;:::-;-1:-1:-1;66975:18:0;;:61;;-1:-1:-1;;;66975:61:0;;67017:10;66975:61;;;5895:51:1;66975:18:0;5962::1;;;5955:50;-1:-1:-1;;;;;66975:18:0;;;;:33;;5868:18:1;;66975:61:0;;;;;;;;;;;;;;;;;;;;;;;;;;;;;;;;;;;;;;;;;;;;;;;;;;;;;;;;;;;;;;:::i;55026:193::-;2222:6;;-1:-1:-1;;;;;2222:6:0;;;;;805:10;2369:23;2361:68;;;;-1:-1:-1;;;2361:68:0;;;;;;;:::i;:::-;47773:2:::1;55112:6;:22;;55104:40;;;;-1:-1:-1::0;;;55104:40:0::1;;;;;;;:::i;:::-;55155:19;:28:::0;;;55194:17:::1;:15;:17::i;63978:159::-:0;64079:18;;:50;;-1:-1:-1;;;64079:50:0;;-1:-1:-1;;;;;5667:32:1;;;64079:50:0;;;5649:51:1;64052:7:0;;64079:18;;:41;;5622:18:1;;64079:50:0;5604:102:1;64300:147:0;64402:18;;:37;;-1:-1:-1;;;64402:37:0;;-1:-1:-1;;;;;5667:32:1;;;64402:37:0;;;5649:51:1;64375:7:0;;64402:18;;:28;;5622:18:1;;64402:37:0;5604:102:1;63244:114:0;63320:18;;:30;;;-1:-1:-1;;;63320:30:0;;;;63293:7;;-1:-1:-1;;;;;63320:18:0;;:28;;:30;;;;;;;;;;;;;;:18;:30;;;;;;;;;;52961:131;2222:6;;-1:-1:-1;;;;;2222:6:0;;;;;805:10;2369:23;2361:68;;;;-1:-1:-1;;;2361:68:0;;;;;;;:::i;:::-;53066:18:::1;:7:::0;53077:6:::1;53066:18;:::i;:::-;53039:24;:45:::0;-1:-1:-1;52961:131:0:o;53662:158::-;2222:6;;-1:-1:-1;;;;;2222:6:0;;;;;805:10;2369:23;2361:68;;;;-1:-1:-1;;;2361:68:0;;;;;;;:::i;:::-;53752:18:::1;::::0;:60:::1;::::0;-1:-1:-1;;;53752:60:0;;::::1;::::0;::::1;16178:25:1::0;;;-1:-1:-1;;;;;53752:18:0;;::::1;::::0;:48:::1;::::0;16151:18:1;;53752:60:0::1;16133:76:1::0;61330:137:0;2222:6;;-1:-1:-1;;;;;2222:6:0;;;;;805:10;2369:23;2361:68;;;;-1:-1:-1;;;2361:68:0;;;;;;;:::i;:::-;61411:15:::1;:48:::0;;-1:-1:-1;;;;;;61411:48:0::1;-1:-1:-1::0;;;;;61411:48:0;;;::::1;::::0;;;::::1;::::0;;61330:137::o;67509:147::-;67604:18;;:44;;;-1:-1:-1;;;67604:44:0;;;;67577:7;;-1:-1:-1;;;;;67604:18:0;;:42;;:44;;;;;;;;;;;;;;:18;:44;;;;;;;;;;56380:99;2222:6;;-1:-1:-1;;;;;2222:6:0;;;;;805:10;2369:23;2361:68;;;;-1:-1:-1;;;2361:68:0;;;;;;;:::i;:::-;56449:11:::1;:22:::0;;;::::1;;-1:-1:-1::0;;;56449:22:0::1;-1:-1:-1::0;;;;56449:22:0;;::::1;::::0;;;::::1;::::0;;56380:99::o;65659:516::-;2222:6;;-1:-1:-1;;;;;2222:6:0;;;;;805:10;2369:23;2361:68;;;;-1:-1:-1;;;2361:68:0;;;;;;;:::i;:::-;65804:18:::1;::::0;:31:::1;::::0;-1:-1:-1;;;;;;65804:31:0;;::::1;::::0;::::1;16178:25:1::0;;;65735:19:0::1;::::0;;;;;-1:-1:-1;;;;;65804:18:0::1;::::0;:26:::1;::::0;16151:18:1;;65804:31:0::1;;;;;;;;;;;;;;;;;::::0;::::1;;;;;;;;;;;;::::0;::::1;;;;;;;;;;;;;;;;;;;;;;;;;;;;;;;:::i;:::-;65851:93;::::0;;17356:25:1;;;17412:2;17397:18;;17390:34;;;17440:18;;;17433:34;;;17498:2;17483:18;;17476:34;;;65734:101:0;;-1:-1:-1;65734:101:0;;-1:-1:-1;65734:101:0;-1:-1:-1;65934:9:0::1;::::0;65922:5:::1;::::0;65851:93:::1;::::0;17343:3:1;17328:19;65851:93:0::1;;;;;;;66027:18;::::0;:31:::1;::::0;-1:-1:-1;;;;;;66027:31:0;;::::1;::::0;::::1;16178:25:1::0;;;65958:19:0::1;::::0;;;;;-1:-1:-1;;;;;66027:18:0::1;::::0;:26:::1;::::0;16151:18:1;;66027:31:0::1;;;;;;;;;;;;;;;;;::::0;::::1;;;;;;;;;;;;::::0;::::1;;;;;;;;;;;;;;;;;;;;;;;;;;;;;;;:::i;:::-;66074:93;::::0;;17356:25:1;;;17412:2;17397:18;;17390:34;;;17440:18;;;17433:34;;;17498:2;17483:18;;17476:34;;;65957:101:0;;-1:-1:-1;65957:101:0;;-1:-1:-1;65957:101:0;-1:-1:-1;66157:9:0::1;::::0;66145:5:::1;::::0;66074:93:::1;::::0;17343:3:1;17328:19;66074:93:0::1;;;;;;;2440:1;;;;;;65659:516:::0;:::o;9625:127::-;-1:-1:-1;;;;;9726:18:0;9699:7;9726:18;;;;;;;;;;;;9625:127::o;2800:148::-;2222:6;;-1:-1:-1;;;;;2222:6:0;;;;;805:10;2369:23;2361:68;;;;-1:-1:-1;;;2361:68:0;;;;;;;:::i;:::-;2891:6:::1;::::0;2870:40:::1;::::0;2907:1:::1;::::0;2891:6:::1;::::0;::::1;-1:-1:-1::0;;;;;2891:6:0::1;::::0;2870:40:::1;::::0;2907:1;;2870:40:::1;2921:6;:19:::0;;-1:-1:-1;;;;;;2921:19:0::1;::::0;;2800:148::o;54698:151::-;2222:6;;-1:-1:-1;;;;;2222:6:0;;;;;805:10;2369:23;2361:68;;;;-1:-1:-1;;;2361:68:0;;;;;;;:::i;:::-;54774:33:::1;54790:10;54802:4;54774:15;:33::i;:::-;54818:10;:23:::0;;-1:-1:-1;;;;;;54818:23:0::1;-1:-1:-1::0;;;;;54818:23:0;;;::::1;::::0;;;::::1;::::0;;54698:151::o;53100:190::-;2222:6;;-1:-1:-1;;;;;2222:6:0;;;;;805:10;2369:23;2361:68;;;;-1:-1:-1;;;2361:68:0;;;;;;;:::i;:::-;53184:16:::1;:31:::0;;-1:-1:-1;;;;;;53184:31:0::1;-1:-1:-1::0;;;;;53184:31:0;;::::1;::::0;;::::1;::::0;;;53226:18:::1;::::0;:56:::1;::::0;-1:-1:-1;;;53226:56:0;;::::1;::::0;::::1;5649:51:1::0;;;;53226:18:0;;::::1;::::0;:42:::1;::::0;5622:18:1;;53226:56:0::1;5604:102:1::0;63366:147:0;63459:18;;:46;;;-1:-1:-1;;;63459:46:0;;;;63432:7;;-1:-1:-1;;;;;63459:18:0;;:44;;:46;;;;;;;;;;;;;;:18;:46;;;;;;;;;;62532:115;2222:6;;-1:-1:-1;;;;;2222:6:0;;;;;805:10;2369:23;2361:68;;;;-1:-1:-1;;;2361:68:0;;;;;;;:::i;:::-;62612:16:::1;:27:::0;62532:115::o;55227:121::-;2222:6;;-1:-1:-1;;;;;2222:6:0;;;;;805:10;2369:23;2361:68;;;;-1:-1:-1;;;2361:68:0;;;;;;;:::i;:::-;55320:20:::1;:9:::0;55333:6:::1;55320:20;:::i;:::-;55303:14;:37:::0;-1:-1:-1;55227:121:0:o;78089:369::-;2222:6;;-1:-1:-1;;;;;2222:6:0;;;;;805:10;2369:23;2361:68;;;;-1:-1:-1;;;2361:68:0;;;;;;;:::i;:::-;78222:24:::1;::::0;78182:21:::1;::::0;-1:-1:-1;;;78222:24:0;::::1;;;78214:48;;;::::0;-1:-1:-1;;;78214:48:0;;15201:2:1;78214:48:0::1;::::0;::::1;15183:21:1::0;15240:2;15220:18;;;15213:30;-1:-1:-1;;;15259:18:1;;;15252:41;15310:18;;78214:48:0::1;15173:161:1::0;78214:48:0::1;78292:22;::::0;:35:::1;::::0;78319:7;78292:26:::1;:35::i;:::-;78281:7;:46;;78273:76;;;::::0;-1:-1:-1;;;78273:76:0;;14153:2:1;78273:76:0::1;::::0;::::1;14135:21:1::0;14192:2;14172:18;;;14165:30;-1:-1:-1;;;14211:18:1;;;14204:47;14268:18;;78273:76:0::1;14125:167:1::0;78273:76:0::1;78381:8;::::0;-1:-1:-1;;;78381:8:0;::::1;;;78362:89;;78416:23;78431:7;78416:14;:23::i;:::-;2440:1;78089:369:::0;:::o;60729:197::-;2222:6;;-1:-1:-1;;;;;2222:6:0;;;;;805:10;2369:23;2361:68;;;;-1:-1:-1;;;2361:68:0;;;;;;;:::i;:::-;47773:2:::1;60817:6;:22;;;;60809:40;;;;-1:-1:-1::0;;;60809:40:0::1;;;;;;;:::i;:::-;60860:30;::::0;::::1;:21;:30:::0;60901:17:::1;:15;:17::i;8565:95::-:0;8612:13;8645:7;8638:14;;;;;:::i;56862:182::-;2222:6;;-1:-1:-1;;;;;2222:6:0;;;;;805:10;2369:23;2361:68;;;;-1:-1:-1;;;2361:68:0;;;;;;;:::i;:::-;56969:1:::1;56954:12;:16;56946:47;;;::::0;-1:-1:-1;;;56946:47:0;;15541:2:1;56946:47:0::1;::::0;::::1;15523:21:1::0;15580:2;15560:18;;;15553:30;-1:-1:-1;;;15599:18:1;;;15592:48;15657:18;;56946:47:0::1;15513:168:1::0;56946:47:0::1;57004:17;:32:::0;56862:182::o;61122:200::-;2222:6;;-1:-1:-1;;;;;2222:6:0;;;;;805:10;2369:23;2361:68;;;;-1:-1:-1;;;2361:68:0;;;;;;;:::i;:::-;47773:2:::1;61212:6;:22;;;;61204:40;;;;-1:-1:-1::0;;;61204:40:0::1;;;;;;;:::i;:::-;61255:31;::::0;::::1;:22;:31:::0;61297:17:::1;:15;:17::i;61960:204::-:0;2222:6;;-1:-1:-1;;;;;2222:6:0;;;;;805:10;2369:23;2361:68;;;;-1:-1:-1;;;2361:68:0;;;;;;;:::i;:::-;62067:13:::1;-1:-1:-1::0;;;;;62059:21:0::1;:4;-1:-1:-1::0;;;;;62059:21:0::1;;;62051:51;;;::::0;-1:-1:-1;;;62051:51:0;;15888:2:1;62051:51:0::1;::::0;::::1;15870:21:1::0;15927:2;15907:18;;;15900:30;-1:-1:-1;;;15946:18:1;;;15939:47;16003:18;;62051:51:0::1;15860:167:1::0;62051:51:0::1;62115:41;62144:4;62150:5;62115:28;:41::i;54132:103::-:0;2222:6;;-1:-1:-1;;;;;2222:6:0;;;;;805:10;2369:23;2361:68;;;;-1:-1:-1;;;2361:68:0;;;;;;;:::i;:::-;54203:11:::1;:24:::0;;;::::1;;-1:-1:-1::0;;;54203:24:0::1;-1:-1:-1::0;;;;54203:24:0;;::::1;::::0;;;::::1;::::0;;54132:103::o;64145:147::-;64247:18;;:37;;-1:-1:-1;;;64247:37:0;;-1:-1:-1;;;;;5667:32:1;;;64247:37:0;;;5649:51:1;64220:7:0;;64247:18;;:28;;5622:18:1;;64247:37:0;5604:102:1;12603:269:0;12696:4;12713:129;805:10;12736:7;12745:96;12784:15;12745:96;;;;;;;;;;;;;;;;;805:10;12745:25;;;;:11;:25;;;;;;;;-1:-1:-1;;;;;12745:34:0;;;;;;;;;;;;:38;:96::i;53980:144::-;54069:18;;:47;;;-1:-1:-1;;;54069:47:0;;;;54042:7;;-1:-1:-1;;;;;54069:18:0;;:45;;:47;;;;;;;;;;;;;;:18;:47;;;;;;;;;;64455:288;64697:18;;:38;;-1:-1:-1;;;64697:38:0;;-1:-1:-1;;;;;5667:32:1;;;64697:38:0;;;5649:51:1;64546:7:0;;;;;;;;;;;;;;;;64697:18;;;:29;;5622:18:1;;64697:38:0;;;;;;;;;;;;;;;;;;;;;;;;;;;;;;;;;;;;;;;;;;;;;;;;;;;;;;;;;;;;;;:::i;:::-;64690:45;;;;;;;;;;;;;;;;64455:288;;;;;;;;;:::o;9965:175::-;10051:4;10068:42;805:10;10092:9;10103:6;10068:9;:42::i;54857:161::-;2222:6;;-1:-1:-1;;;;;2222:6:0;;;;;805:10;2369:23;2361:68;;;;-1:-1:-1;;;2361:68:0;;;;;;;:::i;:::-;54938:33:::1;54954:10;54966:4;54938:15;:33::i;:::-;54982:15;:28:::0;;-1:-1:-1;;;;;;54982:28:0::1;-1:-1:-1::0;;;;;54982:28:0;;;::::1;::::0;;;::::1;::::0;;54857:161::o;55356:133::-;2222:6;;-1:-1:-1;;;;;2222:6:0;;;;;805:10;2369:23;2361:68;;;;-1:-1:-1;;;2361:68:0;;;;;;;:::i;:::-;55459:22:::1;:11:::0;55474:6:::1;55459:22;:::i;:::-;55438:18;:43:::0;-1:-1:-1;55356:133:0:o;61745:207::-;2222:6;;-1:-1:-1;;;;;2222:6:0;;;;;805:10;2369:23;2361:68;;;;-1:-1:-1;;;2361:68:0;;;;;;;:::i;:::-;61819:18:::1;::::0;:57:::1;::::0;-1:-1:-1;;;61819:57:0;;-1:-1:-1;;;;;5667:32:1;;;61819:57:0::1;::::0;::::1;5649:51:1::0;61819:18:0;;::::1;::::0;:39:::1;::::0;5622:18:1;;61819:57:0::1;;;;;;;;;;;;;;;;;::::0;::::1;;;;;;;;;;;;::::0;::::1;;;;;-1:-1:-1::0;;61887:18:0::1;::::0;:57:::1;::::0;-1:-1:-1;;;61887:57:0;;-1:-1:-1;;;;;5667:32:1;;;61887:57:0::1;::::0;::::1;5649:51:1::0;61887:18:0;;::::1;::::0;-1:-1:-1;61887:39:0::1;::::0;-1:-1:-1;5622:18:1;;61887:57:0::1;5604:102:1::0;52824:129:0;2222:6;;-1:-1:-1;;;;;2222:6:0;;;;;805:10;2369:23;2361:68;;;;-1:-1:-1;;;2361:68:0;;;;;;;:::i;:::-;52927:18:::1;:7:::0;52938:6:::1;52927:18;:::i;:::-;52901:23;:44:::0;-1:-1:-1;52824:129:0:o;67354:147::-;67449:18;;:44;;;-1:-1:-1;;;67449:44:0;;;;67422:7;;-1:-1:-1;;;;;67449:18:0;;:42;;:44;;;;;;;;;;;;;;:18;:44;;;;;;;;;;58281:495;2222:6;;-1:-1:-1;;;;;2222:6:0;;;;;805:10;2369:23;2361:68;;;;-1:-1:-1;;;2361:68:0;;;;;;;:::i;:::-;58365:18:::1;::::0;::::1;-1:-1:-1::0;;;58365:18:0;;::::1;;:30;;::::0;::::1;;;;58357:54;;;;-1:-1:-1::0;;;58357:54:0::1;;;;;;;:::i;:::-;58428:17:::0;58424:317:::1;;58494:21;::::0;;58462:29:::1;:53:::0;-1:-1:-1;58530:25:0;;58570:18:::1;:29:::0;;-1:-1:-1;;;;58570:29:0::1;-1:-1:-1::0;;;58570:29:0;::::1;;;;::::0;;58424:317:::1;;;58656:29;::::0;58632:21:::1;:53:::0;58700:18:::1;:29:::0;;-1:-1:-1;;;;58700:29:0::1;-1:-1:-1::0;;;58700:29:0;::::1;;;;::::0;;58751:17:::1;:15;:17::i;59234:637::-:0;2222:6;;-1:-1:-1;;;;;2222:6:0;;;;;805:10;2369:23;2361:68;;;;-1:-1:-1;;;2361:68:0;;;;;;;:::i;:::-;59318:40:::1;59388:10;59318:82;;59462:4;-1:-1:-1::0;;;;;59421:46:0::1;:21;-1:-1:-1::0;;;;;59421:27:0::1;;:29;;;;;;;;;;;;;;;;;;;;;;;;;;;::::0;::::1;;;;;;;;;;;;::::0;::::1;;;;;;;;;;;;;;;;;;;;;;;;;;;;;;;:::i;:::-;-1:-1:-1::0;;;;;59421:46:0::1;;59413:86;;;::::0;-1:-1:-1;;;59413:86:0;;12718:2:1;59413:86:0::1;::::0;::::1;12700:21:1::0;12757:2;12737:18;;;12730:30;12796:29;12776:18;;;12769:57;12843:18;;59413:86:0::1;12690:177:1::0;59413:86:0::1;59512:74;::::0;-1:-1:-1;;;59512:74:0;;-1:-1:-1;;;;;59512:42:0;::::1;:74;::::0;::::1;5649:51:1::0;;;59512:42:0;::::1;::::0;5622:18:1;;59512:74:0::1;;;;;;;;;;;;;;;;;::::0;::::1;;;;;;;;;;;;::::0;::::1;;;;;-1:-1:-1::0;;59597:57:0::1;::::0;-1:-1:-1;;;59597:57:0;;59648:4:::1;59597:57;::::0;::::1;5649:51:1::0;-1:-1:-1;;;;;59597:42:0;::::1;::::0;-1:-1:-1;59597:42:0::1;::::0;-1:-1:-1;5622:18:1;;59597:57:0::1;;;;;;;;;;;;;;;;;::::0;::::1;;;;;;;;;;;;::::0;::::1;;;;;-1:-1:-1::0;;59716:15:0::1;::::0;59665:68:::1;::::0;-1:-1:-1;;;59665:68:0;;-1:-1:-1;;;;;59716:15:0;;::::1;59665:68;::::0;::::1;5649:51:1::0;59665:42:0;;::::1;::::0;-1:-1:-1;59665:42:0::1;::::0;-1:-1:-1;5622:18:1;;59665:68:0::1;;;;;;;;;;;;;;;;;::::0;::::1;;;;;;;;;;;;::::0;::::1;;;;;-1:-1:-1::0;;59795:11:0::1;::::0;59744:64:::1;::::0;-1:-1:-1;;;59744:64:0;;-1:-1:-1;;;;;59795:11:0;;::::1;59744:64;::::0;::::1;5649:51:1::0;59744:42:0;;::::1;::::0;-1:-1:-1;59744:42:0::1;::::0;-1:-1:-1;5622:18:1;;59744:64:0::1;;;;;;;;;;;;;;;;;::::0;::::1;;;;;;;;;;;;::::0;::::1;;;;;-1:-1:-1::0;;59821:18:0::1;:42:::0;;-1:-1:-1;;;;;;59821:42:0::1;-1:-1:-1::0;;;;;59821:42:0;;;::::1;::::0;;;::::1;::::0;;;-1:-1:-1;;;59234:637:0:o;61475:262::-;2222:6;;-1:-1:-1;;;;;2222:6:0;;;;;805:10;2369:23;2361:68;;;;-1:-1:-1;;;2361:68:0;;;;;;;:::i;:::-;-1:-1:-1;;;;;61568:27:0;::::1;;::::0;;;:18:::1;:27;::::0;;;;;::::1;;:39;;::::0;::::1;;;;61560:68;;;::::0;-1:-1:-1;;;61560:68:0;;11684:2:1;61560:68:0::1;::::0;::::1;11666:21:1::0;11723:2;11703:18;;;11696:30;-1:-1:-1;;;11742:18:1;;;11735:46;11798:18;;61560:68:0::1;11656:166:1::0;61560:68:0::1;-1:-1:-1::0;;;;;61639:27:0;::::1;;::::0;;;:18:::1;:27;::::0;;;;;;;;:38;;-1:-1:-1;;61639:38:0::1;::::0;::::1;;::::0;;::::1;::::0;;;61695:34;;7769:41:1;;;61695:34:0::1;::::0;7742:18:1;61695:34:0::1;;;;;;;61475:262:::0;;:::o;65047:298::-;65294:18;;:43;;-1:-1:-1;;;65294:43:0;;;;;16178:25:1;;;65143:7:0;;;;;;;;;;;;;;;;-1:-1:-1;;;;;65294:18:0;;;;:36;;16151:18:1;;65294:43:0;16133:76:1;67052:143:0;67145:18;;:42;;;-1:-1:-1;;;67145:42:0;;;;67118:7;;-1:-1:-1;;;;;67145:18:0;;:40;;:42;;;;;;;;;;;;;;:18;:42;;;;;;;;;;57246:524;2222:6;;-1:-1:-1;;;;;2222:6:0;;;;;805:10;2369:23;2361:68;;;;-1:-1:-1;;;2361:68:0;;;;;;;:::i;:::-;57336:24:::1;::::0;::::1;-1:-1:-1::0;;;57336:24:0;;::::1;;:36;;::::0;::::1;;;;57328:60;;;;-1:-1:-1::0;;;57328:60:0::1;;;;;;;:::i;:::-;57405:17:::0;57401:334:::1;;57472:22;::::0;;57439:30:::1;:55:::0;-1:-1:-1;57509:26:0;;57550:24:::1;:35:::0;;-1:-1:-1;;;;57550:35:0::1;-1:-1:-1::0;;;57550:35:0;::::1;;;;::::0;;57401:334:::1;;;57643:30;::::0;57618:22:::1;:55:::0;57688:24:::1;:35:::0;;-1:-1:-1;;;;57688:35:0::1;-1:-1:-1::0;;;57688:35:0;::::1;;;;::::0;;57745:17:::1;:15;:17::i;63122:114::-:0;63198:18;;:30;;;-1:-1:-1;;;63198:30:0;;;;63171:7;;-1:-1:-1;;;;;63198:18:0;;:28;;:30;;;;;;;;;;;;;;:18;:30;;;;;;;;;;60934:180;2222:6;;-1:-1:-1;;;;;2222:6:0;;;;;805:10;2369:23;2361:68;;;;-1:-1:-1;;;2361:68:0;;;;;;;:::i;:::-;47773:2:::1;61014:6;:22;;;;61006:40;;;;-1:-1:-1::0;;;61006:40:0::1;;;;;;;:::i;:::-;61057:21;::::0;::::1;:12;:21:::0;61089:17:::1;:15;:17::i;54556:134::-:0;2222:6;;-1:-1:-1;;;;;2222:6:0;;;;;805:10;2369:23;2361:68;;;;-1:-1:-1;;;2361:68:0;;;;;;;:::i;:::-;54645:23:::1;:37:::0;;-1:-1:-1;;;;;;54645:37:0::1;-1:-1:-1::0;;;;;54645:37:0;;;::::1;::::0;;;::::1;::::0;;54556:134::o;65353:298::-;65600:18;;:43;;-1:-1:-1;;;65600:43:0;;;;;16178:25:1;;;65449:7:0;;;;;;;;;;;;;;;;-1:-1:-1;;;;;65600:18:0;;;;:36;;16151:18:1;;65600:43:0;16133:76:1;3425:226:0;2222:6;;-1:-1:-1;;;;;2222:6:0;;;;;805:10;2369:23;2361:68;;;;-1:-1:-1;;;2361:68:0;;;;;;;:::i;:::-;3506:6:::1;::::0;;3489:14:::1;:23:::0;;-1:-1:-1;;;;;;3489:23:0::1;-1:-1:-1::0;;;;;3506:6:0::1;::::0;::::1;;3489:23;::::0;;-1:-1:-1;;;;;;3523:19:0::1;::::0;;3565:22:::1;3583:4:::0;3565:15:::1;:22;:::i;:::-;3553:9;:34:::0;3624:6:::1;::::0;3603:40:::1;::::0;3640:1:::1;::::0;3624:6:::1;::::0;::::1;-1:-1:-1::0;;;;;3624:6:0::1;::::0;3603:40:::1;::::0;3640:1;;3603:40:::1;3425:226:::0;:::o;53298:190::-;2222:6;;-1:-1:-1;;;;;2222:6:0;;;;;805:10;2369:23;2361:68;;;;-1:-1:-1;;;2361:68:0;;;;;;;:::i;:::-;53382:16:::1;:31:::0;;-1:-1:-1;;;;;;53382:31:0::1;-1:-1:-1::0;;;;;53382:31:0;;::::1;::::0;;::::1;::::0;;;53424:18:::1;::::0;:56:::1;::::0;-1:-1:-1;;;53424:56:0;;::::1;::::0;::::1;5649:51:1::0;;;;53424:18:0;;::::1;::::0;:42:::1;::::0;5622:18:1;;53424:56:0::1;5604:102:1::0;56263:109:0;2222:6;;-1:-1:-1;;;;;2222:6:0;;;;;805:10;2369:23;2361:68;;;;-1:-1:-1;;;2361:68:0;;;;;;;:::i;:::-;56337:16:::1;:27:::0;;;::::1;;-1:-1:-1::0;;;56337:27:0::1;-1:-1:-1::0;;;;56337:27:0;;::::1;::::0;;;::::1;::::0;;56263:109::o;57778:495::-;2222:6;;-1:-1:-1;;;;;2222:6:0;;;;;805:10;2369:23;2361:68;;;;-1:-1:-1;;;2361:68:0;;;;;;;:::i;:::-;57862:18:::1;::::0;::::1;-1:-1:-1::0;;;57862:18:0;;::::1;;:30;;::::0;::::1;;;;57854:54;;;;-1:-1:-1::0;;;57854:54:0::1;;;;;;;:::i;:::-;57925:17:::0;57921:317:::1;;57991:21;::::0;;57959:29:::1;:53:::0;-1:-1:-1;58027:25:0;;58067:18:::1;:29:::0;;-1:-1:-1;;;;58067:29:0::1;-1:-1:-1::0;;;58067:29:0;::::1;;;;::::0;;57921:317:::1;;;58153:29;::::0;58129:21:::1;:53:::0;58197:18:::1;:29:::0;;-1:-1:-1;;;;58197:29:0::1;-1:-1:-1::0;;;58197:29:0;::::1;;;;::::0;;58248:17:::1;:15;:17::i;64751:288::-:0;64993:18;;:38;;-1:-1:-1;;;64993:38:0;;-1:-1:-1;;;;;5667:32:1;;;64993:38:0;;;5649:51:1;64842:7:0;;;;;;;;;;;;;;;;64993:18;;;:29;;5622:18:1;;64993:38:0;5604:102:1;62931:183:0;2222:6;;-1:-1:-1;;;;;2222:6:0;;;;;805:10;2369:23;2361:68;;;;-1:-1:-1;;;2361:68:0;;;;;;;:::i;:::-;63005:18:::1;::::0;:45:::1;::::0;-1:-1:-1;;;63005:45:0;;::::1;::::0;::::1;16178:25:1::0;;;-1:-1:-1;;;;;63005:18:0;;::::1;::::0;:34:::1;::::0;16151:18:1;;63005:45:0::1;;;;;;;;;;;;;;;;;::::0;::::1;;;;;;;;;;;;::::0;::::1;;;;;-1:-1:-1::0;;63061:18:0::1;::::0;:45:::1;::::0;-1:-1:-1;;;63061:45:0;;::::1;::::0;::::1;16178:25:1::0;;;-1:-1:-1;;;;;63061:18:0;;::::1;::::0;-1:-1:-1;63061:34:0::1;::::0;-1:-1:-1;16151:18:1;;63061:45:0::1;16133:76:1::0;63521:147:0;63614:18;;:46;;;-1:-1:-1;;;63614:46:0;;;;63587:7;;-1:-1:-1;;;;;63614:18:0;;:44;;:46;;;;;;;;;;;;;;:18;:46;;;;;;;;;;3103:244;2222:6;;-1:-1:-1;;;;;2222:6:0;;;;;805:10;2369:23;2361:68;;;;-1:-1:-1;;;2361:68:0;;;;;;;:::i;:::-;-1:-1:-1;;;;;3192:22:0;::::1;3184:73;;;::::0;-1:-1:-1;;;3184:73:0;;10207:2:1;3184:73:0::1;::::0;::::1;10189:21:1::0;10246:2;10226:18;;;10219:30;10285:34;10265:18;;;10258:62;-1:-1:-1;;;10336:18:1;;;10329:36;10382:19;;3184:73:0::1;10179:228:1::0;3184:73:0::1;3294:6;::::0;3273:38:::1;::::0;-1:-1:-1;;;;;3273:38:0;;::::1;::::0;3294:6:::1;::::0;::::1;;::::0;3273:38:::1;::::0;;;::::1;3322:6;:17:::0;;-1:-1:-1;;;;;3322:17:0;;::::1;;;-1:-1:-1::0;;;;;;3322:17:0;;::::1;::::0;;;::::1;::::0;;3103:244::o;55497:132::-;2222:6;;-1:-1:-1;;;;;2222:6:0;;;;;805:10;2369:23;2361:68;;;;-1:-1:-1;;;2361:68:0;;;;;;;:::i;:::-;55586:21:::1;:35:::0;55497:132::o;41094:179::-;41152:7;;41184:5;41188:1;41184;:5;:::i;:::-;41172:17;;41213:1;41208;:6;;41200:46;;;;-1:-1:-1;;;41200:46:0;;10614:2:1;41200:46:0;;;10596:21:1;10653:2;10633:18;;;10626:30;10692:29;10672:18;;;10665:57;10739:18;;41200:46:0;10586:177:1;41200:46:0;41264:1;41094:179;-1:-1:-1;;;41094:179:0:o;57052:186::-;57111:119;57210:19;;57111:94;57183:21;;57111:67;57156:21;;57111:40;57138:12;;57111:22;;:26;;:40;;;;:::i;:::-;:44;;:67::i;:119::-;57099:9;:131;57052:186::o;15639:300::-;-1:-1:-1;;;;;15741:19:0;;15733:44;;;;-1:-1:-1;;;15733:44:0;;;;;;;:::i;:::-;-1:-1:-1;;;;;15796:21:0;;15788:46;;;;-1:-1:-1;;;15788:46:0;;;;;;;:::i;:::-;-1:-1:-1;;;;;15847:18:0;;;;;;;:11;:18;;;;;;;;:27;;;;;;;;;;;;;:36;;;15899:32;;16178:25:1;;;15899:32:0;;16151:18:1;15899:32:0;;;;;;;;15639:300;;;:::o;67664:7683::-;-1:-1:-1;;;;;67796:18:0;;67788:43;;;;-1:-1:-1;;;67788:43:0;;;;;;;:::i;:::-;-1:-1:-1;;;;;67850:16:0;;67842:41;;;;-1:-1:-1;;;67842:41:0;;;;;;;:::i;:::-;67902:16;;-1:-1:-1;;;67902:16:0;;;;;:72;;-1:-1:-1;;;;;;67923:24:0;;;;;;:18;:24;;;;;;;;;:50;;-1:-1:-1;;;;;;67951:22:0;;;;;;:18;:22;;;;;;;;67923:50;67894:104;;;;-1:-1:-1;;;67894:104:0;;12370:2:1;67894:104:0;;;12352:21:1;12409:2;12389:18;;;12382:30;-1:-1:-1;;;12428:18:1;;;12421:49;12487:18;;67894:104:0;12342:169:1;67894:104:0;-1:-1:-1;;;;;68034:24:0;;68011:20;68034:24;;;:18;:24;;;;;;;;;:50;;-1:-1:-1;;;;;;68062:22:0;;;;;;:18;:22;;;;;;;;68034:50;68115:16;;68011:73;;-1:-1:-1;;;;68115:16:0;;;;:64;;;;-1:-1:-1;;;;;;68148:31:0;;;;;;:25;:31;;;;;;;;68115:64;:97;;;;;68197:15;68196:16;68115:97;68097:4599;;;68257:23;;68247:6;:33;;68239:58;;;;-1:-1:-1;;;68239:58:0;;;;;;;:::i;:::-;68314:32;68349:13;68359:2;68349:9;:13::i;:::-;68422:14;;68314:48;;-1:-1:-1;68385:33:0;68412:6;68314:48;68385:33;:::i;:::-;:51;;68377:76;;;;-1:-1:-1;;;68377:76:0;;;;;;;:::i;:::-;68097:4599;;;;68489:16;;-1:-1:-1;;;68489:16:0;;;;:62;;;;-1:-1:-1;;;;;;68522:29:0;;;;;;:25;:29;;;;;;;;68489:62;:95;;;;;68569:15;68568:16;68489:95;68471:4225;;;68629:24;;68619:6;:34;;68611:59;;;;-1:-1:-1;;;68611:59:0;;;;;;;:::i;:::-;68687:28;68718:24;68736:4;68718:9;:24::i;:::-;68764:8;;68687:55;;-1:-1:-1;;;;68764:8:0;;;;68763:9;:55;;;;;68800:18;;68776:20;:42;;68763:55;68759:3340;;;68839:8;:15;;-1:-1:-1;;;;68839:15:0;-1:-1:-1;;;68839:15:0;;;;;-1:-1:-1;;;68878:16:0;;68839:15;68878:16;:44;;;;-1:-1:-1;68898:24:0;;-1:-1:-1;;;68898:24:0;;;;68878:44;:71;;;;;68948:1;68926:19;;:23;68878:71;:86;;;;-1:-1:-1;68953:11:0;;-1:-1:-1;;;68953:11:0;;;;68878:86;68875:2696;;;68990:18;69011:65;69056:19;;69011:40;69028:22;;69011:12;;:16;;:40;;;;:::i;:65::-;68990:86;;69101:18;69122:51;69163:9;;69122:36;69147:10;69122:20;:24;;:36;;;;:::i;:::-;:40;;:51::i;:::-;69101:72;-1:-1:-1;69221:21:0;69265:28;69101:72;69265:16;:28::i;:::-;69316:22;69341:39;:21;69367:12;69341:25;:39::i;:::-;69316:64;-1:-1:-1;69408:18:0;;69405:631;;69454:19;69476:67;69537:5;69476:56;69521:10;69476:40;69513:2;69476:32;69495:12;;69476:14;:18;;:32;;;;:::i;:::-;:36;;:40::i;:67::-;69454:89;;69570:24;69597:67;69658:5;69597:56;69642:10;69597:40;69634:2;69597:32;69616:12;;69597:14;:18;;:32;;;;:::i;:67::-;69716:10;;69570:94;;-1:-1:-1;69691:50:0;;-1:-1:-1;;;;;69716:10:0;69729:11;69691:16;:50::i;:::-;69793:15;;69768:60;;-1:-1:-1;;;;;69793:15:0;69811:16;69768;:60::i;:::-;69857:27;69887:55;69931:10;69887:39;69906:19;;69887:14;:18;;:39;;;;:::i;:55::-;69857:85;;69969:43;69992:19;69969:22;:43::i;:::-;69405:631;;;;68875:2696;;;;;;;70086:16;;-1:-1:-1;;;70086:16:0;;;;70082:791;;;70131:18;70152:53;70195:9;;70152:38;70177:12;;70152:20;:24;;:38;;;;:::i;:53::-;70131:74;-1:-1:-1;70257:21:0;70305:28;70131:74;70305:16;:28::i;:::-;70360:22;70385:39;:21;70411:12;70385:25;:39::i;:::-;70360:64;-1:-1:-1;70456:18:0;;70453:397;;70506:19;70528:33;70555:5;70528:22;:14;70547:2;70528:18;:22::i;:33::-;70506:55;-1:-1:-1;70592:24:0;70619:31;:14;70506:55;70619:18;:31::i;:::-;70706:15;;70592:58;;-1:-1:-1;70681:60:0;;-1:-1:-1;;;;;70706:15:0;70592:58;70681:16;:60::i;:::-;70797:10;;70772:50;;-1:-1:-1;;;;;70797:10:0;70810:11;70772:16;:50::i;:::-;70453:397;;;70082:791;;;;70901:24;;-1:-1:-1;;;70901:24:0;;;;70897:377;;;70957:11;;-1:-1:-1;;;70957:11:0;;;;70954:297;;;71000:81;71017:63;71070:9;;71017:48;71042:22;;71017:20;:24;;:48;;;;:::i;:63::-;71000:16;:81::i;:::-;70954:297;;;71144:79;71159:63;71212:9;;71159:48;71184:22;;71159:20;:24;;:48;;;;:::i;:63::-;71144:14;:79::i;:::-;71301:19;;:23;71298:254;;71352:34;71389:60;71439:9;;71389:45;71414:19;;71389:20;:24;;:45;;;;:::i;:60::-;71352:97;;71476:52;71501:26;71476:24;:52::i;:::-;71298:254;;71595:18;;-1:-1:-1;;;71595:18:0;;;;71591:218;;;71638:18;71659:62;71711:9;;71659:47;71684:21;;71659:20;:24;;:47;;;;:::i;:62::-;71638:83;-1:-1:-1;71744:45:0;71768:20;71638:83;71783:4;71768:14;:20::i;:::-;71744:23;:45::i;:::-;71591:218;;71833:18;;-1:-1:-1;;;71833:18:0;;;;71829:218;;;71876:18;71897:62;71949:9;;71897:47;71922:21;;71897:20;:24;;:47;;;;:::i;:62::-;71876:83;-1:-1:-1;71982:45:0;72006:20;71876:83;72021:4;72006:14;:20::i;:::-;71982:23;:45::i;:::-;71829:218;;72067:8;:16;;-1:-1:-1;;;;72067:16:0;;;68759:3340;72120:8;;-1:-1:-1;;;72120:8:0;;;;72119:9;:37;;;;-1:-1:-1;72132:24:0;;-1:-1:-1;;;72132:24:0;;;;72119:37;:52;;;;-1:-1:-1;72160:11:0;;-1:-1:-1;;;72160:11:0;;;;72119:52;72115:570;;;72287:22;;72222:21;;72266:43;;;;;:79;;;72323:22;;72313:6;:32;;72266:79;72262:408;;;72370:8;:15;;-1:-1:-1;;;;72370:15:0;-1:-1:-1;;;72370:15:0;;;72434:17;;72414:37;;72410:131;;;-1:-1:-1;72500:17:0;;72410:131;72565:44;72580:28;:17;72602:5;72580:21;:28::i;:::-;72565:14;:44::i;:::-;72634:8;:16;;-1:-1:-1;;;;72634:16:0;;;72262:408;72115:570;;68471:4225;;72711:16;;-1:-1:-1;;;72711:16:0;;;;:29;;;;-1:-1:-1;72732:8:0;;-1:-1:-1;;;72732:8:0;;;;72731:9;72711:29;:49;;;;;72745:15;72744:16;72711:49;72708:418;;;72777:12;72792:30;72818:3;72792:21;72803:9;;72792:6;:10;;:21;;;;:::i;:30::-;-1:-1:-1;;;;;72901:29:0;;;;;;:25;:29;;;;;;72777:45;;-1:-1:-1;72901:29:0;;72898:116;;;72958:40;72994:3;72958:31;72967:21;;72958:4;:8;;:31;;;;:::i;:40::-;72951:47;;72898:116;73039:16;:6;73050:4;73039:10;:16::i;:::-;73030:25;;73072:42;73088:4;73102;73109;73072:15;:42::i;:::-;72708:418;;73138:33;73154:4;73160:2;73164:6;73138:15;:33::i;:::-;73188:18;;-1:-1:-1;;;;;73188:18:0;:29;73226:4;73233:15;73226:4;73233:9;:15::i;:::-;73188:61;;-1:-1:-1;;;;;;73188:61:0;;;;;;;-1:-1:-1;;;;;6224:32:1;;;73188:61:0;;;6206:51:1;6273:18;;;6266:34;6179:18;;73188:61:0;;;;;;;;;;;;;;;;;;;;;;;;;;;;;;;;;;73184:77;73275:18;;-1:-1:-1;;;;;73275:18:0;:29;73313:4;73320:15;73313:4;73320:9;:15::i;:::-;73275:61;;-1:-1:-1;;;;;;73275:61:0;;;;;;;-1:-1:-1;;;;;6224:32:1;;;73275:61:0;;;6206:51:1;6273:18;;;6266:34;6179:18;;73275:61:0;;;;;;;;;;;;;;;;;;;;;;;;;;;;;;;;;;73271:77;73362:18;;-1:-1:-1;;;;;73362:18:0;:29;73400:2;73405:13;73400:2;73405:9;:13::i;:::-;73362:57;;-1:-1:-1;;;;;;73362:57:0;;;;;;;-1:-1:-1;;;;;6224:32:1;;;73362:57:0;;;6206:51:1;6273:18;;;6266:34;6179:18;;73362:57:0;;;;;;;;;;;;;;;;;;;;;;;;;;;;;;;;;;73358:73;73445:18;;-1:-1:-1;;;;;73445:18:0;:29;73483:2;73488:13;73483:2;73488:9;:13::i;:::-;73445:57;;-1:-1:-1;;;;;;73445:57:0;;;;;;;-1:-1:-1;;;;;6224:32:1;;;73445:57:0;;;6206:51:1;6273:18;;;6266:34;6179:18;;73445:57:0;;;;;;;;;;;;;;;;;;;;;;;;;;;;;;;;;;73441:73;73530:8;;-1:-1:-1;;;73530:8:0;;;;73529:9;:30;;;;-1:-1:-1;73548:11:0;;-1:-1:-1;;;;;73542:17:0;;;73548:11;;73542:17;;73529:30;73526:1814;;;73590:16;;73636:19;;73626:6;:4;:6::i;:::-;:29;73623:1706;;73682:18;;-1:-1:-1;;;73682:18:0;;;;:33;;;;-1:-1:-1;73704:11:0;;-1:-1:-1;;;73704:11:0;;;;73682:33;73678:389;;;73744:18;;:31;;-1:-1:-1;;;;;;73744:31:0;;;;;16178:25:1;;;-1:-1:-1;;;;;73744:18:0;;;;:26;;16151:18:1;;73744:31:0;;;;;;;;;;;;;;;;;;;;;;;;;;;;;;;-1:-1:-1;73744:31:0;;;;;;;;-1:-1:-1;;73744:31:0;;;;;;;;;;;;:::i;:::-;;;73740:308;;;;;73881:89;;;17356:25:1;;;17412:2;17397:18;;17390:34;;;17440:18;;;17433:34;;;17498:2;17483:18;;17476:34;;;73960:9:0;;73949:4;;73881:89;;17343:3:1;17328:19;73881:89:0;;;;;;;73776:218;;;73740:308;74091:18;;-1:-1:-1;;;74091:18:0;;;;:33;;;;-1:-1:-1;74113:11:0;;-1:-1:-1;;;74113:11:0;;;;74091:33;74087:389;;;74153:18;;:31;;-1:-1:-1;;;;;;74153:31:0;;;;;16178:25:1;;;-1:-1:-1;;;;;74153:18:0;;;;:26;;16151:18:1;;74153:31:0;;;;;;;;;;;;;;;;;;;;;;;;;;;;;;;-1:-1:-1;74153:31:0;;;;;;;;-1:-1:-1;;74153:31:0;;;;;;;;;;;;:::i;:::-;;;74149:308;;73623:1706;;74149:308;74290:89;;;17356:25:1;;;17412:2;17397:18;;17390:34;;;17440:18;;;17433:34;;;17498:2;17483:18;;17476:34;;;74369:9:0;;74358:4;;74290:89;;17343:3:1;17328:19;74290:89:0;;;;;;;74185:218;;;74149:308;73623:1706;;;74520:18;;-1:-1:-1;;;74520:18:0;;;;:33;;;;-1:-1:-1;74542:11:0;;-1:-1:-1;;;74542:11:0;;;;74520:33;74516:389;;;74582:18;;:31;;-1:-1:-1;;;;;;74582:31:0;;;;;16178:25:1;;;-1:-1:-1;;;;;74582:18:0;;;;:26;;16151:18:1;;74582:31:0;;;;;;;;;;;;;;;;;;;;;;;;;;;;;;;-1:-1:-1;74582:31:0;;;;;;;;-1:-1:-1;;74582:31:0;;;;;;;;;;;;:::i;:::-;;;74578:308;;;;;74719:89;;;17356:25:1;;;17412:2;17397:18;;17390:34;;;17440:18;;;17433:34;;;17498:2;17483:18;;17476:34;;;74798:9:0;;74787:4;;74719:89;;17343:3:1;17328:19;74719:89:0;;;;;;;74614:218;;;74578:308;74929:18;;-1:-1:-1;;;74929:18:0;;;;:33;;;;-1:-1:-1;74951:11:0;;-1:-1:-1;;;74951:11:0;;;;74929:33;74925:389;;;74991:18;;:31;;-1:-1:-1;;;;;;74991:31:0;;;;;16178:25:1;;;-1:-1:-1;;;;;74991:18:0;;;;:26;;16151:18:1;;74991:31:0;;;;;;;;;;;;;;;;;;;;;;;;;;;;;;;-1:-1:-1;74991:31:0;;;;;;;;-1:-1:-1;;74991:31:0;;;;;;;;;;;;:::i;:::-;;;74987:308;;;;;75128:89;;;17356:25:1;;;17412:2;17397:18;;17390:34;;;17440:18;;;17433:34;;;17498:2;17483:18;;17476:34;;;75207:9:0;;75196:4;;75128:89;;17343:3:1;17328:19;75128:89:0;;;;;;;75023:218;;;73526:1814;;67664:7683;;;;:::o;43921:166::-;44007:7;44043:12;44035:6;;;;44027:29;;;;-1:-1:-1;;;44027:29:0;;;;;;;;:::i;:::-;-1:-1:-1;44074:5:0;44078:1;44074;:5;:::i;:::-;44067:12;43921:166;-1:-1:-1;;;;43921:166:0:o;77559:522::-;77702:16;;;77716:1;77702:16;;;;;;;;77678:21;;77702:16;;;;;;;;-1:-1:-1;;77739:15:0;;:22;;;-1:-1:-1;;;77739:22:0;;;;77678:40;;-1:-1:-1;;;;;;77739:15:0;;;;:20;;-1:-1:-1;77739:22:0;;;;;;;;;;;;;;:15;:22;;;;;;;;;;;;;;;;;;;;;;;;;;;;;;;;;;;;;;;;;;;;;;;;;;;;;:::i;:::-;77729:4;77734:1;77729:7;;;;;;-1:-1:-1;;;77729:7:0;;;;;;;;;;;;;;:32;-1:-1:-1;;;;;77729:32:0;;;-1:-1:-1;;;;;77729:32:0;;;;;77790:4;77772;77777:1;77772:7;;;;;;-1:-1:-1;;;77772:7:0;;;;;;;;;-1:-1:-1;;;;;77772:23:0;;;:7;;;;;;;;;:23;77834:15;;77996:11;;77834:15;;;;:66;;77908:6;;77834:15;;77977:4;;77996:11;78038:24;:15;78058:3;78038:19;:24::i;:::-;77834:239;;;;;;;;;;;;;;;;;;:::i;:::-;;;;;;;;;;;;;;;;;;;;;;;;;;;;;;;;;;;;;;;;;;77559:522;;:::o;62172:352::-;2222:6;;-1:-1:-1;;;;;2222:6:0;;;;;805:10;2369:23;2361:68;;;;-1:-1:-1;;;2361:68:0;;;;;;;:::i;:::-;-1:-1:-1;;;;;62265:31:0;::::1;;::::0;;;:25:::1;:31;::::0;;;;:39;;-1:-1:-1;;62265:39:0::1;::::0;::::1;::::0;::::1;::::0;;;::::1;::::0;;;62317:142:::1;;62342:18;::::0;:45:::1;::::0;-1:-1:-1;;;62342:45:0;;-1:-1:-1;;;;;5667:32:1;;;62342:45:0::1;::::0;::::1;5649:51:1::0;62342:18:0;;::::1;::::0;:39:::1;::::0;5622:18:1;;62342:45:0::1;;;;;;;;;;;;;;;;;::::0;::::1;;;;;;;;;;;;::::0;::::1;;;;;-1:-1:-1::0;;62402:18:0::1;::::0;:45:::1;::::0;-1:-1:-1;;;62402:45:0;;-1:-1:-1;;;;;5667:32:1;;;62402:45:0::1;::::0;::::1;5649:51:1::0;62402:18:0;;::::1;::::0;-1:-1:-1;62402:39:0::1;::::0;-1:-1:-1;5622:18:1;;62402:45:0::1;;;;;;;;;;;;;;;;;::::0;::::1;;;;;;;;;;;;::::0;::::1;;;;;;;;;62317:142;62476:40;::::0;;::::1;;::::0;-1:-1:-1;;;;;62476:40:0;::::1;::::0;::::1;::::0;;;::::1;62172:352:::0;;:::o;41973:220::-;42031:7;42055:6;42051:20;;-1:-1:-1;42070:1:0;42063:8;;42051:20;42082:9;42094:5;42098:1;42094;:5;:::i;:::-;42082:17;-1:-1:-1;42127:1:0;42118:5;42122:1;42082:17;42118:5;:::i;:::-;:10;42110:56;;;;-1:-1:-1;;;42110:56:0;;13751:2:1;42110:56:0;;;13733:21:1;13790:2;13770:18;;;13763:30;13829:34;13809:18;;;13802:62;-1:-1:-1;;;13880:18:1;;;13873:31;13921:19;;42110:56:0;13723:223:1;42671:153:0;42729:7;42761:1;42757;:5;42749:44;;;;-1:-1:-1;;;42749:44:0;;11329:2:1;42749:44:0;;;11311:21:1;11368:2;11348:18;;;11341:30;11407:28;11387:18;;;11380:56;11453:18;;42749:44:0;11301:176:1;42749:44:0;42811:5;42815:1;42811;:5;:::i;78466:600::-;78616:16;;;78630:1;78616:16;;;;;;;;78592:21;;78616:16;;;;;;;;;;-1:-1:-1;78616:16:0;78592:40;;78661:4;78643;78648:1;78643:7;;;;;;-1:-1:-1;;;78643:7:0;;;;;;;;;-1:-1:-1;;;;;78643:23:0;;;:7;;;;;;;;;;:23;;;;78687:15;;:22;;;-1:-1:-1;;;78687:22:0;;;;:15;;;;;:20;;:22;;;;;78643:7;;78687:22;;;;;:15;:22;;;;;;;;;;;;;;;;;;;;;;;;;;;;;;;;;;;;;;;;;;;;;;;;;;;;;:::i;:::-;78677:4;78682:1;78677:7;;;;;;-1:-1:-1;;;78677:7:0;;;;;;;;;-1:-1:-1;;;;;78677:32:0;;;:7;;;;;;;;;:32;78754:15;;78722:62;;78739:4;;78754:15;78772:11;78722:8;:62::i;:::-;78823:15;;-1:-1:-1;;;;;78823:15:0;:66;78904:11;78823:15;78974:4;79001;79021:24;:15;79041:3;79021:19;:24::i;:::-;78823:233;;;;;;;;;;;;;;;;;;;:::i;:::-;;;;;;;;;;;;;;;;;;;;;;;;;;;;;;;;;;;;;;;;;78466:600;;:::o;41556:158::-;41614:7;41647:1;41642;:6;;41634:49;;;;-1:-1:-1;;;41634:49:0;;10970:2:1;41634:49:0;;;10952:21:1;11009:2;10989:18;;;10982:30;11048:32;11028:18;;;11021:60;11098:18;;41634:49:0;10942:180:1;41634:49:0;41701:5;41705:1;41701;:5;:::i;81039:122::-;81127:26;;-1:-1:-1;;;;;81127:18:0;;;:26;;;;;81146:6;;81127:26;;;;81146:6;81127:18;:26;;;;;;;;;;;;;;;;;;;;;81039:122;;:::o;76416:540::-;76567:16;;;76581:1;76567:16;;;;;;;;76543:21;;76567:16;;;;;;;;-1:-1:-1;;76604:15:0;;:22;;;-1:-1:-1;;;76604:22:0;;;;76543:40;;-1:-1:-1;;;;;;76604:15:0;;;;:20;;-1:-1:-1;76604:22:0;;;;;;;;;;;;;;:15;:22;;;;;;;;;;;;;;;;;;;;;;;;;;;;;;;;;;;;;;;;;;;;;;;;;;;;;:::i;:::-;76594:4;76599:1;76594:7;;;;;;-1:-1:-1;;;76594:7:0;;;;;;;;;-1:-1:-1;;;;;76594:32:0;;;:7;;;;;;;;;:32;76647:23;;76637:7;;76647:23;;;76637:4;;76647:23;;76637:7;;;;-1:-1:-1;;;76637:7:0;;;;;;;;75355:513;75479:12;75494:27;:20;75519:1;75494:24;:27::i;:::-;75479:42;-1:-1:-1;75532:17:0;75552:30;:20;75479:42;75552:24;:30::i;:::-;75532:50;-1:-1:-1;75620:21:0;75654:22;75671:4;75654:16;:22::i;:::-;75689:18;75710:41;:21;75736:14;75710:25;:41::i;:::-;75689:62;;75764:35;75777:9;75788:10;75764:12;:35::i;:::-;75817:43;;;17003:25:1;;;17059:2;17044:18;;17037:34;;;17087:18;;;17080:34;;;75817:43:0;;16991:2:1;16976:18;75817:43:0;;;;;;;75355:513;;;;;:::o;76964:587::-;77057:16;;;77071:1;77057:16;;;;;;;;;77033:21;;77057:16;;;;;;;;;;-1:-1:-1;77057:16:0;77033:40;;77102:4;77084;77089:1;77084:7;;;;;;-1:-1:-1;;;77084:7:0;;;;;;;;;-1:-1:-1;;;;;77084:23:0;;;:7;;;;;;;;;;:23;;;;77128:15;;:22;;;-1:-1:-1;;;77128:22:0;;;;:15;;;;;:20;;:22;;;;;77084:7;;77128:22;;;;;:15;:22;;;;;;;;;;;;;;;;;;;;;;;;;;;;;;;;;;;;;;;;;;;;;;;;;;;;;:::i;:::-;77118:4;77123:1;77118:7;;;;;;-1:-1:-1;;;77118:7:0;;;;;;;;;-1:-1:-1;;;;;77118:32:0;;;:7;;;;;;;;;:32;77171:23;;77161:7;;77171:23;;;77161:4;;77166:1;;77161:7;;;;-1:-1:-1;;;77161:7:0;;;;;;;;;-1:-1:-1;;;;;77161:33:0;;;:7;;;;;;;;;:33;77239:15;;77207:57;;77224:4;;77239:15;77257:6;77207:8;:57::i;:::-;77303:15;;77482:11;;-1:-1:-1;;;;;77303:15:0;;;;:69;;77387:6;;77303:15;;77463:4;;77482:11;77508:24;:15;77528:3;77508:19;:24::i;79961:531::-;80059:16;;80095:18;;80052:63;;-1:-1:-1;;;80052:63:0;;-1:-1:-1;;;;;80095:18:0;;;80052:63;;;5649:51:1;80029:20:0;;80059:16;;;;;80052:34;;5622:18:1;;80052:63:0;;;;;;;;;;;;;;;;;;;;;;;;;;;;;;;;;;;;;;;;;;;;;;;;;;;;;;;;;;;;;:::i;:::-;80171:18;;80192:16;;80029:86;;-1:-1:-1;80128:81:0;;80155:6;;-1:-1:-1;;;;;80171:18:0;;;;80192:16;80128:26;:81::i;:::-;80252:16;;80288:18;;80245:63;;-1:-1:-1;;;80245:63:0;;-1:-1:-1;;;;;80288:18:0;;;80245:63;;;5649:51:1;80222:20:0;;80245:81;;80313:12;;80252:16;;;80245:34;;5622:18:1;;80245:63:0;;;;;;;;;;;;;;;;;;;;;;;;;;;;;;;;;;;;;;;;;;;;;;;;;;;;;;;;;;;;;;:::i;:::-;:67;;:81::i;:::-;80222:104;-1:-1:-1;80342:16:0;;80339:146;;80374:18;;:52;;-1:-1:-1;;;80374:52:0;;;;;16178:25:1;;;-1:-1:-1;;;;;80374:18:0;;;;:38;;16151:18:1;;80374:52:0;;;;;;;;;;;;;;;;;;;;;;;;;;;;;;;;;;;;;;;;;80446:27;80460:12;80446:27;;;;16178:25:1;;16166:2;16151:18;;16133:76;80446:27:0;;;;;;;;79961:531;;;:::o;80500:::-;80598:16;;80634:18;;80591:63;;-1:-1:-1;;;80591:63:0;;-1:-1:-1;;;;;80634:18:0;;;80591:63;;;5649:51:1;80568:20:0;;80598:16;;;;;80591:34;;5622:18:1;;80591:63:0;;;;;;;;;;;;;;;;;;;;;;;;;;;;;;;;;;;;;;;;;;;;;;;;;;;;;;;;;;;;;:::i;:::-;80710:18;;80731:16;;80568:86;;-1:-1:-1;80667:81:0;;80694:6;;-1:-1:-1;;;;;80710:18:0;;;;80731:16;80667:26;:81::i;:::-;80791:16;;80827:18;;80784:63;;-1:-1:-1;;;80784:63:0;;-1:-1:-1;;;;;80827:18:0;;;80784:63;;;5649:51:1;80761:20:0;;80784:81;;80852:12;;80791:16;;;80784:34;;5622:18:1;;80784:63:0;5604:102:1;80784:81:0;80761:104;-1:-1:-1;80881:16:0;;80878:146;;80913:18;;:52;;-1:-1:-1;;;80913:52:0;;;;;16178:25:1;;;-1:-1:-1;;;;;80913:18:0;;;;:38;;16151:18:1;;80913:52:0;16133:76:1;13362:468:0;-1:-1:-1;;;;;13468:20:0;;13460:45;;;;-1:-1:-1;;;13460:45:0;;;;;;;:::i;:::-;-1:-1:-1;;;;;13524:23:0;;13516:48;;;;-1:-1:-1;;;13516:48:0;;;;;;;:::i;:::-;13657;;;;;;;;;;;-1:-1:-1;;;13657:48:0;;;;;;;;-1:-1:-1;;;;;13657:17:0;;-1:-1:-1;13657:17:0;;;;;;;;;;;;:48;;13679:6;;13657:21;:48::i;:::-;-1:-1:-1;;;;;13637:17:0;;;:9;:17;;;;;;;;;;;:68;;;;13739:20;;;;;;;:32;;13764:6;13739:24;:32::i;:::-;-1:-1:-1;;;;;13716:20:0;;;:9;:20;;;;;;;;;;;;:55;;;;13787:35;16178:25:1;;;13716:20:0;;13787:35;;;;;;16151:18:1;13787:35:0;16133:76:1;66183:675:0;66519:28;;-1:-1:-1;;66536:10:0;4981:2:1;4977:15;4973:53;66519:28:0;;;4961:66:1;66221:7:0;;;;66595:12;;66575:15;;5043:12:1;;66519:28:0;;;;;;;;;;;;66509:39;;;;;;66501:48;;66500:91;;;;:::i;:::-;66402:32;;-1:-1:-1;;66419:14:0;4981:2:1;4977:15;4973:53;66402:32:0;;;4961:66:1;66482:14:0;;66462:15;;5043:12:1;;66402:32:0;;;;;;;;;;;;66392:43;;;;;;66384:52;;66383:95;;;;:::i;:::-;66345:34;66363:16;66345:15;:34;:::i;:::-;:134;;;;:::i;:::-;:151;;;;:::i;:::-;:247;;;;:::i;:::-;:262;;;;:::i;:::-;66306:302;;;;;;5445:19:1;;5489:2;5480:12;;5435:63;66306:302:0;;;;-1:-1:-1;;66306:302:0;;;;;;;;;66278:345;;66306:302;66278:345;;;;;-1:-1:-1;66256:378:0;66676:10;66683:3;66278:345;66676:10;:::i;:::-;66675:18;;66690:3;66675:18;:::i;:::-;66667:27;;:4;:27;:::i;:::-;66645:50;-1:-1:-1;66710:15:0;66706:145;;66742:15;66756:1;66742:15;;:::i;75876:532::-;76058:15;;76026:62;;76043:4;;-1:-1:-1;;;;;76058:15:0;76076:11;76026:8;:62::i;:::-;76131:15;;76335;;-1:-1:-1;;;;;76131:15:0;;;;:31;;76170:9;;76203:4;;76223:11;;76131:15;;;;76335;76365:24;:15;76385:3;76365:19;:24::i;:::-;76131:269;;;;;;-1:-1:-1;;;;;;76131:269:0;;;-1:-1:-1;;;;;7376:15:1;;;76131:269:0;;;7358:34:1;7408:18;;;7401:34;;;;7451:18;;;7444:34;;;;7494:18;;;7487:34;;;;7558:15;;;7537:19;;;7530:44;7590:19;;;7583:35;;;;7292:19;;76131:269:0;;;;;;;;;;;;;;;;;;;;;;;;;;;;;;;;;;;;;;;;;;;;;;;;;;;;;;;;;;;;;;;:::i;79074:879::-;79197:21;79260:16;-1:-1:-1;;;;;79234:42:0;:15;;;;;;;;;-1:-1:-1;;;;;79234:15:0;-1:-1:-1;;;;;79234:20:0;;:22;;;;;;;;;;;;;;;;;;;;;;;;;;;;;;;;;;;;;;;;;;;;;;;;;;;;;;;;;;;;;;;;;;;;;;;;:::i;:::-;-1:-1:-1;;;;;79234:42:0;;79231:355;;;79299:16;;;79313:1;79299:16;;;;;;;;;;;;;;;;;;;;-1:-1:-1;79299:16:0;79292:23;;79348:4;79330;79335:1;79330:7;;;;;;-1:-1:-1;;;79330:7:0;;;;;;;;;;;;;;:23;-1:-1:-1;;;;;79330:23:0;;;-1:-1:-1;;;;;79330:23:0;;;;;79378:16;79368:4;79373:1;79368:7;;;;;;-1:-1:-1;;;79368:7:0;;;;;;;;;;;;;;:26;-1:-1:-1;;;;;79368:26:0;;;-1:-1:-1;;;;;79368:26:0;;;;;79231:355;;;79432:16;;;79446:1;79432:16;;;;;;;;;;;;;;;;;;;;-1:-1:-1;79432:16:0;79425:23;;79481:4;79463;79468:1;79463:7;;;;;;-1:-1:-1;;;79463:7:0;;;;;;;;;-1:-1:-1;;;;;79463:23:0;;;:7;;;;;;;;;;:23;;;;79511:15;;:22;;;-1:-1:-1;;;79511:22:0;;;;:15;;;;;:20;;:22;;;;;79463:7;;79511:22;;;;;:15;:22;;;;;;;;;;;;;;;;;;;;;;;;;;;;;;;;;;;;;;;;;;;;;;;;;;;;;:::i;:::-;79501:4;79506:1;79501:7;;;;;;-1:-1:-1;;;79501:7:0;;;;;;;;;;;;;;:32;-1:-1:-1;;;;;79501:32:0;;;-1:-1:-1;;;;;79501:32:0;;;;;79558:16;79548:4;79553:1;79548:7;;;;;;-1:-1:-1;;;79548:7:0;;;;;;;;;;;;;;:26;-1:-1:-1;;;;;79548:26:0;;;-1:-1:-1;;;;;79548:26:0;;;;;79231:355;79630:15;;79598:63;;79615:4;;-1:-1:-1;;;;;79630:15:0;79648:12;79598:8;:63::i;:::-;79700:15;;-1:-1:-1;;;;;79700:15:0;:69;79784:12;79700:15;79866:4;79885:10;79910:24;:15;79930:3;79910:19;:24::i;:::-;79700:245;;;;;;;;;;;;;;;;;;;:::i;:::-;;;;;;;;;;;;;;;;;;;;;;;;;;;;;;;;;;;;;;;;;79074:879;;;;:::o;14:257:1:-;73:6;126:2;114:9;105:7;101:23;97:32;94:2;;;147:6;139;132:22;94:2;191:9;178:23;210:31;235:5;210:31;:::i;276:261::-;346:6;399:2;387:9;378:7;374:23;370:32;367:2;;;420:6;412;405:22;367:2;457:9;451:16;476:31;501:5;476:31;:::i;542:398::-;610:6;618;671:2;659:9;650:7;646:23;642:32;639:2;;;692:6;684;677:22;639:2;736:9;723:23;755:31;780:5;755:31;:::i;:::-;805:5;-1:-1:-1;862:2:1;847:18;;834:32;875:33;834:32;875:33;:::i;:::-;927:7;917:17;;;629:311;;;;;:::o;945:466::-;1022:6;1030;1038;1091:2;1079:9;1070:7;1066:23;1062:32;1059:2;;;1112:6;1104;1097:22;1059:2;1156:9;1143:23;1175:31;1200:5;1175:31;:::i;:::-;1225:5;-1:-1:-1;1282:2:1;1267:18;;1254:32;1295:33;1254:32;1295:33;:::i;:::-;1049:362;;1347:7;;-1:-1:-1;;;1401:2:1;1386:18;;;;1373:32;;1049:362::o;1416:392::-;1481:6;1489;1542:2;1530:9;1521:7;1517:23;1513:32;1510:2;;;1563:6;1555;1548:22;1510:2;1607:9;1594:23;1626:31;1651:5;1626:31;:::i;:::-;1676:5;-1:-1:-1;1733:2:1;1718:18;;1705:32;1746:30;1705:32;1746:30;:::i;1813:691::-;1944:6;1952;1960;1968;1976;1984;1992;2000;2053:3;2041:9;2032:7;2028:23;2024:33;2021:2;;;2075:6;2067;2060:22;2021:2;2112:9;2106:16;2131:31;2156:5;2131:31;:::i;:::-;2181:5;2171:15;;;2226:2;2215:9;2211:18;2205:25;2195:35;;2270:2;2259:9;2255:18;2249:25;2239:35;;2314:2;2303:9;2299:18;2293:25;2283:35;;2358:3;2347:9;2343:19;2337:26;2327:36;;2403:3;2392:9;2388:19;2382:26;2372:36;;2448:3;2437:9;2433:19;2427:26;2417:36;;2493:3;2482:9;2478:19;2472:26;2462:36;;2011:493;;;;;;;;;;;:::o;2509:325::-;2577:6;2585;2638:2;2626:9;2617:7;2613:23;2609:32;2606:2;;;2659:6;2651;2644:22;2606:2;2703:9;2690:23;2722:31;2747:5;2722:31;:::i;:::-;2772:5;2824:2;2809:18;;;;2796:32;;-1:-1:-1;;;2596:238:1:o;2839:251::-;2895:6;2948:2;2936:9;2927:7;2923:23;2919:32;2916:2;;;2969:6;2961;2954:22;2916:2;3013:9;3000:23;3032:28;3054:5;3032:28;:::i;3095:255::-;3162:6;3215:2;3203:9;3194:7;3190:23;3186:32;3183:2;;;3236:6;3228;3221:22;3183:2;3273:9;3267:16;3292:28;3314:5;3292:28;:::i;3355:190::-;3414:6;3467:2;3455:9;3446:7;3442:23;3438:32;3435:2;;;3488:6;3480;3473:22;3435:2;-1:-1:-1;3516:23:1;;3425:120;-1:-1:-1;3425:120:1:o;3550:194::-;3620:6;3673:2;3661:9;3652:7;3648:23;3644:32;3641:2;;;3694:6;3686;3679:22;3641:2;-1:-1:-1;3722:16:1;;3631:113;-1:-1:-1;3631:113:1:o;3749:316::-;3837:6;3845;3853;3906:2;3894:9;3885:7;3881:23;3877:32;3874:2;;;3927:6;3919;3912:22;3874:2;3961:9;3955:16;3945:26;;4011:2;4000:9;3996:18;3990:25;3980:35;;4055:2;4044:9;4040:18;4034:25;4024:35;;3864:201;;;;;:::o;4070:289::-;4127:6;4180:2;4168:9;4159:7;4155:23;4151:32;4148:2;;;4201:6;4193;4186:22;4148:2;4245:9;4232:23;4295:4;4288:5;4284:16;4277:5;4274:27;4264:2;;4320:6;4312;4305:22;4364:463;4417:3;4455:5;4449:12;4482:6;4477:3;4470:19;4508:4;4537:2;4532:3;4528:12;4521:19;;4574:2;4567:5;4563:14;4595:3;4607:195;4621:6;4618:1;4615:13;4607:195;;;4686:13;;-1:-1:-1;;;;;4682:39:1;4670:52;;4742:12;;;;4777:15;;;;4718:1;4636:9;4607:195;;;-1:-1:-1;4818:3:1;;4425:402;-1:-1:-1;;;;;4425:402:1:o;8542:510::-;8813:6;8802:9;8795:25;8856:3;8851:2;8840:9;8836:18;8829:31;8776:4;8877:57;8929:3;8918:9;8914:19;8906:6;8877:57;:::i;:::-;-1:-1:-1;;;;;8970:32:1;;;;8965:2;8950:18;;8943:60;-1:-1:-1;9034:2:1;9019:18;9012:34;8869:65;8785:267;-1:-1:-1;;8785:267:1:o;9057:603::-;9169:4;9198:2;9227;9216:9;9209:21;9259:6;9253:13;9302:6;9297:2;9286:9;9282:18;9275:34;9327:4;9340:140;9354:6;9351:1;9348:13;9340:140;;;9449:14;;;9445:23;;9439:30;9415:17;;;9434:2;9411:26;9404:66;9369:10;;9340:140;;;9498:6;9495:1;9492:13;9489:2;;;9568:4;9563:2;9554:6;9543:9;9539:22;9535:31;9528:45;9489:2;-1:-1:-1;9644:2:1;9623:15;-1:-1:-1;;9619:29:1;9604:45;;;;9651:2;9600:54;;9178:482;-1:-1:-1;;;9178:482:1:o;9665:335::-;9867:2;9849:21;;;9906:2;9886:18;;;9879:30;-1:-1:-1;;;9940:2:1;9925:18;;9918:41;9991:2;9976:18;;9839:161::o;11827:336::-;12029:2;12011:21;;;12068:2;12048:18;;;12041:30;-1:-1:-1;;;12102:2:1;12087:18;;12080:42;12154:2;12139:18;;12001:162::o;12872:328::-;13074:2;13056:21;;;13113:1;13093:18;;;13086:29;-1:-1:-1;;;13146:2:1;13131:18;;13124:35;13191:2;13176:18;;13046:154::o;14297:356::-;14499:2;14481:21;;;14518:18;;;14511:30;14577:34;14572:2;14557:18;;14550:62;14644:2;14629:18;;14471:182::o;14658:336::-;14860:2;14842:21;;;14899:2;14879:18;;;14872:30;-1:-1:-1;;;14933:2:1;14918:18;;14911:42;14985:2;14970:18;;14832:162::o;16214:582::-;16513:6;16502:9;16495:25;16556:6;16551:2;16540:9;16536:18;16529:34;16599:3;16594:2;16583:9;16579:18;16572:31;16476:4;16620:57;16672:3;16661:9;16657:19;16649:6;16620:57;:::i;:::-;-1:-1:-1;;;;;16713:32:1;;;;16708:2;16693:18;;16686:60;-1:-1:-1;16777:3:1;16762:19;16755:35;16612:65;16485:311;-1:-1:-1;;;16485:311:1:o;17710:128::-;17750:3;17781:1;17777:6;17774:1;17771:13;17768:2;;;17787:18;;:::i;:::-;-1:-1:-1;17823:9:1;;17758:80::o;17843:217::-;17883:1;17909;17899:2;;-1:-1:-1;;;17934:31:1;;17988:4;17985:1;17978:15;18016:4;17941:1;18006:15;17899:2;-1:-1:-1;18045:9:1;;17889:171::o;18065:168::-;18105:7;18171:1;18167;18163:6;18159:14;18156:1;18153:21;18148:1;18141:9;18134:17;18130:45;18127:2;;;18178:18;;:::i;:::-;-1:-1:-1;18218:9:1;;18117:116::o;18238:125::-;18278:4;18306:1;18303;18300:8;18297:2;;;18311:18;;:::i;:::-;-1:-1:-1;18348:9:1;;18287:76::o;18368:380::-;18447:1;18443:12;;;;18490;;;18511:2;;18565:4;18557:6;18553:17;18543:27;;18511:2;18618;18610:6;18607:14;18587:18;18584:38;18581:2;;;18664:10;18659:3;18655:20;18652:1;18645:31;18699:4;18696:1;18689:15;18727:4;18724:1;18717:15;18581:2;;18423:325;;;:::o;18753:127::-;18814:10;18809:3;18805:20;18802:1;18795:31;18845:4;18842:1;18835:15;18869:4;18866:1;18859:15;18885:131;-1:-1:-1;;;;;18960:31:1;;18950:42;;18940:2;;19006:1;19003;18996:12;19021:118;19107:5;19100:13;19093:21;19086:5;19083:32;19073:2;;19129:1;19126;19119:12

Swarm Source

ipfs://d1221689771f90c1da7e49b73dc4233fc8b2347726ff1347f175e110a6180d82
Block Transaction Gas Used Reward
Age Block Fee Address BC Fee Address Voting Power Jailed Incoming
Block Uncle Number Difficulty Gas Used Reward
Loading
Loading
Make sure to use the "Vote Down" button for any spammy posts, and the "Vote Up" for interesting conversations.